[[{"header":{"parameterUnit":"m.s-1","parameterCategory":1,"la1":30.6,"la2":29.2853,"lo1":-89.7004,"lo2":-87.6739,"dy":0.0162,"dx":0.0183,"nx":112,"ny":82,"refTime":"2024-09-02T00:00:00:Z","depth":0,"parameterNumber":2,"parameterNumberName":"U-component_of_WINDS"},"data":[0.0,0.0,0.0,0.0,0.0,0.0,0.0,0.0,0.0,0.0,0.0,0.0,0.0,0.0,0.0,0.0,0.0,0.0,0.0,0.0,0.0,0.0,0.0,0.0,0.0,0.0,0.0,0.0,0.0,0.0,0.0,0.0,0.0,0.0,0.0,0.0,0.0,0.0,0.0,0.0,0.0,0.0,0.0,0.0,0.0,0.0,0.0,0.0,0.0,0.0,0.0,0.0,0.0,0.0,0.0,0.0,0.0,0.0,0.0,0.0,0.0,0.0,0.0,0.0,0.0,0.0,0.0,0.0,0.0,0.0,0.0,0.0,0.0,0.0,0.0,0.0,0.0,0.0,0.0,0.0,0.0,0.0,0.0,0.0,0.0,0.0,0.0,0.0,0.0,0.0,1.1901,1.2285,1.3397,1.4034,1.3858,1.3627,1.2705,1.0873,0.0,0.0,0.0,0.0,0.0,0.0,0.0,0.0,0.0,0.0,0.0,0.0,0.0,0.0,0.0,0.0,0.0,0.0,0.0,0.0,0.0,0.0,0.0,0.0,0.0,0.0,0.0,0.0,0.0,0.0,0.0,0.0,0.0,0.0,0.0,0.0,0.0,0.0,0.0,0.0,0.0,0.0,0.0,0.0,0.0,0.0,0.0,0.0,0.0,0.0,0.0,0.0,0.0,0.0,0.0,0.0,0.0,0.0,0.0,0.0,0.0,0.0,0.0,0.0,0.0,0.0,0.0,0.0,0.0,0.0,0.0,0.0,0.0,0.0,0.0,0.0,0.0,0.0,0.0,0.0,0.0,0.0,0.0,0.0,0.0,0.0,0.0,0.0,0.0,0.0,0.0,0.0,0.0,0.0,0.0,0.0,0.0,0.0,0.0,0.0,0.0,0.0,0.0,0.0,1.1715,1.3376,1.3987,1.415,1.3865,1.3241,1.2235,1.0927,0.0,0.0,0.0,0.0,0.0,0.0,0.0,0.0,0.0,0.0,0.0,0.0,0.0,0.0,0.0,0.0,0.0,0.0,0.0,0.0,0.0,0.0,0.0,0.0,0.0,0.0,0.0,0.0,0.0,0.0,0.0,0.0,0.0,0.0,0.0,0.0,0.0,0.0,0.0,0.0,0.0,0.0,0.0,0.0,0.0,0.0,0.0,0.0,0.0,0.0,0.0,0.0,0.0,0.0,0.0,0.0,0.0,0.0,0.0,0.0,0.0,0.0,0.0,0.0,0.0,0.0,0.0,0.0,0.0,0.0,0.0,0.0,0.0,0.0,0.0,0.0,0.0,0.0,0.0,0.0,0.0,0.0,0.0,0.0,0.0,0.0,0.0,0.0,0.0,0.0,0.0,0.0,0.0,0.0,0.0,0.0,0.0,0.0,0.0,0.0,0.0,0.0,0.0,1.1615,1.2264,1.3804,1.4163,1.4177,1.3865,1.3308,1.2359,1.0847,1.0256,0.0,0.0,0.0,0.0,0.0,0.0,0.0,0.0,0.0,0.0,0.0,0.0,0.0,0.0,0.0,0.0,0.0,0.0,0.0,0.0,0.0,0.0,0.0,0.0,0.0,0.0,0.0,0.0,0.0,0.0,0.0,0.0,0.0,0.0,0.0,0.0,0.0,0.0,0.0,0.0,0.0,0.0,0.0,0.0,0.0,0.0,0.0,0.0,0.0,0.0,0.0,0.0,0.0,0.0,0.0,0.0,0.0,0.0,0.0,0.0,0.0,0.0,0.0,0.0,0.0,0.0,0.0,0.0,0.0,0.0,0.0,0.0,0.0,0.0,0.0,0.0,0.0,0.0,0.0,0.0,0.0,0.0,0.0,0.0,0.0,0.0,0.0,0.0,0.0,0.0,0.0,0.0,0.0,0.0,0.0,0.0,0.0,0.0,0.0,0.0,0.0,0.0,1.2379,1.2956,1.4014,1.4197,1.4136,1.3865,1.3234,1.2244,1.0812,0.9856,0.0,0.0,0.0,0.0,0.0,0.0,0.0,0.0,0.0,0.0,0.0,0.0,0.0,0.0,0.0,0.0,0.0,0.0,0.0,0.0,0.0,0.0,0.0,0.0,0.0,0.0,0.0,0.0,0.0,0.0,0.0,0.0,0.0,0.0,0.0,0.0,0.0,0.0,0.0,0.0,0.0,0.0,0.0,0.0,0.0,0.0,0.0,0.0,0.0,0.0,0.0,0.0,0.0,0.0,0.0,0.0,0.0,0.0,0.0,0.0,0.0,0.0,0.0,0.0,0.0,0.0,0.0,0.0,0.0,0.0,0.0,0.0,0.0,0.0,0.0,0.0,0.0,0.0,0.0,0.0,0.0,0.0,0.0,0.0,0.0,0.0,0.0,0.0,0.0,0.0,0.0,0.0,0.0,0.0,0.0,0.0,0.0,0.0,0.0,0.0,0.0,0.0,1.2637,1.3573,1.4217,1.4163,1.4021,1.3858,1.2664,1.1579,1.0772,0.9361,0.0,0.0,0.0,0.0,0.0,0.0,0.0,0.0,0.0,0.0,0.0,0.0,0.0,0.0,0.0,0.0,0.0,0.0,0.0,0.0,0.0,0.0,0.0,0.0,0.0,0.0,0.0,0.0,0.0,0.0,0.0,0.0,0.0,0.0,0.0,0.0,0.0,0.0,0.0,0.0,0.0,0.0,0.0,0.0,0.0,0.0,0.0,0.0,0.0,0.0,0.0,0.0,0.0,0.0,0.0,0.0,0.0,0.0,0.0,0.0,0.0,0.0,0.0,0.0,0.0,0.0,0.0,0.0,0.0,0.0,0.0,0.0,0.0,0.0,0.0,0.0,0.0,0.0,0.0,0.0,0.0,0.0,0.0,0.0,0.0,0.0,0.0,0.0,0.0,0.0,0.0,0.0,0.0,0.0,0.0,0.0,0.0,0.0,0.0,0.0,0.0,0.0,1.2413,1.3322,1.4204,1.4163,1.4007,1.3851,1.3037,1.202,1.0799,0.0,0.0,0.0,0.0,0.0,0.0,0.0,0.0,0.0,0.0,0.0,0.0,0.0,0.0,0.0,0.0,0.0,0.0,0.0,0.0,0.0,0.0,0.0,0.0,0.0,0.0,0.0,0.0,0.0,0.0,0.0,0.0,0.0,0.0,0.0,0.0,0.0,0.0,0.0,0.0,0.0,0.0,0.0,0.0,0.0,0.0,0.0,0.0,0.0,0.0,0.0,0.0,0.0,0.0,0.0,0.0,0.0,0.0,0.0,0.0,0.0,0.0,0.0,0.0,0.0,0.0,0.0,0.0,0.0,0.0,0.0,0.0,0.0,0.0,0.0,0.0,0.0,0.0,0.0,0.0,0.0,0.0,0.0,0.0,0.0,0.0,0.0,0.0,0.0,0.0,0.0,0.0,0.0,0.0,0.0,0.0,0.0,0.0,0.0,0.0,0.0,0.0,1.143,1.2433,1.3342,1.4211,1.4116,1.3953,1.3851,1.3037,1.1993,1.0724,0.0,0.0,0.0,0.0,0.0,0.0,0.0,0.0,0.0,0.0,0.0,0.0,0.0,0.0,0.0,0.0,0.0,0.0,0.0,0.0,0.0,0.0,0.0,0.0,0.0,0.0,0.0,0.0,0.0,0.0,0.0,0.0,0.0,0.0,0.0,0.0,0.0,0.0,0.0,0.0,0.0,0.0,0.0,0.0,0.0,0.0,0.0,0.0,0.0,0.0,0.0,0.0,0.0,0.0,0.0,0.0,0.0,0.0,0.0,0.0,0.0,0.0,0.0,0.0,0.0,0.0,0.0,0.0,0.0,0.0,0.0,0.0,0.0,0.0,0.0,0.0,0.0,0.0,0.0,0.0,0.0,0.0,0.0,0.0,0.0,0.0,0.0,0.0,0.0,0.0,0.0,0.0,0.0,0.0,0.0,0.0,0.0,0.0,0.0,0.0,0.0,0.0,1.1484,1.28,1.3804,1.4251,1.4027,1.3838,1.3838,1.2481,1.1301,0.0,0.0,0.0,0.0,0.0,0.0,0.0,0.0,0.0,0.0,0.0,0.0,0.0,0.0,0.0,0.0,0.0,0.0,0.0,0.0,0.0,0.0,0.0,0.0,0.0,0.0,0.0,0.0,0.0,0.0,0.0,0.0,0.0,0.0,0.0,0.0,0.0,0.0,0.0,0.0,0.0,0.0,0.0,0.0,0.0,0.0,0.0,0.0,0.0,0.0,0.0,0.0,0.0,0.0,0.0,0.0,0.0,0.0,0.0,0.0,0.0,0.0,0.0,0.0,0.0,0.0,0.0,0.0,0.0,0.0,0.0,0.0,0.0,0.0,0.0,0.0,0.0,0.0,0.0,0.0,0.0,0.0,0.0,0.0,0.0,0.0,0.0,0.0,0.0,0.0,0.0,0.0,0.0,0.0,0.0,0.0,0.0,0.0,0.0,0.0,0.0,0.0,0.0,1.1497,1.2881,1.3912,1.4265,1.4027,1.3797,1.3702,1.2712,1.1633,1.0561,0.0,0.0,0.0,0.0,0.0,0.0,0.0,0.0,0.0,0.0,0.0,0.0,0.0,0.0,0.0,0.0,0.0,0.0,0.0,0.0,0.0,0.0,0.0,0.0,0.0,0.0,0.0,0.0,0.0,0.0,0.0,0.0,0.0,0.0,0.0,0.0,0.0,0.0,0.0,0.0,0.0,0.0,0.0,0.0,0.0,0.0,0.0,0.0,0.0,0.0,0.0,0.0,0.0,0.0,0.0,0.0,0.0,0.0,0.0,0.0,0.0,0.0,0.0,0.0,0.0,0.0,0.0,0.0,0.0,0.0,0.0,0.0,0.0,0.0,0.0,0.0,0.0,0.0,0.0,0.0,0.0,0.0,0.0,0.0,0.0,0.0,0.0,0.0,0.0,0.0,0.0,0.0,0.0,0.0,0.0,0.0,0.0,0.0,0.0,0.0,0.0,0.0,1.1579,1.2956,1.396,1.4265,1.4027,1.3804,1.3722,1.2888,1.1891,1.0744,0.0,0.0,0.0,0.0,0.0,0.0,0.0,0.0,0.0,0.0,0.0,0.0,0.0,0.0,0.0,0.0,0.0,0.0,0.0,0.0,0.0,0.0,0.0,0.0,0.0,0.0,0.0,0.0,0.0,0.0,0.0,0.0,0.0,0.0,0.0,0.0,0.0,0.0,0.0,0.0,0.0,0.0,0.0,0.0,0.0,0.0,0.0,0.0,0.0,0.0,0.0,0.0,0.0,0.0,0.0,0.0,0.0,0.0,0.0,0.0,0.0,0.0,0.0,0.0,0.0,0.0,0.0,0.0,0.0,0.0,0.0,0.0,0.0,0.0,0.0,0.0,0.0,0.0,0.0,0.0,0.0,0.0,0.0,0.0,0.0,0.0,0.0,0.0,0.0,0.0,0.0,0.0,0.0,0.0,0.0,0.0,0.0,0.0,0.0,0.0,0.0,0.0,1.1694,1.3003,1.396,1.4265,1.4027,1.3752,1.3824,1.301,1.206,1.0968,0.0,0.0,0.0,0.0,0.0,0.0,0.0,0.0,0.0,0.0,0.0,0.0,0.0,0.0,0.0,0.0,0.0,0.0,0.0,0.0,0.0,0.0,0.0,0.0,0.0,0.0,0.0,0.0,0.0,0.0,0.0,0.0,0.0,0.0,0.0,0.0,0.0,0.0,0.0,0.0,0.0,0.0,0.0,0.0,0.0,0.0,0.0,0.0,0.0,0.0,0.0,0.0,0.0,0.0,0.0,0.0,0.0,0.0,0.0,0.0,1.4712,1.3931,0.0,0.0,0.0,0.0,0.0,0.0,0.0,0.0,0.0,0.0,0.0,0.0,0.0,0.0,0.0,0.0,0.0,0.0,0.0,0.0,0.0,0.0,0.0,0.0,0.0,0.0,0.0,0.0,0.0,0.0,0.0,0.0,0.0,0.0,0.0,0.0,0.0,0.0,0.0,0.0,1.1694,1.3003,1.396,1.4265,1.4027,1.3797,1.3682,1.2956,1.2108,1.1179,1.0209,0.0,0.0,0.0,0.0,0.0,0.0,0.0,0.0,0.0,0.0,0.0,0.0,0.0,0.0,0.0,0.0,0.0,0.0,0.0,0.0,0.0,0.0,0.0,0.0,0.0,0.0,0.0,0.0,0.0,0.0,0.0,0.0,0.0,0.0,0.0,0.0,0.0,0.0,0.0,0.0,0.0,0.0,0.0,0.0,0.0,0.0,0.0,0.0,0.0,0.0,0.0,0.0,0.0,0.0,0.0,0.0,0.0,0.0,0.0,1.4625,1.4242,0.0,0.0,0.0,0.0,0.0,0.0,0.0,0.0,0.0,0.0,0.0,0.0,0.0,0.0,0.0,0.0,0.0,0.0,0.0,0.0,0.0,0.0,0.0,0.0,0.0,0.0,0.0,0.0,0.0,0.0,0.0,0.0,0.0,0.0,0.0,0.0,0.0,0.0,0.0,0.0,1.1918,1.3166,1.4014,1.4177,1.3919,1.3709,1.3634,1.3003,1.2318,1.164,1.0751,0.0,0.0,0.0,0.0,0.0,0.0,0.0,0.0,0.0,0.0,0.0,0.0,0.0,0.0,0.0,0.0,0.0,0.0,0.0,0.0,0.0,0.0,0.0,0.0,0.0,0.0,0.0,0.0,0.0,0.0,0.0,0.0,0.0,0.0,0.0,0.0,0.0,0.0,0.0,0.0,0.0,0.0,0.0,0.0,0.0,0.0,0.0,0.0,0.0,0.0,0.0,0.0,0.0,1.4876,1.5104,1.5521,1.5272,1.4811,1.4166,1.4344,1.4698,1.4951,1.3663,0.0,0.0,0.0,0.0,0.0,0.0,0.0,0.0,0.0,0.0,0.0,0.0,0.0,0.0,0.0,0.0,0.0,0.0,0.0,0.0,0.0,0.0,0.0,0.0,1.1837,1.1796,1.0256,0.0,0.0,0.0,0.0,0.0,0.0,0.0,0.0,0.0,0.0,0.0,1.2196,1.3349,1.4082,1.4109,1.3824,1.3627,1.3627,1.3078,1.2562,1.2162,1.1396,1.0629,0.0,0.0,0.0,0.0,0.0,0.0,0.0,0.0,0.0,0.0,0.0,0.0,0.0,0.0,0.0,0.0,0.0,0.0,0.0,0.0,0.0,0.0,0.0,0.0,0.0,0.0,0.0,0.0,0.0,0.0,0.0,0.0,1.22,1.2545,0.0,0.0,0.0,0.0,0.0,0.0,0.0,0.0,0.0,0.0,0.0,0.0,0.0,1.2467,1.2945,1.3214,1.3399,1.345,1.3824,1.3936,1.3934,1.3985,1.4056,1.4131,1.3951,0.0,1.228,1.1867,0.0,0.0,0.0,0.0,0.0,0.0,0.0,0.0,0.0,0.0,0.0,0.0,0.0,0.0,0.0,0.0,0.0,0.0,0.0,0.0,0.0,0.0,1.2956,1.261,1.2684,1.2705,0.0,1.1199,1.0249,0.972,0.9354,0.0,0.0,0.0,0.0,0.0,0.0,0.0,1.2352,1.341,1.4122,1.4258,1.3885,1.3627,1.3627,1.3078,1.2651,1.2454,1.2094,1.1606,1.0982,1.0405,0.0,0.0,0.0,0.0,0.0,0.0,0.0,0.0,0.0,0.0,0.0,0.0,0.0,0.0,0.0,0.0,0.0,0.0,0.0,0.0,0.0,0.0,0.0,0.0,0.0,0.0,0.0,0.0,0.0,1.1356,1.1764,1.1612,1.0949,1.0416,0.0,0.0,0.0,0.0,0.0,0.0,0.0,0.0,0.0,1.2779,1.2786,1.288,1.3098,1.3554,1.3776,1.3782,1.4107,1.4231,1.4251,1.4231,1.4251,1.4312,1.4163,1.3715,1.3044,1.2406,1.1857,1.1348,0.0,0.0,0.0,0.0,1.0955,1.1172,1.1782,1.1999,1.1932,1.1538,0.0,0.0,0.0,0.0,0.0,0.0,0.0,0.0,0.0,0.0,1.3417,1.3471,1.36,1.3627,1.3322,1.2725,1.1945,0.0,1.0677,1.0399,0.9578,0.0,0.0,0.0,0.0,1.1959,1.2773,1.3654,1.4129,1.3946,1.3668,1.3437,1.3268,1.2929,1.2705,1.263,1.2427,1.2115,1.1687,1.1166,1.05,0.0,0.0,0.0,0.0,0.0,0.0,0.0,0.0,0.0,0.0,0.0,0.0,0.0,0.0,0.0,0.0,0.0,0.0,0.0,0.0,0.0,0.0,0.0,0.0,0.0,0.0,0.0,0.0,1.0958,1.1141,1.0689,1.0507,1.0295,0.0,0.0,0.0,0.0,0.0,0.0,1.2069,1.2453,1.2796,1.304,1.3429,1.3694,1.3743,1.4075,1.4299,1.4414,1.4523,1.4631,1.4733,1.4624,1.457,1.4563,1.4462,1.4326,1.4122,1.3295,1.2786,1.2461,1.1938,1.1775,1.187,1.2054,1.2216,1.244,1.3071,1.3288,1.322,1.282,1.2481,1.2094,1.1348,0.0,0.0,0.0,0.0,1.2196,1.2983,1.3376,1.3654,1.3994,1.4156,1.417,1.3899,1.3756,1.3322,0.0,1.1932,1.1674,1.0629,0.0,0.0,0.0,0.0,1.2461,1.3091,1.3763,1.4068,1.3777,1.3505,1.3268,1.3091,1.2861,1.2732,1.2732,1.2657,1.2488,1.2189,1.1746,1.1165,1.0677,0.0,0.0,0.0,0.0,0.0,0.0,0.0,0.0,0.0,0.0,0.0,0.0,0.0,0.0,0.0,0.0,0.0,0.0,0.0,0.0,0.0,0.0,0.0,0.0,0.0,0.0,0.0,0.0,0.0,1.0533,1.1279,0.0,0.0,0.0,0.0,1.171,1.2311,1.2743,1.2852,1.3317,1.3769,1.4053,1.4143,1.4373,1.4672,1.4692,1.4713,1.4719,1.4726,1.4733,1.474,1.4733,1.4726,1.4726,1.4719,1.4631,1.4441,1.3831,1.3403,1.3098,1.2786,1.2576,1.2494,1.2793,1.2996,1.3166,1.3492,1.3607,1.3627,1.3729,1.3281,1.2712,1.2807,1.244,0.0,0.0,1.2868,1.32,1.3675,1.3919,1.4041,1.4068,1.4075,1.4041,1.3878,1.3752,1.3682,0.0,1.2752,1.24,1.2203,0.0,1.1796,1.1959,1.2393,1.2813,1.3132,1.358,1.3912,1.4034,1.3532,1.3241,1.337,1.2983,1.2732,1.2732,1.2861,1.28,1.2494,1.2182,1.1735,1.1207,1.0243,0.0,0.0,0.0,0.0,0.0,0.0,0.0,0.0,0.0,0.0,0.0,0.0,0.0,0.0,0.0,0.0,0.0,0.0,0.0,0.0,0.0,0.0,0.0,0.0,0.0,0.0,0.0,0.0,1.1634,1.1938,0.0,1.1516,1.1727,1.1969,1.222,1.272,1.3207,1.3418,1.3871,1.4215,1.4346,1.4502,1.4631,1.474,1.474,1.4787,1.4889,1.4889,1.4936,1.5025,1.493,1.4889,1.4882,1.478,1.4706,1.4638,1.4434,1.417,1.3885,1.3783,1.3709,1.3675,1.3783,1.3851,1.3912,1.4021,1.4061,1.4055,1.4007,1.3743,1.3458,1.3512,1.3376,1.3261,1.3519,1.3668,1.381,1.4068,1.4177,1.4217,1.4217,1.4217,1.4204,1.415,1.4136,1.4089,1.3926,1.3532,1.3091,1.2651,1.2562,1.2508,1.2366,1.2725,1.3125,1.3424,1.3688,1.379,1.3654,1.3444,1.3227,1.299,1.2732,1.2583,1.2583,1.2549,1.2481,1.2372,1.2169,1.1823,1.1321,1.0806,1.0059,0.0,0.0,0.0,0.0,0.0,0.0,0.0,0.0,0.0,0.0,0.0,0.0,0.0,0.0,0.0,0.0,0.0,0.0,0.0,0.0,0.0,0.0,0.0,0.0,0.0,1.1059,1.1797,1.2166,1.2464,1.2544,1.2261,1.2519,1.2766,1.301,1.3397,1.3777,1.4122,1.434,1.4516,1.4658,1.4767,1.4841,1.4889,1.4889,1.4943,1.5038,1.5038,1.5092,1.5181,1.5086,1.5038,1.5038,1.493,1.4862,1.4821,1.4821,1.4672,1.4448,1.4448,1.4414,1.4373,1.4373,1.434,1.4299,1.4299,1.4299,1.4285,1.4183,1.4082,1.3994,1.3994,1.3994,1.4021,1.4122,1.415,1.417,1.4272,1.4299,1.4299,1.4122,1.4033,1.4033,1.3856,1.3856,1.3856,1.3856,1.384,1.3634,1.318,1.3152,1.3098,1.284,1.3057,1.3322,1.3526,1.3634,1.3634,1.3492,1.3383,1.3207,1.2908,1.2651,1.2481,1.2433,1.2244,1.2135,1.2135,1.1891,1.164,1.1396,1.105,1.0453,0.9664,0.0,0.0,0.0,0.0,0.0,0.0,0.0,0.0,0.0,0.0,0.0,0.0,0.0,0.0,0.0,0.0,0.0,0.0,0.0,0.0,0.0,0.0,0.0,1.1091,1.1543,1.1938,1.2101,1.2895,1.32,1.2617,1.3349,1.3926,1.4075,1.4353,1.4584,1.4733,1.4746,1.4814,1.4964,1.4977,1.5045,1.5181,1.5181,1.5181,1.5181,1.5181,1.5181,1.5181,1.5181,1.5181,1.5181,1.5181,1.5106,1.4977,1.4977,1.4889,1.4662,1.474,1.4652,1.4516,1.4516,1.4421,1.4299,1.4299,1.4299,1.4299,1.4299,1.4299,1.4299,1.4299,1.4299,1.4299,1.4299,1.4299,1.4299,1.4299,1.4299,1.4122,1.3679,1.3591,1.3413,1.2964,1.2875,1.2875,1.2875,1.3562,1.4027,1.3786,1.3644,1.3503,1.3347,1.3321,0.0,1.3403,1.3314,1.3374,1.3523,1.3273,1.3091,1.3085,1.268,1.2357,1.2132,1.1837,1.1597,1.1677,1.1261,1.1107,1.1191,1.0758,1.0465,1.0319,0.0,0.0,0.0,0.0,0.0,0.0,0.0,0.0,0.0,0.0,0.0,0.0,0.0,0.0,0.0,0.0,0.0,0.0,0.0,0.0,0.0,1.0982,1.1766,1.1839,1.2504,1.3064,1.3322,1.377,1.3987,1.3824,1.4122,1.4346,1.4387,1.457,1.4699,1.474,1.4848,1.493,1.497,1.5072,1.5147,1.5181,1.5181,1.5181,1.5181,1.5181,1.5181,1.5181,1.5181,1.5181,1.5181,1.5181,1.516,1.5126,1.4745,1.4532,1.448,1.4638,1.4713,1.4665,1.455,1.4242,1.3768,1.3768,1.3591,1.3325,1.3325,1.3325,1.3325,1.3325,1.3325,1.3325,1.3325,1.3325,1.3325,1.3325,1.3325,1.323,1.3141,1.3053,1.3053,1.2964,1.2875,1.2875,1.2875,1.311,1.3217,1.2985,1.2847,1.2709,1.2577,1.247,0.0,1.2484,1.1309,1.1153,1.2785,1.1712,1.0924,1.074,1.0549,0.9719,0.8234,0.7956,0.7949,0.8314,0.7872,0.7517,0.7319,0.6685,0.6399,0.0,0.0,0.0,0.0,0.0,0.0,0.0,0.0,0.0,0.0,0.0,0.0,0.0,0.0,0.0,0.0,0.0,0.0,0.0,0.0,0.0,0.0,1.202,1.2691,1.2881,1.3295,1.3695,1.4,1.419,1.4326,1.438,1.4462,1.4563,1.4692,1.4787,1.4862,1.4923,1.5011,1.5059,1.5059,1.514,1.5181,1.5181,1.5181,1.5181,1.5181,1.5181,1.5181,1.5181,1.4993,1.4899,1.4805,1.4617,1.4529,1.4529,1.4241,1.4146,0.0,0.0,0.0,0.0,0.0,1.3701,1.3413,1.3413,1.3191,1.2875,1.2875,1.2875,1.2875,1.2875,1.2875,1.2875,1.2875,1.2875,1.2875,1.2875,1.2337,1.1621,1.1444,1.0728,1.01,0.9922,0.9922,0.9922,0.9922,0.9922,0.0,0.9754,1.0621,1.1268,1.1102,1.0419,0.9854,0.9805,0.8878,0.8795,1.0049,0.9295,0.8645,0.8405,0.8181,0.0,0.0,0.0,0.5979,0.6166,0.6057,0.0,0.0,0.0,0.0,0.0,0.0,0.0,0.0,0.9152,0.9147,0.0,0.0,0.0,0.0,0.0,0.0,0.0,0.0,0.0,0.0,0.0,0.0,0.0,0.0,0.0,0.0,1.3003,1.362,1.4041,1.398,1.3994,1.4265,1.4312,1.4373,1.4502,1.4543,1.4679,1.495,1.4984,1.5052,1.5174,1.5181,0.0,0.0,0.0,1.5181,1.5181,1.5181,1.5181,1.5087,1.5107,1.5114,1.502,1.4542,1.4354,1.4354,1.3876,1.3682,1.3682,1.3588,1.3594,1.3493,1.3688,1.3602,1.3462,1.334,1.312,1.3017,1.3017,0.0,0.0,1.2722,1.271,1.2698,1.2698,1.2609,1.2432,1.2432,1.2248,1.2071,1.2071,1.0816,0.9384,0.9028,0.7599,0.6171,0.5817,0.5728,0.5728,0.5728,0.5728,0.5728,0.5728,0.7707,0.9257,0.9162,0.7673,0.6535,0.6543,0.6369,0.6369,0.6617,0.0,0.0,0.6183,0.5839,0.5645,0.5396,0.5112,0.4844,0.4624,0.4774,0.4864,0.4802,0.5003,0.5299,0.5613,0.5842,0.594,0.589,0.5236,0.5345,0.0,0.0,0.0,0.0,0.0,0.0,0.0,0.0,0.0,0.0,0.0,0.0,0.0,0.0,0.0,1.2895,1.3532,1.4014,1.4224,1.4231,1.4231,1.4292,1.4401,1.4482,1.4509,1.4733,1.4909,1.4964,1.5079,1.5153,1.5181,1.5181,1.5181,1.5181,1.5181,1.5181,1.5181,1.5181,1.4993,1.4523,1.464,0.0,1.412,1.4025,1.4025,1.4019,1.3825,1.3682,1.3682,1.3211,1.2833,1.255,1.3399,1.3602,1.3474,1.345,1.3076,1.2597,1.2597,1.2244,1.1871,1.1871,1.1805,1.181,1.181,1.0644,0.0,0.9388,0.8315,0.7064,0.7064,0.6796,0.6528,0.6442,0.6082,0.5814,0.5728,0.5728,0.5728,0.5728,0.5728,0.5728,0.5728,0.603,0.631,0.632,0.5919,0.5693,0.5628,0.4365,0.4195,0.5951,0.4863,0.4009,0.3964,0.3903,0.3198,0.1649,0.1884,0.1806,0.1413,0.1469,0.1407,0.1061,0.1094,0.119,0.1178,0.1312,0.1338,0.134,0.4941,0.6627,0.0,0.0,0.0,0.0,0.0,0.0,0.0,0.0,0.0,0.0,0.0,1.1055,1.1655,0.0,1.3017,1.3539,1.3939,1.4211,1.4292,1.4299,1.4326,1.4394,1.4468,1.457,1.4726,1.4882,1.5004,1.5072,1.514,1.5181,1.5181,1.5181,1.5181,1.5181,1.4972,1.4878,1.4805,1.4594,1.4437,1.4153,1.4222,1.4106,1.3975,1.3686,1.359,1.359,1.3243,1.3124,1.3118,1.2763,1.2511,1.2267,1.2739,1.2887,1.2829,1.2829,1.2562,1.208,1.1053,1.0524,1.0067,0.901,0.8603,0.8558,0.8599,0.7963,0.7156,0.7156,0.6442,0.5728,0.5728,0.5013,0.4297,0.4297,0.3582,0.2867,0.2867,0.2867,0.2867,0.2867,0.2867,0.2867,0.2867,0.2765,0.31,0.403,0.3309,0.2676,0.2717,0.195,0.1777,0.2858,0.2184,0.1677,0.1668,0.1658,0.1316,0.0326,0.0491,0.0494,0.0248,0.0254,0.0171,0.0,0.0,0.0,0.0,0.0,0.0,0.0092,0.2397,0.3509,0.0,0.0,0.0,0.0,0.0,0.0,0.0,1.012,1.048,1.1111,1.1742,1.2338,1.2854,1.3268,1.3661,1.4055,1.4217,1.4299,1.4299,1.4299,1.4353,1.4496,1.4536,1.4652,1.4903,1.4977,1.5059,1.5174,1.5181,1.5194,1.5221,1.5134,1.5147,1.508,1.4717,1.4419,1.4279,1.4013,1.3877,1.3782,1.3806,1.3795,1.3727,1.3337,1.3143,1.3143,1.2737,1.252,1.2493,1.2005,1.1704,1.16,1.1217,1.1028,1.1028,1.1411,1.1256,1.0609,0.8918,0.8304,0.7948,0.6312,0.5738,0.5716,0.5654,0.546,0.5191,0.5191,0.4923,0.4566,0.4566,0.3494,0.2331,0.2331,0.1166,0.0,0.0,0.0,0.0,0.0,0.0,0.0,0.0,0.0,0.0536,0.2121,0.0971,0.0,0.0,0.0,0.0,0.0,0.0,0.0,0.0,0.0,0.0,0.0,0.0,0.0,0.0,0.0,0.0,0.0,0.0,0.0,0.0,0.0,0.0,0.0,0.0,0.0,0.9079,0.9028,0.9562,1.0317,1.0337,1.0602,0.0,1.2359,1.2223,1.2949,1.3275,1.3485,1.3682,1.3871,1.4055,1.4245,1.4292,1.4299,1.4299,1.4299,1.4353,1.4496,1.4631,1.4726,1.476,1.5004,1.5167,1.5181,1.5181,1.5242,1.5377,1.4908,1.468,1.4803,1.4339,1.3987,1.3948,1.3961,1.3686,1.322,1.3324,1.3154,1.288,1.2782,1.2782,1.2776,1.258,1.2477,1.2277,1.0422,0.959,0.9311,0.7507,0.6749,0.7033,0.8743,0.8262,0.6737,0.6453,0.6318,0.6165,0.5918,0.577,0.5716,0.5654,0.4566,0.3225,0.3225,0.1972,0.0628,0.0628,0.0449,0.0359,0.0359,0.018,0.0,0.0,0.0,0.0,0.0,0.0,0.0,0.0,0.0,0.0089,0.0265,0.0177,0.0,0.0,0.0,0.0,0.0,0.0,0.0,0.0,0.0,0.0,0.0,0.0,0.0,0.0,0.0,0.0,0.0,0.0,0.0,0.0,0.0,0.0,0.0,0.0,0.0,1.0177,1.0385,1.0704,1.1341,1.1674,1.2054,1.2861,1.299,1.3071,1.3559,1.3851,1.4034,1.4095,1.4163,1.4224,1.4292,1.4299,1.4299,1.4299,1.4299,1.4292,1.4258,1.4462,1.4679,1.4855,1.4984,1.5092,1.5174,1.4979,1.4862,1.4928,1.4451,1.4226,1.4364,1.3885,1.3529,1.3405,1.3262,1.3006,1.275,1.2867,1.2891,1.2814,1.2814,1.2814,1.2703,1.1392,1.0797,1.0505,0.8414,0.7479,0.7318,0.6464,0.5325,0.4565,0.6559,0.6844,0.5895,0.4755,0.4253,0.4028,0.2875,0.2387,0.2363,0.2427,0.1793,0.1256,0.1256,0.0628,0.0,0.0,0.0,0.0,0.0,0.0,0.0,0.0,0.0,0.0,0.0,0.0,0.0,0.0,0.0,0.0,0.0,0.0,0.0,0.0,0.0,0.0,0.0,0.0,0.0,0.0,0.0,0.0,0.0,0.0,0.0,0.0,0.0,0.0,0.0,0.0,0.0,0.0,0.0,0.0,0.0,0.0,0.0,1.0873,1.1274,1.164,1.2176,1.2732,1.3166,1.3247,1.3464,1.3709,1.3926,1.4143,1.4285,1.4245,1.4272,1.4285,1.4245,1.4272,1.4299,1.4299,1.4265,1.4211,1.3968,1.4108,1.424,1.4448,1.4606,1.4778,1.4926,1.4562,1.4368,1.4444,1.3973,1.3765,1.3836,1.332,1.3069,1.2983,1.277,1.2618,1.2536,1.2651,1.277,1.289,1.2284,1.1678,1.1063,0.9492,0.8708,0.8412,0.6315,0.5387,0.523,0.466,0.3521,0.2381,0.3902,0.4377,0.4187,0.2666,0.2176,0.1968,0.0464,0.0,0.0,0.0,0.0,0.0,0.0,0.0,0.0,0.0,0.0,0.0,0.0,0.0,0.0,0.0,0.0,0.0,0.0,0.0,0.0,0.0,0.0,0.0,0.0,0.0,0.0,0.0,0.0,0.0,0.0,0.0,0.0,0.0,0.0,0.0,0.0,0.0,0.0,0.0,0.0,0.0,0.0,0.0,0.0,0.0,0.0,0.0,0.0,0.0,0.0,1.0765,1.126,1.1999,1.2745,1.3275,1.3682,1.3973,1.4156,1.4278,1.4285,1.4292,1.4251,1.4109,1.4197,1.4251,1.4102,1.4204,1.4299,1.4299,1.417,1.3954,1.3653,1.3556,1.3324,1.3161,1.3666,1.4074,1.4216,1.3771,1.3602,1.3955,1.3405,1.3234,1.3482,1.2889,1.2531,1.2531,1.2536,1.2536,1.2536,1.2651,1.277,1.2784,1.0767,0.8654,0.6643,0.6539,0.6473,0.6264,0.4113,0.3195,0.2855,0.0954,0.0191,0.0095,0.0191,0.0191,0.0191,0.0095,0.0095,0.0094,0.0,0.0,0.0,0.0,0.0,0.0,0.0,0.0,0.0,0.0,0.0,0.0,0.0,0.0,0.0,0.0,0.0,0.0,0.0,0.0,0.0,0.0,0.0,0.0,0.0,0.0,0.0,0.0,0.0,0.0,0.0,0.0,0.0,0.0,0.0,0.0,0.0,0.0,0.0,0.0,0.0,0.0,0.0,0.0,0.0,0.0,0.0,0.0,0.0,0.0,0.0,1.1491,1.2088,1.2712,1.3268,1.3668,1.3973,1.4177,1.4265,1.4272,1.417,1.3994,1.381,1.3654,1.3668,1.3722,1.377,1.3987,1.4096,1.3843,1.381,1.3588,1.3098,1.3048,1.2984,1.2808,1.3195,1.3515,1.374,1.3373,1.3222,1.3393,1.291,1.2742,1.2995,1.2694,1.2574,1.2645,1.2651,1.2651,1.2651,1.1367,0.9932,0.8554,0.7848,0.7145,0.6338,0.4902,0.4277,0.4052,0.1952,0.1064,0.0962,0.0287,0.0,0.0,0.0,0.0,0.0,0.0,0.0,0.0,0.0,0.0,0.0,0.0,0.0,0.0,0.0,0.0,0.0,0.0,0.0,0.0,0.0,0.0,0.0,0.0,0.0,0.0,0.0,0.0,0.0,0.0,0.0,0.0,0.0,0.0,0.0,0.0,0.0,0.0,0.0,0.0,0.0,0.0,0.0,0.0,0.0,0.0,0.0,0.0,0.0,0.0,0.0,0.0,0.0,0.0,0.0,0.0,0.0,0.0,0.0,1.2182,1.2705,1.3173,1.3729,1.4014,1.4177,1.4278,1.4217,1.4075,1.3871,1.3593,1.3308,1.3051,1.3044,1.3166,1.3424,1.3675,1.3767,1.3634,1.3545,1.3318,1.2571,1.2555,1.2509,1.229,1.2443,1.2715,1.3112,1.2783,1.265,1.2825,1.2621,1.2542,1.27,1.2553,1.2547,1.2705,1.187,1.1097,1.0469,0.9128,0.7346,0.5235,0.5235,0.4833,0.4028,0.2706,0.2095,0.1987,0.059,0.0,0.0,0.0,0.0,0.0,0.0,0.0,0.0,0.0,0.0,0.0,0.0,0.0,0.0,0.0,0.0,0.0,0.0,0.0,0.0,0.0,0.0,0.0,0.0,0.0,0.0,0.0,0.0,0.0,0.0,0.0,0.0,0.0,0.0,0.0,0.0,0.0,0.0,0.0,0.0,0.0,0.0,0.0,0.0,0.0,0.0,0.0,0.0,0.0,0.0,0.0,0.0,0.0,0.0,0.0,0.0,0.0,0.0,0.0,0.0,0.0,0.0,1.2786,1.3105,1.3403,1.4122,1.4299,1.4299,1.4278,1.4041,1.3729,1.3417,1.3112,1.2752,1.2305,1.2366,1.2623,1.3057,1.3295,1.3459,1.3507,1.3387,1.3092,1.2248,1.2094,1.1967,1.1634,1.165,1.1881,1.2449,1.2194,1.2085,1.2426,1.2447,1.246,1.2492,1.238,1.2278,1.2414,1.0232,0.8201,0.6235,0.6235,0.5132,0.3023,0.3024,0.1917,0.0,0.0,0.0,0.0,0.0,0.0,0.0,0.0,0.0,0.0,0.0,0.0,0.0,0.0,0.0,0.0,0.0,0.0,0.0,0.0,0.0,0.0,0.0,0.0,0.0,0.0,0.0,0.0,0.0,0.0,0.0,0.0,0.0,0.0,0.0,0.0,0.0,0.0,0.0,0.0,0.0,0.0,0.0,0.0,0.0,0.0,0.0,0.0,0.0,0.0,0.0,0.0,0.0,0.0,0.0,0.0,0.0,0.0,0.0,0.0,0.0,0.0,0.0,0.0,0.0,0.0,0.0,1.318,1.3641,1.4061,1.4251,1.4299,1.4238,1.4007,1.3729,1.3363,1.284,1.2318,1.1823,1.1375,1.1775,1.2175,1.2011,1.2703,1.3,1.265,1.258,1.2359,1.1855,1.1853,1.1828,1.177,1.1851,1.2004,1.2124,1.1987,1.1966,1.2205,1.2303,1.1742,1.021,1.0166,0.9444,0.8018,0.7454,0.6052,0.3989,0.3989,0.2894,0.0799,0.0805,0.0505,0.0,0.0,0.0,0.0,0.0,0.0,0.0,0.0,0.0,0.0,0.0,0.0,0.0,0.0,0.0,0.0,0.0,0.0,0.0,0.0,0.0,0.0,0.0,0.0,0.0,0.0,0.0,0.0,0.0,0.0,0.0,0.0,0.0,0.0,0.0,0.0,0.0,0.0,0.0,0.0,0.0,0.0,0.0,0.0,0.0,0.0,0.0,0.0,0.0,0.0,0.0,0.0,0.0,0.0,0.0,0.0,0.0,0.0,0.0,0.0,0.0,0.0,0.0,0.0,0.0,0.0,0.0,1.36,1.3994,1.4299,1.4299,1.4197,1.3987,1.3553,1.3125,1.2589,1.1782,1.1307,1.0873,1.0358,1.0792,1.1227,1.1273,1.194,1.2355,1.2109,1.224,1.1815,1.0449,1.0403,1.0217,0.9292,0.9241,0.9381,0.942,1.0128,1.0732,1.0901,1.0194,0.9205,0.8022,0.8026,0.6985,0.4972,0.497,0.3967,0.1779,0.1779,0.1187,0.0,0.0,0.0,0.0,0.0,0.0,0.0,0.0,0.0,0.0,0.0,0.0,0.0,0.0,0.0,0.0,0.0,0.0,0.0,0.0,0.0,0.0,0.0,0.0,0.0,0.0,0.0,0.0,0.0,0.0,0.0,0.0,0.0,0.0,0.0,0.0,0.0,0.0,-0.018,-0.0269,-0.0269,-0.0449,-0.0628,-0.0628,-0.0628,-0.0628,-0.0628,-0.0269,0.0,0.0,0.0,0.0,0.0,0.0,0.0,0.0,0.0,0.0,0.0,0.0,0.0,0.0,0.0,0.0,0.0,0.0,0.0,0.0,0.0,0.0,1.3994,1.4197,1.4292,1.4278,1.4027,1.362,1.301,1.2372,1.1626,1.0609,1.0256,0.9964,0.9363,0.9679,1.0194,1.063,1.1192,1.1476,1.153,1.1654,1.0906,0.8557,0.8431,0.7881,0.6105,0.5917,0.5936,0.6079,0.7423,0.85,0.8853,0.723,0.6202,0.5971,0.5595,0.4522,0.2656,0.2676,0.1881,0.0,0.0,0.0,-0.0098,-0.0099,-0.0099,-0.0196,-0.0198,-0.0198,-0.0196,-0.0196,-0.0195,-0.0193,-0.0193,-0.0192,-0.0191,-0.0191,-0.0191,-0.0191,-0.0191,-0.0191,-0.019,0.0,0.0,0.0,0.0,0.0,0.0,0.0,0.0,0.0,-0.009,-0.009,-0.009,-0.018,-0.018,-0.018,-0.018,-0.018,-0.018,-0.018,-0.0539,-0.0808,-0.0808,-0.1167,-0.1436,-0.1436,-0.1436,-0.1436,-0.1436,-0.0718,-0.018,-0.018,-0.018,-0.018,-0.018,-0.018,-0.0181,-0.0091,-0.0091,-0.0092,0.0,-0.028,-0.0376,-0.0376,-0.0664,-0.0763,-0.0763,-0.0572,-0.0382,-0.0382,-0.0095,0.0,1.4204,1.4278,1.4272,1.4143,1.379,1.3288,1.2569,1.1748,1.0914,1.01,0.9625,0.9222,0.8769,0.9318,0.9861,0.9842,1.0521,1.0552,0.9248,0.9143,0.8569,0.6623,0.6465,0.6447,0.6068,0.6068,0.6074,0.6082,0.4791,0.48,0.6577,0.6339,0.5331,0.3624,0.1991,0.0904,0.0502,0.0499,0.0396,0.0,0.0,-0.0195,-0.0679,-0.0686,-0.0885,-0.1276,-0.1268,-0.1263,-0.126,-0.125,-0.1245,-0.1243,-0.1243,-0.1241,-0.124,-0.124,-0.124,-0.124,-0.124,-0.124,-0.1141,-0.028,0.0,0.0,0.0,0.0,0.0,0.0,0.0,-0.009,-0.0449,-0.0539,-0.0718,-0.1077,-0.1167,-0.1167,-0.1167,-0.1167,-0.1167,-0.1167,-0.1257,-0.1257,-0.1257,-0.1347,-0.1436,-0.1436,-0.1436,-0.1436,-0.1436,-0.1257,-0.1167,-0.1167,-0.1167,-0.1172,-0.1272,-0.1274,-0.1096,-0.0646,-0.0647,-0.0462,0.0,-0.1588,-0.244,-0.244,-0.4166,-0.504,-0.504,-0.3331,-0.2476,-0.2476,-0.0763,0.0,1.4258,1.4299,1.4265,1.4109,1.362,1.2915,1.1925,1.107,1.0139,0.904,0.8734,0.8466,0.7927,0.8399,0.8961,0.903,0.9024,0.877,0.8164,0.7547,0.6497,0.46,0.4418,0.409,0.3047,0.2952,0.2952,0.2952,0.2028,0.2326,0.441,0.3484,0.2444,0.1482,0.0499,0.0,0.0,0.0,-0.0099,-0.0393,-0.0389,-0.0677,-0.1258,-0.1167,-0.1263,-0.1548,-0.1548,-0.1543,-0.1536,-0.1528,-0.1526,-0.1526,-0.1526,-0.1526,-0.1526,-0.1526,-0.1526,-0.1526,-0.1526,-0.1526,-0.1427,-0.0937,-0.0746,-0.0743,-0.082,-0.0815,-0.0814,-0.0719,-0.0718,-0.0808,-0.0988,-0.1077,-0.1077,-0.1347,-0.1436,-0.1436,-0.1436,-0.1436,-0.1436,-0.1436,-0.1616,-0.1795,-0.1795,-0.1976,-0.2156,-0.2156,-0.2156,-0.2513,-0.3497,-0.3676,-0.3049,-0.1526,-0.2332,-0.2971,-0.3094,-0.4003,-0.4485,-0.4368,-0.4372,-0.4196,-0.3938,-0.4896,-0.5381,-0.5381,-0.6349,-0.6841,-0.6841,-0.5889,-0.5415,-0.5415,-0.4373,-0.4016,1.4211,1.4278,1.4245,1.4027,1.3417,1.2549,1.1341,1.0402,0.9413,0.8171,0.7917,0.7711,0.6962,0.7199,0.7557,0.7614,0.7093,0.6635,0.6644,0.5781,0.4515,0.248,0.2348,0.1711,0.0191,0.0,0.0,0.0,0.0,0.0687,0.2237,0.0882,0.0,0.0,0.0,-0.0099,-0.0199,-0.0197,-0.0393,-0.0982,-0.0965,-0.1249,-0.1742,-0.1738,-0.1729,-0.1813,-0.1826,-0.1825,-0.1812,-0.1812,-0.1812,-0.1812,-0.1812,-0.1812,-0.1812,-0.1812,-0.1812,-0.1812,-0.1812,-0.1812,-0.1809,-0.1889,-0.1693,-0.1498,-0.1468,-0.146,-0.1456,-0.1441,-0.1436,-0.1436,-0.1526,-0.1526,-0.1616,-0.1706,-0.1706,-0.1706,-0.1706,-0.1706,-0.1706,-0.1706,-0.2066,-0.2335,-0.2335,-0.2962,-0.35,-0.35,-0.3859,-0.4662,-0.6091,-0.6359,-0.5465,-0.3228,-0.4299,-0.5308,-0.5376,-0.6835,-0.7717,-0.7777,-0.7788,-0.7722,-0.7592,-0.7974,-0.8258,-0.8258,-0.8637,-0.892,-0.892,-0.8447,-0.8258,-0.8258,-0.7802,-0.766,1.4048,1.4197,1.4197,1.3777,1.3105,1.223,1.1036,0.9893,0.8876,0.806,0.7554,0.695,0.576,0.5693,0.5626,0.4954,0.4923,0.4533,0.3354,0.3069,0.2328,0.046,0.028,0.0189,0.0,0.0,0.0,0.0,0.0,0.0099,0.0298,0.0099,0.0,0.0,0.0,-0.0198,-0.0688,-0.0688,-0.0982,-0.1571,-0.1457,-0.174,-0.2225,-0.2205,-0.2481,-0.2957,-0.296,-0.296,0.0,-0.2957,-0.2957,-0.2957,-0.2957,-0.2957,-0.2957,-0.2957,-0.2957,-0.2957,-0.2957,-0.2957,-0.2956,-0.2953,-0.2272,-0.1498,-0.1468,-0.146,-0.1456,-0.1441,-0.1436,-0.1526,-0.1976,-0.2156,-0.2245,-0.2694,-0.2784,-0.2784,-0.2784,-0.2784,-0.2784,-0.2784,-0.2784,-0.2874,-0.2874,-0.4305,-0.5467,-0.5467,-0.6981,-0.8141,-0.8319,-0.8319,-0.823,-0.7963,-0.8141,-0.8297,-0.8366,-0.8652,-0.8636,-0.8334,-0.8345,-0.8065,-0.7595,-0.9397,-1.0347,-1.0347,-1.2156,-1.311,-1.311,-1.1207,-1.0347,-1.0257,-0.8622,-0.7831,1.3688,1.3912,1.3939,1.358,1.2929,1.1911,1.0046,0.8779,0.7545,0.5916,0.5253,0.4839,0.4217,0.4181,0.4253,0.4115,0.3432,0.2813,0.2415,0.1599,0.0801,0.0088,0.0,0.0,0.0,0.0,0.0,0.0,0.0,-0.0098,-0.0494,-0.0199,-0.0099,-0.0491,-0.0493,-0.069,-0.1178,-0.1269,-0.1464,-0.2061,-0.2029,-0.2309,-0.2806,-0.2779,-0.2862,-0.3148,-0.3148,-0.3148,0.0,-0.3148,-0.3148,-0.3148,-0.3148,-0.3148,-0.3148,-0.3148,-0.3148,-0.3148,-0.3148,-0.3148,-0.305,-0.3031,-0.2733,-0.2436,-0.2403,-0.2382,-0.2365,-0.2342,-0.2335,-0.2335,-0.2604,-0.2604,-0.2694,-0.2874,-0.2874,-0.2874,-0.2874,-0.2874,-0.2874,-0.2874,-0.3769,-0.4574,-0.4574,-0.618,-0.7427,-0.7427,-0.8141,-0.9032,-1.01,-1.0278,-1.0728,-1.1888,-1.0994,-1.0342,-1.0483,-1.1657,-1.242,-1.241,-1.2483,-1.2428,-1.214,-1.2904,-1.3381,-1.3381,-1.4146,-1.4623,-1.4623,-1.3758,-1.3423,-1.3501,-1.2684,-1.2519,1.3186,1.3498,1.3573,1.3275,1.2357,1.1097,0.9108,0.7612,0.6125,0.4266,0.3673,0.3321,0.2821,0.2799,0.2833,0.2688,0.1882,0.1328,0.1447,0.0646,0.0,0.0,0.0,0.0,0.0,-0.019,-0.0192,-0.0193,-0.0387,-0.0583,-0.0973,-0.0688,-0.0591,-0.0978,-0.0977,-0.1269,-0.1752,-0.174,-0.2034,-0.2542,-0.25,-0.278,-0.3096,-0.3066,-0.3148,-0.3148,-0.3148,-0.3148,0.0,-0.3148,-0.3148,-0.3148,-0.3148,-0.3148,-0.3148,-0.3148,-0.3148,-0.3148,-0.3148,-0.3046,-0.3035,-0.3014,-0.2995,-0.2976,-0.2954,-0.2932,-0.2911,-0.2882,-0.2874,-0.2874,-0.2874,-0.2874,-0.2874,-0.2874,-0.3321,-0.3769,-0.3769,-0.4216,-0.4574,-0.4574,-0.5644,-0.6538,-0.6538,-0.8141,-0.9388,-0.9388,-0.9922,-1.0728,-1.2065,-1.2243,-1.2781,-1.4122,-1.3046,-1.2295,-1.2507,-1.3829,-1.4808,-1.4964,-1.5106,-1.5181,-1.5181,-1.5181,-1.5181,-1.5181,-1.5181,-1.5181,-1.5181,-1.5228,-1.5303,-1.5411,-1.5499,-1.5676,1.2535,1.2956,1.3112,1.2813,1.1283,0.9578,0.8322,0.6359,0.4592,0.3792,0.3371,0.2871,0.1814,0.1614,0.1285,0.0217,0.0,0.0,0.0,0.0,0.0,0.0,0.0,0.0,0.0,-0.047,-0.0771,-0.0764,-0.1262,-0.146,-0.1528,-0.1444,-0.1452,-0.1451,-0.1451,-0.1734,-0.2289,-0.2289,-0.2588,-0.3097,-0.3067,-0.3069,-0.3096,-0.3066,-0.3148,-0.3148,-0.3148,-0.3148,0.0,-0.3148,-0.3148,-0.3148,-0.3148,-0.3148,-0.3148,-0.3148,-0.3148,-0.3148,-0.3148,-0.3032,-0.3007,-0.3006,-0.2966,-0.2917,-0.2916,-0.2916,-0.2911,-0.2882,-0.2874,-0.2874,-0.2874,-0.2874,-0.2874,-0.2874,-0.4305,-0.5644,-0.5644,-0.716,-0.8498,-0.8498,-0.8587,-0.8587,-0.8587,-1.01,-1.1349,-1.1349,-1.3046,-1.421,-1.4299,-1.4299,-1.4299,-1.4299,-1.4299,-1.436,-1.4496,-1.4652,-1.4808,-1.4964,-1.5106,-1.5181,-1.5181,-1.5181,-1.5181,-1.5181,-1.5181,-1.5181,-1.5181,-1.5337,-1.5411,-1.5418,-1.571,-1.5934,1.1111,1.1491,1.1701,1.1301,0.9881,0.8165,0.663,0.4782,0.2983,0.1691,0.1211,0.0908,0.0555,0.0505,0.0418,0.0058,0.0,0.0,0.0,0.0,0.0,0.0,-0.0351,-0.0554,-0.0561,-0.0949,-0.1244,-0.124,-0.1439,-0.1632,-0.2003,-0.2009,-0.2012,-0.2012,-0.2012,-0.2296,-0.2862,-0.2862,-0.2961,-0.3066,-0.3056,-0.3056,-0.3066,-0.3056,-0.3148,-0.3148,-0.3148,-0.3148,-0.3148,-0.3148,-0.3148,-0.3148,-0.3148,-0.3148,-0.3148,-0.3148,-0.3148,-0.3148,-0.3148,-0.3046,-0.3031,-0.299,-0.2962,-0.3215,-0.4433,-0.3876,-0.3155,-0.4489,-0.5733,-0.6806,-0.6806,-0.6806,-0.6806,-0.6806,-0.7249,-0.7695,-0.7695,-0.8141,-0.8587,-0.8587,-0.9655,-1.0545,-1.0545,-1.2154,-1.3401,-1.3401,-1.3938,-1.4299,-1.4299,-1.4299,-1.4299,-1.4299,-1.4299,-1.4319,-1.4367,-1.4502,-1.4652,-1.4801,-1.4957,-1.5079,-1.5181,-1.5181,-1.5181,-1.5181,-1.5181,-1.5181,-1.5181,-1.5337,-1.5513,-1.5716,-1.5913,-1.6035,1.0093,1.0156,1.0075,0.9678,0.8007,0.6162,0.484,0.3124,0.1569,0.046,0.0101,0.0,0.0,0.0,0.0,0.0,0.0,0.0,0.0,0.0,-0.0077,-0.0245,-0.0622,-0.0841,-0.1031,-0.1515,-0.1812,-0.1812,-0.2002,-0.2288,-0.2574,-0.2574,-0.2574,-0.2574,-0.2574,-0.2766,-0.3052,-0.3148,-0.3148,-0.3148,-0.3148,-0.3148,-0.3148,-0.3148,-0.3148,-0.3148,-0.3148,-0.3148,0.0,-0.3148,-0.3148,-0.3148,-0.3148,-0.3046,-0.3036,-0.3048,-0.3044,-0.3037,-0.3048,-0.3615,-0.4159,-0.4089,-0.4506,-0.5285,-0.6473,-0.6001,-0.5288,-0.6448,-0.7695,-0.8587,-0.8587,-0.8587,-0.8587,-0.8587,-0.9121,-0.9655,-0.9655,-1.0194,-1.0728,-1.0728,-1.1705,-1.2509,-1.2509,-1.3496,-1.4299,-1.4299,-1.4299,-1.4299,-1.4299,-1.4299,-1.4299,-1.4299,-1.4299,-1.4319,-1.4373,-1.4462,-1.4577,-1.4726,-1.4889,-1.5031,-1.5174,-1.5181,-1.5181,-1.5181,-1.5181,-1.5181,-1.5181,-1.5398,-1.5649,-1.594,-1.6035,-1.6083,0.0,0.8866,0.8172,0.7854,0.5814,0.3699,0.2975,0.163,0.0,0.0051,0.0,0.0,0.0,0.0,0.0,0.0,0.0,0.0,0.0,0.0,-0.023,-0.0755,-0.088,-0.1086,-0.1554,-0.2064,-0.2384,-0.2384,-0.2862,-0.3148,-0.3148,-0.3148,-0.3148,-0.3148,-0.3148,-0.3148,-0.3148,-0.3148,-0.3148,-0.3148,-0.3148,-0.3148,-0.3148,-0.3148,-0.3148,-0.3148,-0.3148,-0.3148,-0.3148,-0.3148,-0.3051,-0.305,-0.305,-0.3031,-0.3007,-0.3036,-0.3028,-0.3007,-0.3226,-0.444,-0.5984,-0.6013,-0.7275,-0.8765,-0.8765,-0.8765,-0.8765,-0.8765,-0.8854,-0.9032,-0.9032,-0.9032,-0.9032,-0.9032,-1.0367,-1.1616,-1.1616,-1.3046,-1.4299,-1.4299,-1.4299,-1.4299,-1.4299,-1.4299,-1.4299,-1.4299,-1.4299,-1.4299,-1.4299,-1.4299,-1.4299,-1.4299,-1.4299,-1.4353,-1.4482,-1.4509,-1.4584,-1.4746,-1.4889,-1.5031,-1.5174,-1.5181,-1.5181,-1.5181,-1.5181,-1.5194,-1.5215,-1.5499,-1.5791,-1.6083,-1.6083,-1.6083,0.5807,0.0,0.6526,0.5496,0.3825,0.2412,0.0,0.1143,0.0104,0.0,0.0,0.0,0.0,0.0,0.0,0.0,0.0,0.0,0.0,-0.0389,-0.0677,-0.081,-0.1483,-0.1976,-0.2076,-0.2564,-0.2957,-0.2957,-0.3052,-0.3148,-0.3148,-0.3148,-0.3148,-0.3148,-0.3148,-0.3148,-0.3148,-0.3148,-0.3148,-0.3148,-0.3148,-0.3148,-0.3148,-0.3148,-0.3148,-0.3148,-0.3148,-0.3148,-0.3148,-0.3148,-0.3039,-0.3017,-0.3017,-0.2999,-0.2973,-0.298,-0.2979,-0.325,-0.4649,-0.5479,-0.6103,-0.7499,-0.9212,-1.0728,-1.0728,-1.0728,-1.0728,-1.0728,-1.1799,-1.2958,-1.2958,-1.2958,-1.2958,-1.2958,-1.3312,-1.3584,-1.3584,-1.3945,-1.4299,-1.4299,-1.4299,-1.4299,-1.4299,-1.4299,-1.4299,-1.4299,-1.4299,-1.4299,-1.4299,-1.4299,-1.4299,-1.4299,-1.4299,-1.4312,-1.4346,-1.4448,-1.4631,-1.4903,-1.495,-1.5031,-1.5174,-1.5181,-1.5181,-1.5181,-1.5181,-1.5296,-1.5533,-1.5601,-1.5791,-1.6083,-1.6083,-1.6083,0.4104,0.4201,0.4475,0.3516,0.227,0.1257,0.11,0.0518,0.0,0.0,0.0,0.0,0.0,0.0,0.0,0.0,0.0,-0.0068,-0.0303,-0.0576,-0.0966,-0.1381,-0.1876,-0.2372,-0.2669,-0.2957,-0.3148,-0.3148,-0.3148,-0.3148,-0.3148,-0.3148,-0.3148,-0.3148,-0.3148,-0.3148,-0.3148,-0.3148,-0.3148,-0.3148,-0.3148,-0.3148,-0.3148,-0.3148,-0.3148,-0.3148,-0.3148,-0.3044,-0.3031,-0.3031,-0.3013,-0.2986,-0.2986,-0.2968,-0.3034,-0.3969,-0.424,-0.4591,-0.6448,-0.772,-0.8779,-1.072,-1.1984,-1.2692,-1.2692,-1.2692,-1.2692,-1.2692,-1.3496,-1.4299,-1.4299,-1.4299,-1.4299,-1.4299,-1.4299,-1.4299,-1.4299,-1.4299,-1.4299,-1.4299,-1.4299,-1.4299,-1.4299,-1.4299,-1.4299,-1.4299,-1.4299,-1.4299,-1.4299,-1.4299,-1.4299,-1.4299,-1.4299,-1.4326,-1.4394,-1.4468,-1.4611,-1.4848,-1.4862,-1.4957,-1.5174,-1.5181,-1.5181,-1.5181,-1.5181,-1.5296,-1.5533,-1.5608,-1.5757,-1.5981,-1.6049,-1.6083,0.3032,0.2522,0.235,0.1891,0.1069,0.0272,0.0054,0.0,0.0,0.0,0.0,0.0,0.0,0.0,0.0,0.0,-0.0066,-0.0214,-0.0647,-0.0851,-0.1238,-0.2114,-0.2236,-0.2541,-0.3043,-0.3046,-0.3047,-0.3052,-0.3148,-0.3148,-0.3148,-0.3148,-0.3148,-0.3148,-0.3148,-0.3148,-0.3148,-0.3148,-0.3148,-0.3148,-0.3148,-0.3148,-0.3148,-0.3047,-0.3046,-0.3044,-0.304,0.0,-0.2999,-0.2999,-0.2981,-0.3046,-0.3323,-0.3393,-0.3547,-0.5498,-0.6212,-0.6537,-0.8418,-1.0393,-1.2214,-1.3938,-1.4401,-1.4299,-1.4299,-1.4299,-1.4299,-1.4299,-1.4299,-1.4299,-1.4299,-1.4299,-1.4299,-1.4299,-1.4299,-1.4299,-1.4299,-1.4299,-1.4299,-1.4299,-1.4299,-1.4299,-1.4299,-1.4299,-1.4299,-1.4299,-1.4299,-1.4299,-1.4299,-1.4299,-1.4299,-1.4299,-1.4299,-1.4346,-1.4468,-1.4482,-1.4543,-1.4699,-1.4746,-1.4896,-1.5174,-1.5181,-1.5181,-1.5181,-1.5181,-1.5255,-1.5411,-1.556,-1.571,-1.5859,-1.6008,-1.6083,0.1426,0.1039,0.0981,0.0945,0.0459,0.0053,0.0,0.0,0.0,0.0,0.0,0.0,0.0,0.0,0.0,0.0,-0.0298,-0.0638,-0.0682,-0.1396,-0.2046,-0.2188,-0.2581,-0.2887,-0.301,-0.3014,-0.3025,-0.305,-0.3148,-0.3148,-0.3148,-0.3148,-0.3148,-0.3148,-0.3148,-0.3148,-0.3148,-0.3148,-0.3148,-0.3148,-0.3148,-0.3148,-0.3051,-0.3025,-0.3014,-0.3013,0.0,-0.2972,-0.2968,-0.2968,-0.295,-0.3105,-0.4741,-0.5346,-0.548,-0.7459,-0.8172,-0.8429,-1.0322,-1.2289,-1.3883,-1.4244,-1.4319,-1.4299,-1.4299,-1.4299,-1.4299,-1.4299,-1.4299,-1.4299,-1.4299,-1.4299,-1.4299,-1.4299,-1.4299,-1.4299,-1.4299,-1.4299,-1.4299,-1.4299,-1.4299,-1.4299,-1.4299,-1.4299,-1.4299,-1.4299,-1.4299,-1.4299,-1.4299,-1.4299,-1.4299,-1.4299,-1.4299,-1.4306,-1.4333,-1.4333,-1.4394,-1.4536,-1.4787,-1.5011,-1.5174,-1.5181,-1.5181,-1.5181,-1.5181,-1.5255,-1.5411,-1.556,-1.571,-1.5859,-1.6008,-1.6083,0.1185,0.0699,0.0532,0.0557,0.0272,0.0,0.0,0.0,0.0,0.0,0.0,0.0,0.0,0.0,-0.0066,-0.037,-0.0796,-0.1175,-0.1472,-0.1931,-0.2316,-0.2547,-0.2837,-0.2949,-0.2979,-0.2983,-0.2988,-0.3002,-0.3003,-0.3003,-0.3003,-0.3003,-0.3003,-0.3003,-0.3003,-0.3003,-0.3003,-0.3003,-0.3011,-0.3028,-0.3011,-0.3003,-0.3002,-0.2988,-0.2983,-0.2981,0.0,-0.2951,-0.3028,-0.4125,-0.4464,-0.4605,-0.6581,-0.728,-0.7517,-0.9388,-1.0816,-1.1799,-1.2692,-1.3584,-1.4299,-1.4299,-1.4299,-1.4299,-1.4299,-1.4299,-1.4299,-1.4299,-1.4299,-1.4299,-1.4299,-1.4299,-1.4299,-1.4299,-1.4299,-1.4299,-1.4299,-1.4299,-1.4299,-1.4299,-1.4299,-1.4299,-1.4299,-1.4299,-1.4299,-1.4299,-1.4299,-1.4299,-1.4299,-1.4299,-1.4299,-1.4299,-1.4299,-1.4299,-1.4299,-1.4299,-1.4394,-1.4618,-1.4848,-1.5031,-1.5174,-1.5181,-1.5181,-1.5181,-1.5181,-1.5215,-1.5289,-1.5527,-1.5676,-1.5744,-1.5974,-1.6083,0.1069,0.0626,0.0363,0.0318,0.0172,0.0,0.0,0.0,0.0,0.0,0.0,0.0,0.0,-0.0067,-0.0285,-0.0627,-0.1166,-0.1731,-0.21,-0.2294,-0.2499,-0.2901,-0.2906,-0.2917,-0.2947,-0.2951,-0.2954,-0.2961,-0.2961,-0.2961,-0.2961,-0.2961,-0.2961,-0.2961,-0.2961,-0.2961,-0.2961,-0.2954,-0.2966,-0.2996,-0.2972,-0.2961,-0.2961,-0.2954,-0.2951,-0.295,-0.2943,-0.3201,-0.3629,-0.5165,-0.6041,-0.6538,-0.8498,-0.9566,-1.01,-1.1527,-1.3046,-1.4299,-1.4299,-1.4299,-1.4299,-1.4299,-1.4299,-1.4299,-1.4299,-1.4299,-1.4299,-1.4299,-1.4299,-1.4299,-1.4299,-1.4299,-1.4299,-1.4299,-1.4299,-1.4299,-1.4299,-1.4299,-1.4299,-1.4299,-1.4299,-1.4299,-1.4299,-1.4299,-1.4299,-1.4299,-1.4299,-1.4299,-1.4299,-1.4299,-1.4299,-1.4299,-1.4299,-1.4299,-1.4299,-1.4299,-1.4414,-1.4672,-1.4869,-1.5031,-1.5174,-1.5181,-1.5181,-1.5181,-1.5181,-1.5181,-1.5181,-1.5452,-1.5601,-1.5649,-1.5906,-1.6049,0.0475,0.0397,0.0362,0.0112,0.0,0.0,0.0,0.0,0.0,0.0,0.0,0.0,0.0,-0.037,-0.063,-0.0656,-0.1457,-0.2124,-0.2147,-0.2601,-0.2872,-0.2876,-0.2876,-0.2887,-0.2916,-0.2919,-0.2931,-0.296,-0.2961,-0.2961,-0.2961,-0.2961,-0.2961,-0.2961,-0.2961,-0.2961,-0.2961,-0.2934,-0.2934,-0.2965,-0.2962,-0.2961,-0.296,-0.2932,-0.2919,-0.2917,-0.2891,-0.3865,-0.5473,-0.5649,-0.6809,-0.8587,-1.0461,-1.2331,-1.3938,-1.4033,-1.421,-1.4299,-1.4299,-1.4299,-1.4299,-1.4299,-1.4299,-1.4299,-1.4299,-1.4299,-1.4299,-1.4299,-1.4299,-1.4299,-1.4299,-1.4299,-1.4299,-1.4299,-1.4299,-1.4299,-1.4299,-1.4299,-1.4299,-1.4299,-1.4299,-1.4299,-1.4299,-1.4299,-1.4299,-1.4299,-1.4299,-1.4299,-1.4299,-1.4299,-1.4299,-1.4299,-1.4299,-1.4299,-1.4299,-1.4299,-1.4367,-1.4516,-1.4808,-1.5031,-1.5174,-1.5181,-1.5181,-1.5181,-1.5181,-1.5181,-1.5181,-1.535,-1.5499,-1.5642,-1.5798,-1.5947,0.0353,0.024,0.0104,0.0,0.0,0.0,0.0,0.0,0.0,0.0,0.0,-0.0074,-0.0294,-0.1005,-0.1536,-0.1485,-0.2061,-0.2572,-0.2601,-0.2784,-0.2874,-0.2874,-0.2874,-0.2878,-0.2889,-0.289,-0.2894,-0.2906,-0.2908,-0.2908,-0.2908,-0.2908,-0.2908,-0.2908,-0.2908,-0.2908,-0.2908,-0.2896,-0.3616,-0.5072,-0.3631,-0.372,-0.5072,-0.5051,-0.594,-0.728,-0.7342,-0.751,-0.8044,-0.9202,-1.0091,-1.0984,-1.3211,-1.455,-1.5175,-1.5175,-1.5175,-1.5175,-1.5175,-1.5175,-1.5175,-1.5175,-1.5175,-1.5175,-1.5175,-1.5175,-1.5175,-1.5175,-1.5175,-1.5006,-1.4476,-1.4299,-1.4299,-1.4299,-1.4299,-1.4299,-1.4299,-1.4299,-1.4299,-1.4299,-1.4299,-1.4299,-1.4299,-1.4299,-1.4299,-1.4299,-1.4299,-1.4299,-1.4299,-1.4299,-1.4299,-1.4299,-1.4299,-1.4299,-1.4299,-1.4299,-1.436,-1.4502,-1.4713,-1.4896,-1.5045,-1.5133,-1.5181,-1.5181,-1.5181,-1.5181,-1.5181,-1.5337,-1.5438,-1.5499,-1.5649,-1.5798,0.0218,0.0096,0.0,0.0,0.0,0.0,0.0,0.0,0.0,0.0,-0.0077,-0.0307,-0.077,-0.1504,-0.2035,-0.199,-0.2497,-0.284,-0.287,-0.2874,-0.2874,-0.2874,-0.2874,-0.2874,-0.2874,-0.2874,-0.2874,-0.2874,-0.2874,-0.2874,-0.2874,-0.2874,-0.3053,-0.3323,-0.3768,-0.4124,-0.4483,-0.4928,-0.5906,-0.7506,-0.5906,-0.5996,-0.7506,-0.7506,-0.8393,-0.9997,-0.9997,-1.0175,-1.053,-1.1776,-1.2668,-1.3382,-1.508,-1.5704,-1.5704,-1.5704,-1.5704,-1.5704,-1.5704,-1.5704,-1.5704,-1.5704,-1.5704,-1.5704,-1.5704,-1.5704,-1.5704,-1.5704,-1.5704,-1.5528,-1.4918,-1.4653,-1.4476,-1.4299,-1.4299,-1.4299,-1.4299,-1.4299,-1.4299,-1.4299,-1.4299,-1.4299,-1.4299,-1.4299,-1.4299,-1.4299,-1.4299,-1.4299,-1.4299,-1.4299,-1.4299,-1.4299,-1.4299,-1.4299,-1.4299,-1.4299,-1.434,-1.4441,-1.4584,-1.474,-1.4889,-1.5038,-1.5113,-1.5113,-1.516,-1.5181,-1.5181,-1.5289,-1.5364,-1.5411,-1.552,-1.5642,0.0095,0.0,0.0,0.0,0.0,0.0,0.0,0.0,0.0,0.0,-0.032,-0.0789,-0.1197,-0.168,-0.2023,-0.2092,-0.2509,-0.284,-0.287,-0.2874,-0.2874,-0.2874,-0.2874,-0.2874,-0.2874,-0.2874,-0.2874,-0.2874,-0.2874,-0.2874,-0.2964,-0.2964,-0.3412,-0.4307,-0.573,-0.6885,-0.7866,-0.9286,-0.9997,-0.9997,-0.9997,-0.9997,-0.9997,-0.9997,-1.0081,-1.0081,-1.0081,-1.1151,-1.2845,-1.2845,-1.4007,-1.5704,-1.5704,-1.5704,-1.5704,-1.5704,-1.5704,-1.5704,-1.5704,-1.5704,-1.5704,-1.5704,-1.5704,-1.5704,-1.5704,-1.5704,-1.5704,-1.5704,-1.5704,-1.5704,-1.5704,-1.5352,-1.4911,-1.4387,-1.4299,-1.4299,-1.4299,-1.4299,-1.4299,-1.4299,-1.4299,-1.4299,-1.4299,-1.4299,-1.4299,-1.4299,-1.4299,-1.4299,-1.4299,-1.4299,-1.4299,-1.4299,-1.4299,-1.4299,-1.4299,-1.4299,-1.4299,-1.4299,-1.4434,-1.4577,-1.4733,-1.4889,-1.497,-1.497,-1.5106,-1.5181,-1.5181,-1.5181,-1.5262,-1.5411,-1.5411,-1.5493,0.0,0.0,0.0,0.0,0.0,0.0,0.0,0.0,-0.0078,-0.0412,-0.1071,-0.1628,-0.1702,-0.2132,-0.2495,-0.252,-0.2682,-0.284,-0.287,-0.2874,-0.2874,-0.2874,-0.2874,-0.2874,-0.2874,-0.2874,-0.2874,-0.2874,-0.2874,-0.35,-0.4841,-0.5194,-0.6085,-0.7777,-0.8575,-0.9108,-0.9375,-0.9819,-1.0879,-1.2567,-1.2567,-1.2567,-1.2567,-1.2567,-1.3457,-1.497,-1.497,-1.5147,-1.533,-1.533,-1.569,-1.6225,-1.6585,-1.6673,-1.6673,-1.6673,-1.6673,-1.6673,-1.6673,-1.6673,-1.6673,-1.6673,-1.6673,-1.6673,-1.6673,-1.6673,-1.6673,-1.6673,-1.6673,-1.6585,-1.6313,-1.6049,-1.5873,-1.544,-1.5264,-1.5264,-1.5264,-1.5264,-1.5264,-1.5264,-1.5264,-1.5175,-1.4822,-1.4822,-1.4646,-1.4387,-1.4299,-1.4299,-1.4299,-1.4299,-1.4299,-1.4299,-1.4299,-1.4299,-1.4299,-1.4299,-1.4299,-1.4299,-1.434,-1.4428,-1.457,-1.4726,-1.4862,-1.497,-1.5011,-1.5079,-1.5181,-1.5181,-1.5208,-1.5248,-1.5248,-1.533,0.0,0.0,0.0,0.0,0.0,-0.0072,-0.0229,-0.0315,-0.0486,-0.1087,-0.1579,-0.1973,-0.2226,-0.2492,-0.2683,-0.2706,-0.2777,-0.2834,-0.2853,-0.2867,-0.2874,-0.2874,-0.2874,-0.2874,-0.2874,-0.359,-0.4126,-0.4303,-0.5017,-0.5999,-0.7335,-0.7684,-0.8575,-1.0091,-1.0973,-1.1594,-1.1948,-1.2567,-1.3545,-1.4963,-1.4963,-1.4963,-1.4963,-1.4963,-1.577,-1.7112,-1.7112,-1.6928,-1.6665,-1.6665,-1.6665,-1.6665,-1.7024,-1.7112,-1.7112,-1.7112,-1.7112,-1.7112,-1.7112,-1.7112,-1.7112,-1.7112,-1.7112,-1.7112,-1.7112,-1.7112,-1.7112,-1.7112,-1.7112,-1.7024,-1.6753,-1.6665,-1.6489,-1.5881,-1.5704,-1.5704,-1.5704,-1.5704,-1.5704,-1.5704,-1.5704,-1.5616,-1.5352,-1.5264,-1.5175,-1.4918,-1.4829,-1.4829,-1.4829,-1.4646,-1.4557,-1.4557,-1.4387,-1.4299,-1.4299,-1.4299,-1.4299,-1.4299,-1.4299,-1.434,-1.4421,-1.457,-1.4692,-1.4787,-1.4909,-1.5011,-1.5099,-1.5153,-1.5181,-1.5181,-1.5181,-1.5228,0.0,0.0,0.0,0.0,0.0,-0.0221,-0.0719,-0.082,-0.0996,-0.1847,-0.1987,-0.2136,-0.2599,-0.2672,-0.259,-0.2729,-0.2787,-0.2825,-0.2825,-0.2848,-0.2955,-0.3134,-0.3134,-0.3224,-0.3406,-0.5013,-0.6171,-0.6614,-0.8308,-0.9642,-1.0263,-1.0259,-1.0796,-1.1782,-1.3192,-1.4346,-1.5154,-1.6489,-1.7112,-1.7112,-1.7112,-1.7112,-1.7112,-1.7112,-1.7112,-1.7112,-1.7112,-1.7112,-1.7112,-1.7112,-1.7112,-1.7112,-1.7112,-1.7112,-1.7112,-1.7112,-1.7112,-1.7112,-1.7112,-1.7112,-1.7112,-1.7112,-1.7112,-1.7112,-1.7112,-1.7112,-1.7112,-1.7112,-1.7112,-1.7112,-1.7112,-1.7112,-1.6849,-1.6057,-1.5793,-1.5793,-1.5793,-1.5793,-1.5793,-1.5793,-1.5793,-1.5793,-1.5793,-1.5793,-1.5793,-1.5704,-1.5704,-1.5704,-1.5704,-1.5352,-1.508,-1.508,-1.4646,-1.4387,-1.4387,-1.4387,-1.4387,-1.4387,-1.4387,-1.4387,-1.4387,-1.4421,-1.4502,-1.4509,-1.4787,-1.4943,-1.497,-1.5099,-1.5167,-1.5181,-1.5181,-1.5181,0.0,0.0,0.0,0.0,-0.0218,-0.0698,-0.1436,-0.162,-0.1725,-0.1927,-0.2263,-0.2594,-0.269,-0.2706,-0.2722,-0.2736,-0.2769,-0.2793,-0.2793,-0.2799,-0.3326,-0.4808,-0.4981,-0.5523,-0.7064,-0.7949,-0.8417,-0.8659,-0.9375,-1.053,-1.2131,-1.2567,-1.3634,-1.5242,-1.5954,-1.6481,-1.6665,-1.6928,-1.7112,-1.7112,-1.7112,-1.7112,-1.7112,-1.7112,-1.7112,-1.7112,-1.7112,-1.7112,-1.7112,-1.7112,-1.7112,-1.7112,-1.7112,-1.7112,-1.7112,-1.7112,-1.7112,-1.7112,-1.7112,-1.7112,-1.7112,-1.7112,-1.7112,-1.7112,-1.7112,-1.7112,-1.7112,-1.7112,-1.7112,-1.7112,-1.7112,-1.7112,-1.7024,-1.6849,-1.6761,-1.6761,-1.6761,-1.6761,-1.6761,-1.6761,-1.6761,-1.6673,-1.6313,-1.6225,-1.6137,-1.5793,-1.5704,-1.5704,-1.5704,-1.5616,-1.5528,-1.5528,-1.544,-1.544,-1.544,-1.544,-1.544,-1.544,-1.544,-1.5264,-1.4822,-1.4503,-1.4401,-1.4509,-1.4577,-1.4726,-1.497,-1.5004,-1.5072,-1.5181,-1.5181,-1.5181,0.0,-0.0114,-0.0313,-0.0552,-0.0892,-0.133,-0.1753,-0.2089,-0.2271,-0.2309,-0.2494,-0.2671,-0.2671,-0.2695,-0.2716,-0.2716,-0.2742,-0.3019,-0.3966,-0.4068,-0.4773,-0.6499,-0.6759,-0.7208,-0.8466,-0.9686,-1.0575,-1.1063,-1.212,-1.3346,-1.4576,-1.4923,-1.5444,-1.642,-1.6766,-1.6852,-1.6852,-1.6852,-1.6852,-1.686,-1.695,-1.7031,-1.7112,-1.7112,-1.7112,-1.7112,-1.7112,-1.7112,-1.7112,-1.7112,-1.7112,-1.7112,-1.7112,-1.7112,-1.7112,-1.7112,-1.7112,-1.7112,-1.7112,-1.7112,-1.7112,-1.7112,-1.7112,-1.7112,-1.7112,-1.7112,-1.7112,-1.7112,-1.7112,-1.7112,-1.7112,-1.7112,-1.7112,-1.7112,-1.7112,-1.7112,-1.7112,-1.7112,-1.7112,-1.7112,-1.7112,-1.7024,-1.6753,-1.6753,-1.6665,-1.6409,-1.6409,-1.6409,-1.6409,-1.6137,-1.6049,-1.6049,-1.6657,-1.7,-1.7,-1.7868,-1.8296,-1.8296,-1.8296,-1.8209,-1.7938,-1.7763,-1.6593,-1.4407,-1.4475,-1.459,-1.4753,-1.4821,-1.4936,-1.5079,-1.5079,-1.512,0.0,-0.0232,-0.0639,-0.1149,-0.158,-0.1851,-0.1972,-0.2302,-0.2551,-0.2574,-0.2611,-0.2639,-0.2639,-0.266,-0.2762,-0.3102,-0.3127,-0.3743,-0.5614,-0.5916,-0.6636,-0.8436,-0.8693,-0.8955,-0.9745,-1.1378,-1.268,-1.3462,-1.5105,-1.615,-1.6576,-1.6584,-1.6584,-1.6584,-1.6584,-1.6584,-1.6584,-1.6584,-1.6584,-1.6584,-1.673,-1.6877,-1.7023,-1.7023,-1.7039,-1.7063,-1.7063,-1.7047,-1.7023,-1.7055,-1.7063,-1.7071,-1.7096,-1.7112,-1.7112,-1.7112,-1.7112,-1.7112,-1.7112,-1.7112,-1.7112,-1.7112,-1.7112,-1.7112,-1.7112,-1.7112,-1.7112,-1.7112,-1.7112,-1.7112,-1.7112,-1.7112,-1.7112,-1.7112,-1.7112,-1.7112,-1.7112,-1.7112,-1.7112,-1.7112,-1.7112,-1.7112,-1.7112,-1.7112,-1.7112,-1.7112,-1.7367,-1.7543,-1.7543,-1.7534,-1.7438,-1.7438,-1.8471,-1.9246,-1.9246,-2.0539,-2.148,-2.148,-2.148,-2.1394,-2.1307,-2.1307,-1.9498,-1.5601,-1.5646,-1.563,-1.566,-1.5445,-1.5413,-1.5569,-1.5114,-1.5011,0.0,-0.022,-0.0709,-0.1409,-0.1686,-0.1875,-0.2281,-0.2462,-0.2482,-0.2487,-0.2551,-0.2608,-0.2608,-0.2611,-0.3113,-0.4714,-0.4974,-0.5576,-0.7387,-0.7657,-0.8504,-1.067,-1.092,-1.1807,-1.388,-1.4744,-1.5225,-1.5531,-1.615,-1.6491,-1.6584,-1.6584,-1.6584,-1.6584,-1.6584,-1.6584,-1.6584,-1.6584,-1.6584,-1.6584,-1.6609,-1.6625,-1.6649,-1.6649,-1.6738,-1.6798,-1.6798,-1.6795,-1.6665,-1.682,-1.6798,-1.6901,-1.7055,-1.7112,-1.7112,-1.7112,-1.7112,-1.7112,-1.7112,-1.7112,-1.7112,-1.7112,-1.7112,-1.7112,-1.7112,-1.7112,-1.7112,-1.7112,-1.7112,-1.7112,-1.7112,-1.7112,-1.7112,-1.7112,-1.7112,-1.7112,-1.7112,-1.7112,-1.7112,-1.7112,-1.7112,-1.7112,-1.7112,-1.7112,-1.7112,-1.7112,-1.8488,-1.9525,-1.9525,-2.0819,-2.176,-2.176,-2.1932,-2.2019,-2.2019,-2.2277,-2.2449,-2.2449,-2.2449,-2.2191,-2.1846,-2.1846,-2.1318,-2.0269,-2.0298,-2.0317,-2.05,-1.8512,-1.7649,-1.7739,-1.5672,-1.4855,-0.0435,-0.072,-0.0996,-0.178,-0.1999,-0.2121,-0.2387,-0.2421,-0.2672,-0.3585,-0.3091,-0.2518,-0.2568,-0.3399,-0.423,-0.5068,-0.5966,-0.72,-0.9039,-0.9452,-1.0351,-1.2394,-1.28,-1.3485,-1.4705,-1.5139,-1.5471,-1.579,-1.6135,-1.6284,-1.6284,-1.6284,-1.6284,-1.6284,-1.6284,-1.6284,-1.6284,-1.6284,-1.6332,-1.6422,-1.6422,-1.6479,-1.6584,-1.6584,-1.6625,-1.6698,-1.6698,-1.6657,-1.6584,-1.6665,-1.6698,-1.6706,-1.6787,-1.6877,-1.6958,-1.6852,-1.6942,-1.708,-1.6885,-1.6885,-1.6966,-1.6966,-1.6966,-1.6982,-1.708,-1.7112,-1.7112,-1.7112,-1.7112,-1.7367,-1.841,-1.8663,-1.8925,-1.9951,-2.0211,-2.0211,-2.0211,-1.8575,-1.7112,-1.7112,-1.7972,-1.8663,-1.8663,-1.9525,-2.0211,-2.0211,-2.0905,-2.1424,-2.1424,-2.2105,-2.2622,-2.2622,-2.3567,-2.4166,-2.4166,-2.5117,-2.5726,-2.5726,-2.5726,-2.5641,-2.547,-2.5458,-2.5288,-2.5105,-2.2514,-2.1272,-2.1286,-2.024,-1.9827,-1.9943,-1.8705,-1.8181,-0.0772,-0.1014,-0.1211,-0.1936,-0.2177,-0.2251,-0.2318,-0.2664,-0.3298,-0.4494,-0.4141,-0.3661,-0.3764,-0.4452,-0.5377,-0.6213,-0.7424,-0.888,-1.0758,-1.1326,-1.2128,-1.3582,-1.4149,-1.4548,-1.4954,-1.5072,-1.5392,-1.5707,-1.5837,-1.591,-1.591,-1.591,-1.591,-1.591,-1.5951,-1.5975,-1.5975,-1.5942,-1.6113,-1.6235,-1.6235,-1.6308,-1.6446,-1.6446,-1.6446,-1.6446,-1.6487,-1.6487,-1.6446,-1.6495,-1.6511,-1.6511,-1.656,-1.6665,-1.6771,-1.6633,-1.6747,-1.6942,-1.6674,-1.6674,-1.6787,-1.6787,-1.6787,-1.6812,-1.6933,-1.7322,-1.7662,-1.7662,-1.8044,-1.8679,-2.0135,-2.0519,-2.0885,-2.2203,-2.2535,-2.2546,-2.2611,-2.0472,-1.8488,-1.8488,-1.9613,-2.0558,-2.0558,-2.1673,-2.2622,-2.2622,-2.3052,-2.3309,-2.3309,-2.3738,-2.3995,-2.3995,-2.5288,-2.6066,-2.6066,-2.7363,-2.8221,-2.8221,-2.8221,-2.8221,-2.8221,-2.8221,-2.8221,-2.8221,-2.4764,-2.2944,-2.2944,-2.2342,-2.2178,-2.226,-2.1299,-2.0989,-0.0675,-0.0876,-0.1051,-0.1727,-0.1989,-0.2099,-0.2189,-0.341,-0.4595,-0.4668,-0.5867,-0.6867,-0.6883,-0.5813,-0.6058,-0.9366,-1.004,-1.0719,-1.2615,-1.3189,-1.3662,-1.4149,-1.4548,-1.4954,-1.5433,-1.5449,-1.5528,-1.5528,-1.5536,-1.5545,-1.5545,-1.5545,-1.5545,-1.5545,-1.5699,-1.5788,-1.5788,-1.5959,-1.6048,-1.6056,-1.6056,-1.5982,-1.599,-1.599,-1.599,-1.5998,-1.6243,-1.6227,-1.6089,-1.6251,-1.6316,-1.6332,-1.6511,-1.6584,-1.6592,-1.6584,-1.6592,-1.6609,-1.6584,-1.6584,-1.6592,-1.6592,-1.6592,-1.66,-1.6609,-1.7791,-1.9053,-1.9053,-2.0448,-2.1948,-2.2033,-2.2289,-2.2396,-2.2257,-2.2203,-2.2267,-2.2579,-2.2449,-2.2277,-2.2277,-2.2363,-2.2449,-2.2449,-2.2536,-2.2622,-2.2622,-2.4092,-2.5288,-2.5288,-2.6842,-2.7883,-2.7883,-2.7968,-2.8052,-2.8052,-2.8136,-2.8221,-2.8221,-2.8221,-2.8221,-2.8221,-2.8221,-2.8221,-2.8221,-2.7968,-2.7883,-2.7799,-2.5641,-2.452,-2.4446,-2.2191,-2.1276,-0.0659,-0.0796,-0.0995,-0.1612,-0.1861,-0.2213,-0.3118,-0.3897,-0.4975,-0.6856,-0.6952,-0.7365,-0.9613,-0.8909,-0.8375,-0.96,-1.092,-1.204,-1.2811,-1.3527,-1.4029,-1.4298,-1.4696,-1.5007,-1.5163,-1.5268,-1.5342,-1.5342,-1.5447,-1.5512,-1.5512,-1.5512,-1.5512,-1.5512,-1.5577,-1.5658,-1.5772,-1.5951,-1.5966,-1.5966,-1.5966,-1.5966,-1.5966,-1.5966,-1.5966,-1.5966,-1.6113,-1.6105,-1.6048,-1.6113,-1.6137,-1.6146,-1.6211,-1.6308,-1.6389,-1.6276,-1.6381,-1.6552,-1.6316,-1.6308,-1.6405,-1.6405,-1.7154,-1.8085,-1.822,-1.9512,-2.0846,-2.0846,-2.14,-2.2219,-2.339,-2.3793,-2.409,-2.5173,-2.5492,-2.5517,-2.5616,-2.3778,-2.2096,-2.2096,-2.3011,-2.3909,-2.4071,-2.512,-2.5952,-2.6126,-2.6758,-2.7194,-2.7194,-2.7799,-2.8221,-2.8221,-2.8221,-2.8221,-2.8221,-2.8221,-2.8221,-2.8221,-2.8221,-2.8221,-2.8221,-2.8221,-2.8221,-2.8221,-2.8221,-2.8221,-2.8221,-2.7363,-2.6927,-2.6927,-2.5811,-2.5263,-0.0614,-0.0781,-0.0977,-0.1511,-0.172,-0.204,-0.3034,-0.4176,-0.5612,-0.7541,-0.8035,-0.8772,-1.1069,-1.0828,-1.0346,-1.0598,-1.1755,-1.2692,-1.2943,-1.3567,-1.4057,-1.4182,-1.4562,-1.4814,-1.4871,-1.4992,-1.5082,-1.5139,-1.526,-1.5333,-1.5333,-1.5333,-1.5358,-1.5423,-1.5423,-1.5504,-1.5683,-1.5804,-1.5869,-1.5869,-1.5926,-1.5951,-1.5959,-1.6016,-1.5966,-1.5966,-1.5966,-1.5966,-1.5966,-1.5966,-1.5966,-1.5966,-1.5966,-1.6113,-1.6202,-1.6089,-1.6194,-1.6365,-1.6129,-1.6444,-1.7033,-1.7033,-1.8266,-1.9686,-1.9834,-2.1117,-2.2437,-2.2437,-2.2988,-2.3798,-2.4948,-2.5288,-2.5615,-2.6864,-2.7041,-2.6974,-2.6974,-2.5218,-2.3679,-2.3679,-2.4589,-2.5487,-2.5745,-2.6869,-2.7762,-2.7963,-2.8167,-2.8221,-2.8221,-2.8221,-2.8221,-2.8221,-2.8221,-2.8221,-2.8221,-2.8221,-2.8221,-2.8221,-2.8221,-2.8221,-2.8221,-2.8221,-2.8221,-2.8221,-2.8221,-2.8221,-2.8221,-2.8221,-2.8221,-2.8221,-2.7897,-2.7728,0.0,0.0,0.0,-0.1512,-0.1614,-0.1688,-0.2022,-0.4339,-0.6504,-0.6632,-0.9052,-1.1131,-1.1145,-1.1427,-1.1909,-1.2455,-1.2635,-1.2717,-1.317,-1.355,-1.3772,-1.3854,-1.4144,-1.4505,-1.4684,-1.47,-1.4773,-1.4935,-1.4952,-1.4952,-1.496,-1.496,-1.5049,-1.5228,-1.5236,-1.5325,-1.5504,-1.5512,-1.5512,-1.552,-1.5683,-1.5764,-1.5772,-1.5951,-1.595,-1.5958,-1.5958,-1.5958,-1.5966,-1.5966,-1.5966,-1.5966,-1.5966,-1.6048,-1.6048,-1.6048,-1.6048,-1.613,-1.6122,-1.7255,-1.8708,-1.8708,-1.9836,-2.1303,-2.1303,-2.251,-2.3896,-2.3896,-2.5295,-2.6814,-2.6814,-2.6814,-2.6814,-2.6814,-2.66,-2.6386,-2.6386,-2.6841,-2.7241,-2.7241,-2.7241,-2.7241,-2.7255,-2.7482,-2.7682,-2.7682,-2.7936,-2.8207,-2.8207,-2.8207,-2.8207,-2.8207,-2.8221,-2.8221,-2.8221,-2.8221,-2.8221,-2.8221,-2.8221,-2.8221,-2.8221,-2.8221,-2.8221,-2.8221,-2.8221,-2.8221,-2.8221,-2.8221,-2.8221,-2.8221,-2.8221,-2.8221,-0.0573,0.0,0.0,0.0,0.0,0.0,-0.3691,-0.4885,-0.6181,-0.8206,-0.9458,-1.0324,-1.0765,-1.1002,-1.1372,-1.2282,-1.2712,-1.2949,-1.3036,-1.366,-1.4147,-1.4202,-1.4358,-1.4448,-1.4505,-1.4505,-1.4529,-1.4578,-1.4578,-1.4635,-1.4773,-1.4895,-1.4992,-1.5041,-1.5171,-1.526,-1.5317,-1.5447,-1.5512,-1.5512,-1.5569,-1.5585,-1.5585,-1.5642,-1.5731,-1.5845,-1.5845,-1.5926,-1.5966,-1.5966,-1.5966,-1.5966,-1.5966,-1.6772,-1.7737,-1.6451,-1.7583,-1.9602,-1.83,-1.9033,-2.0484,-2.0484,-2.1625,-2.3084,-2.3084,-2.4295,-2.566,-2.566,-2.6043,-2.6507,-2.6507,-2.6507,-2.6507,-2.6507,-2.6453,-2.6386,-2.6386,-2.652,-2.6627,-2.6627,-2.6627,-2.6694,-2.6907,-2.7014,-2.7134,-2.7348,-2.7455,-2.7591,-2.7591,-2.7696,-2.7816,-2.7816,-2.81,-2.8221,-2.8221,-2.8221,-2.8221,-2.8221,-2.8221,-2.8221,-2.8221,-2.8221,-2.8221,-2.8221,-2.8221,-2.8221,-2.8221,-2.8221,-2.8221,-2.8221,-2.8221,-2.8221,-0.0722,-0.0946,-0.1294,-0.1921,0.0,0.0,-0.3851,-0.4814,-0.5826,-0.7427,-0.878,-0.9768,-1.0181,-1.0571,-1.1091,-1.1643,-1.2436,-1.3019,-1.3145,-1.3555,-1.388,-1.3977,-1.4058,-1.4131,-1.4205,-1.4278,-1.4359,-1.4424,-1.4432,-1.4481,-1.4586,-1.4765,-1.4854,-1.4854,-1.5033,-1.5122,-1.5122,-1.5228,-1.5285,-1.5285,-1.5366,-1.5398,-1.5407,-1.548,-1.5569,-1.5666,-1.5666,-1.5723,-1.5821,-1.6542,-1.6473,-1.6048,-1.6772,-1.7737,-1.8545,-1.8309,-1.944,-2.106,-1.9998,-2.0807,-2.2269,-2.2269,-2.3484,-2.4866,-2.4866,-2.5581,-2.6386,-2.6386,-2.6386,-2.6386,-2.6386,-2.6386,-2.6386,-2.6386,-2.6386,-2.6386,-2.6386,-2.6386,-2.6386,-2.6386,-2.6386,-2.644,-2.6613,-2.6747,-2.6881,-2.7054,-2.7188,-2.7268,-2.7268,-2.7415,-2.7522,-2.7522,-2.7776,-2.7963,-2.7963,-2.8154,-2.8221,-2.8221,-2.8221,-2.8221,-2.8221,-2.8221,-2.8221,-2.8221,-2.8221,-2.8221,-2.8221,-2.8221,-2.8221,-2.8221,-2.8221,-2.8221,-0.0974,-0.1163,0.0,-0.2861,-0.2385,0.0,-0.3316,-0.4652,-0.5565,-0.5696,-0.76,-0.9266,-0.9528,-1.0161,-1.0708,-1.0912,-1.1877,-1.2823,-1.3243,-1.3368,-1.3368,-1.3368,-1.3514,-1.3677,-1.3831,-1.3993,-1.4156,-1.4335,-1.4383,-1.4408,-1.4408,-1.4578,-1.4676,-1.4676,-1.4846,-1.4935,-1.4935,-1.496,-1.4968,-1.4968,-1.513,-1.5212,-1.5212,-1.5382,-1.5543,-1.5718,-1.5718,-1.5885,-1.614,-1.7548,-1.7458,-1.6418,-1.8191,-1.9004,-1.943,-2.0727,-2.1545,-2.1786,-2.1614,-2.2671,-2.4136,-2.4136,-2.5184,-2.6544,-2.6465,-2.6465,-2.6544,-2.6465,-2.6465,-2.6465,-2.6465,-2.6465,-2.6386,-2.6465,-2.6465,-2.6386,-2.6465,-2.6465,-2.6465,-2.6544,-2.6465,-2.6386,-2.6386,-2.66,-2.6774,-2.6774,-2.7001,-2.7161,-2.7161,-2.7201,-2.7215,-2.7215,-2.7482,-2.7655,-2.7655,-2.7896,-2.814,-2.8181,-2.8181,-2.8194,-2.8221,-2.8221,-2.8221,-2.8221,-2.8221,-2.8221,-2.8221,-2.8221,-2.8221,-2.8221,-2.8221,-2.8221,-0.1186,-0.1359,-0.1795,-0.287,-0.3235,0.0,-0.4936,-0.5826,-0.654,-0.7076,-0.77,-0.8327,-0.9063,-0.9391,-0.9801,-1.0424,-1.1179,-1.2011,-1.2778,-1.3231,-1.3368,-1.3368,-1.3401,-1.3441,-1.3474,-1.3506,-1.3604,-1.3782,-1.4066,-1.4229,-1.4229,-1.4391,-1.4481,-1.4481,-1.4667,-1.4757,-1.4757,-1.4895,-1.4968,-1.4968,-1.5,-1.5017,-1.5017,-1.5057,-1.5923,-1.7299,-1.7299,-1.8095,-1.9427,-1.973,-1.9105,-1.8068,-1.9744,-2.1519,-2.3128,-2.2097,-2.3472,-2.5647,-2.4271,-2.492,-2.6307,-2.599,-2.6531,-2.7319,-2.6939,-2.7175,-2.7333,-2.7018,-2.6874,-2.6874,-2.6874,-2.6623,-2.6465,-2.6781,-2.6623,-2.6465,-2.6781,-2.6874,-2.6939,-2.7319,-2.686,-2.6386,-2.6386,-2.644,-2.6466,-2.6466,-2.652,-2.656,-2.656,-2.676,-2.6907,-2.6907,-2.7175,-2.7348,-2.7348,-2.7402,-2.7535,-2.7762,-2.7789,-2.7896,-2.8221,-2.8221,-2.8221,-2.8221,-2.8221,-2.8221,-2.8221,-2.8221,-2.8221,-2.8221,-2.8221,-2.8221,-0.1446,-0.1554,-0.2099,-0.3875,0.0,0.0,0.0,-0.6356,-0.653,-0.7131,-0.7463,-0.7897,-0.8786,-0.9008,-0.9323,-1.0085,-1.087,-1.1482,-1.1917,-1.2556,-1.297,-1.297,-1.3051,-1.31,-1.31,-1.3262,-1.3409,-1.3498,-1.3677,-1.3815,-1.3904,-1.4075,-1.4213,-1.4302,-1.4473,-1.457,-1.457,-1.4659,-1.4749,-1.4838,-1.5295,-1.5785,-1.6474,-1.6931,-1.7816,-1.9059,-1.9278,-1.9732,-2.0452,-2.1444,-2.1517,-2.1135,-2.1894,-2.3038,-2.4268,-2.4406,-2.5583,-2.6969,-2.6306,-2.6596,-2.7254,-2.7097,-2.724,-2.7555,-2.7333,-2.749,-2.7555,-2.7412,-2.7333,-2.7333,-2.7333,-2.7175,-2.7018,-2.7254,-2.7175,-2.7018,-2.7254,-2.7333,-2.7333,-2.7555,-2.724,-2.6939,-2.6702,-2.6544,-2.6386,-2.6386,-2.6386,-2.6386,-2.6386,-2.652,-2.66,-2.66,-2.6867,-2.7041,-2.7041,-2.7175,-2.7321,-2.7468,-2.7482,-2.7549,-2.7696,-2.7843,-2.7989,-2.8221,-2.8221,-2.8221,-2.8221,-2.8221,-2.8221,-2.8221,-2.8221,-2.8221,-0.2051,-0.214,-0.2756,-0.5139,0.0,-0.4648,0.0,0.0,0.0,-0.6952,-0.7208,-0.7657,-0.8556,-0.8742,-0.8981,-0.9724,-1.0483,-1.1005,-1.0972,-1.1679,-1.2231,-1.2296,-1.2532,-1.2686,-1.2686,-1.2946,-1.3165,-1.3303,-1.3222,-1.3295,-1.3579,-1.3758,-1.392,-1.4075,-1.4416,-1.4605,-1.4605,-1.4638,-1.4877,-1.5394,-1.5918,-1.6983,-1.8512,-1.9114,-2.0047,-2.098,-2.1354,-2.1429,-2.1578,-2.3165,-2.4048,-2.4269,-2.4112,-2.4342,-2.4956,-2.6606,-2.7241,-2.7284,-2.7537,-2.7664,-2.7628,-2.7549,-2.7591,-2.7712,-2.772,-2.7827,-2.7869,-2.779,-2.7712,-2.7712,-2.7712,-2.7633,-2.7633,-2.7712,-2.7633,-2.7633,-2.7712,-2.7712,-2.779,-2.7869,-2.779,-2.7555,-2.7175,-2.686,-2.6623,-2.6623,-2.6623,-2.6623,-2.6623,-2.6544,-2.6544,-2.6544,-2.66,-2.6734,-2.6734,-2.6961,-2.7121,-2.7175,-2.7175,-2.7201,-2.7268,-2.7495,-2.7749,-2.814,-2.814,-2.8167,-2.8221,-2.8221,-2.8221,-2.8221,-2.8221,-2.8221,0.0,0.0,0.0,0.0,-0.7049,0.0,0.0,0.0,-0.8035,-0.7476,0.0,-0.7572,-0.8219,0.0,0.0,-0.9068,-0.9827,-1.0225,-1.0063,-1.0534,-1.1021,-1.1338,-1.1817,-1.2117,-1.2117,-1.2158,-1.2442,-1.3076,-1.2694,-1.271,-1.3368,-1.3579,-1.3615,-1.3701,-1.4673,-1.5215,-1.5215,-1.538,-1.6269,-1.7976,-1.738,-1.814,-2.0195,-2.0343,-2.1355,-2.3078,-2.3078,-2.3905,-2.5198,-2.5419,-2.574,-2.6104,-2.5954,-2.6321,-2.6951,-2.7221,-2.7311,-2.7311,-2.7354,-2.754,-2.7705,-2.7382,-2.7657,-2.8232,-2.8269,-2.8526,-2.8651,-2.8353,-2.8197,-2.8197,-2.8197,-2.7883,-2.7712,-2.8118,-2.7883,-2.7712,-2.8118,-2.8197,-2.8353,-2.8651,-2.8431,-2.804,-2.7633,-2.7569,-2.7569,-2.7476,-2.7476,-2.7476,-2.7476,-2.7175,-2.6953,-2.6953,-2.6664,-2.644,-2.644,-2.6466,-2.66,-2.6854,-2.6867,-2.6987,-2.7255,-2.7295,-2.7455,-2.7749,-2.7749,-2.7883,-2.8221,-2.8221,-2.8221,-2.8221,-2.8221,-2.8221,0.0,0.0,0.0,0.0,0.0,0.0,-0.8092,0.0,-0.8335,0.0,0.0,0.0,0.0,0.0,0.0,0.0,-0.9477,-0.9641,-0.9307,-0.964,-1.0212,-1.0834,-1.1118,-1.1378,-1.1695,-1.1719,-1.189,-1.2296,-1.2028,-1.215,-1.2931,-1.347,-1.3721,-1.3636,-1.4903,-1.547,-1.5149,-1.6296,-1.7325,-1.8238,-1.9029,-2.0301,-2.198,-2.2425,-2.3458,-2.4852,-2.507,-2.5545,-2.6166,-2.6399,-2.6619,-2.6706,-2.669,-2.6819,-2.7111,-2.73,-2.7447,-2.7476,-2.7575,-2.7734,-2.785,-2.7683,-2.786,-2.81,-2.8122,-2.8242,-2.8268,-2.8129,-2.8052,-2.8052,-2.8052,-2.8105,-2.808,-2.8327,-2.825,-2.808,-2.8327,-2.8183,-2.8129,-2.8268,-2.8191,-2.811,-2.8052,-2.7848,-2.7647,-2.7633,-2.7633,-2.7633,-2.7633,-2.7476,-2.7333,-2.7412,-2.7254,-2.7083,-2.7083,-2.7083,-2.7059,-2.6878,-2.6733,-2.6707,-2.7001,-2.7001,-2.7148,-2.7442,-2.7442,-2.7589,-2.7883,-2.7883,-2.7976,-2.8221,-2.8221,-2.8221,-0.6455,0.0,0.0,0.0,0.0,0.0,0.0,0.0,0.0,0.0,0.0,0.0,0.0,0.0,0.0,0.0,0.0,-0.9208,-0.8804,-0.8974,-0.9461,-1.0168,-1.0469,-1.0818,-1.1305,-1.1175,-1.1232,-1.1671,-1.1346,-1.1651,-1.2761,-1.3237,-1.3843,-1.4431,-1.5653,-1.6331,-1.6407,-1.7858,-1.8887,-1.9546,-2.0766,-2.2167,-2.3722,-2.43,-2.5059,-2.5927,-2.6226,-2.6401,-2.6489,-2.6707,-2.691,-2.6983,-2.6983,-2.6983,-2.7013,-2.7261,-2.7349,-2.7378,-2.7613,-2.7744,-2.7817,-2.7817,-2.7801,-2.7859,-2.7847,-2.7801,-2.7874,-2.7874,-2.7874,-2.7874,-2.7874,-2.8049,-2.8224,-2.8224,-2.8224,-2.8224,-2.8224,-2.8034,-2.7874,-2.7874,-2.7874,-2.7947,-2.818,-2.8023,-2.794,-2.7933,-2.7947,-2.7947,-2.7947,-2.7869,-2.7805,-2.7883,-2.7726,-2.7633,-2.7633,-2.7633,-2.7476,-2.7175,-2.686,-2.6797,-2.7013,-2.6947,-2.7001,-2.7392,-2.7229,-2.7295,-2.7575,-2.7575,-2.7696,-2.7993,-2.8154,-2.8221,0.0,0.0,0.0,-0.8767,0.0,0.0,0.0,0.0,-0.9036,0.0,0.0,0.0,0.0,0.0,0.0,0.0,0.0,0.0,0.0,-0.8629,-0.8775,-0.9104,-0.9916,-1.059,-1.1004,-1.0347,-1.0371,-1.1427,-1.0696,-1.1151,-1.3162,-1.2859,-1.3834,-1.6542,-1.7177,-1.8298,-1.9935,-2.0335,-2.1446,-2.3215,-2.2572,-2.3351,-2.5411,-2.548,-2.5655,-2.6032,-2.6032,-2.6222,-2.6515,-2.6515,-2.6705,-2.6983,-2.6983,-2.6983,-2.6983,-2.6998,-2.7013,-2.7013,-2.7013,-2.7232,-2.7495,-2.7495,-2.77,-2.7815,-2.7583,-2.77,-2.7874,-2.7874,-2.7874,-2.7874,-2.7874,-2.7888,-2.7888,-2.7888,-2.7888,-2.7888,-2.7888,-2.7888,-2.7874,-2.7874,-2.7874,-2.7874,-2.7888,-2.8165,-2.8472,-2.8842,-2.8886,-2.8886,-2.8886,-2.851,-2.8289,-2.8289,-2.7883,-2.7633,-2.7633,-2.7633,-2.7555,-2.7555,-2.7555,-2.7555,-2.7569,-2.7189,-2.7182,-2.7497,-2.7082,-2.6987,-2.7281,-2.7281,-2.7281,-2.7308,-2.7966,-2.8221,0.0,0.0,-0.9989,-0.9498,0.0,0.0,0.0,0.0,0.0,0.0,0.0,0.0,0.0,0.0,0.0,0.0,0.0,0.0,0.0,-0.8203,-0.8292,-0.8536,-0.9356,-0.9851,-0.9746,-0.9827,-1.0038,-1.0404,-1.0379,-1.1037,-1.268,-1.3403,-1.4645,-1.6436,-1.7752,-1.9,-2.0059,-2.1459,-2.2578,-2.3406,-2.3884,-2.4553,-2.5213,-2.5213,-2.5388,-2.5696,-2.5696,-2.5886,-2.6179,-2.6179,-2.6369,-2.6676,-2.6676,-2.6793,-2.6983,-2.6983,-2.6983,-2.6983,-2.6983,-2.7056,-2.7159,-2.7159,-2.7232,-2.7291,-2.7188,-2.7232,-2.732,-2.732,-2.732,-2.732,-2.732,-2.7481,-2.7642,-2.7642,-2.7642,-2.7642,-2.7642,-2.7466,-2.732,-2.732,-2.732,-2.7378,-2.7598,-2.8521,-2.9077,-2.8659,-2.8593,-2.8666,-2.8871,-2.8822,-2.8666,-2.8666,-2.8573,-2.8871,-2.9944,-3.0762,-3.1207,-3.1207,-3.0006,-2.9245,-2.9245,-2.8026,-2.7296,-2.7182,-2.7023,-2.692,-2.6974,-2.6974,-2.7068,-2.7268,-2.7468,-2.7562,-1.0564,-1.087,0.0,-1.0247,-1.0146,0.0,-0.9309,0.0,-0.9907,0.0,0.0,0.0,0.0,0.0,0.0,0.0,0.0,0.0,0.0,-0.7975,-0.8032,-0.8097,-0.8836,-0.9299,-0.9202,-0.9409,-0.9624,-0.9851,-1.023,-1.1124,-1.2681,-1.3949,-1.5587,-1.7479,-1.893,-2.0195,-2.1316,-2.2656,-2.3476,-2.3865,-2.454,-2.5017,-2.5119,-2.5119,-2.5169,-2.5359,-2.5359,-2.5549,-2.5842,-2.5842,-2.6032,-2.6325,-2.6325,-2.653,-2.6837,-2.6939,-2.6983,-2.6983,-2.6983,-2.6983,-2.6983,-2.6983,-2.6983,-2.6983,-2.6983,-2.6983,-2.6983,-2.6983,-2.6983,-2.6983,-2.6983,-2.7144,-2.7453,-2.7937,-2.8084,-2.8231,-2.88,-2.8775,-2.8619,-2.8619,-2.8619,-2.8681,-2.8914,-2.9729,-3.0041,-2.92,-2.9533,-2.9973,-3.0174,-3.0205,-3.0205,-3.0205,-3.0314,-3.0882,-3.2081,-3.2902,-3.3339,-3.3339,-3.2065,-3.1392,-3.1392,-3.0238,-2.9464,-2.9153,-2.9012,-2.8646,-2.7993,-2.7993,-2.7786,-2.7431,-2.7431,-2.7351]},{"header":{"parameterUnit":"m.s-1","parameterCategory":1,"la1":30.6,"la2":29.2853,"lo1":-89.7004,"lo2":-87.6739,"dy":0.0162,"dx":0.0183,"nx":112,"ny":82,"refTime":"2024-09-02T00:00:00:Z","depth":0,"parameterNumber":3,"parameterNumberName":"V-component_of_WINDS"},"data":[0.0,0.0,0.0,0.0,0.0,0.0,0.0,0.0,0.0,0.0,0.0,0.0,0.0,0.0,0.0,0.0,0.0,0.0,0.0,0.0,0.0,0.0,0.0,0.0,0.0,0.0,0.0,0.0,0.0,0.0,0.0,0.0,0.0,0.0,0.0,0.0,0.0,0.0,0.0,0.0,0.0,0.0,0.0,0.0,0.0,0.0,0.0,0.0,0.0,0.0,0.0,0.0,0.0,0.0,0.0,0.0,0.0,0.0,0.0,0.0,0.0,0.0,0.0,0.0,0.0,0.0,0.0,0.0,0.0,0.0,0.0,0.0,0.0,0.0,0.0,0.0,0.0,0.0,0.0,0.0,0.0,0.0,0.0,0.0,0.0,0.0,0.0,0.0,0.0,0.0,6.2311,6.9231,7.5976,7.9592,7.8592,7.7284,7.2052,6.1666,0.0,0.0,0.0,0.0,0.0,0.0,0.0,0.0,0.0,0.0,0.0,0.0,0.0,0.0,0.0,0.0,0.0,0.0,0.0,0.0,0.0,0.0,0.0,0.0,0.0,0.0,0.0,0.0,0.0,0.0,0.0,0.0,0.0,0.0,0.0,0.0,0.0,0.0,0.0,0.0,0.0,0.0,0.0,0.0,0.0,0.0,0.0,0.0,0.0,0.0,0.0,0.0,0.0,0.0,0.0,0.0,0.0,0.0,0.0,0.0,0.0,0.0,0.0,0.0,0.0,0.0,0.0,0.0,0.0,0.0,0.0,0.0,0.0,0.0,0.0,0.0,0.0,0.0,0.0,0.0,0.0,0.0,0.0,0.0,0.0,0.0,0.0,0.0,0.0,0.0,0.0,0.0,0.0,0.0,0.0,0.0,0.0,0.0,0.0,0.0,0.0,0.0,0.0,0.0,6.5603,7.5861,7.9323,8.0246,7.8631,7.5091,6.9835,6.237,0.0,0.0,0.0,0.0,0.0,0.0,0.0,0.0,0.0,0.0,0.0,0.0,0.0,0.0,0.0,0.0,0.0,0.0,0.0,0.0,0.0,0.0,0.0,0.0,0.0,0.0,0.0,0.0,0.0,0.0,0.0,0.0,0.0,0.0,0.0,0.0,0.0,0.0,0.0,0.0,0.0,0.0,0.0,0.0,0.0,0.0,0.0,0.0,0.0,0.0,0.0,0.0,0.0,0.0,0.0,0.0,0.0,0.0,0.0,0.0,0.0,0.0,0.0,0.0,0.0,0.0,0.0,0.0,0.0,0.0,0.0,0.0,0.0,0.0,0.0,0.0,0.0,0.0,0.0,0.0,0.0,0.0,0.0,0.0,0.0,0.0,0.0,0.0,0.0,0.0,0.0,0.0,0.0,0.0,0.0,0.0,0.0,0.0,0.0,0.0,0.0,0.0,0.0,6.4232,6.9552,7.8284,8.0323,8.04,7.8631,7.5476,7.009,6.1908,5.8165,0.0,0.0,0.0,0.0,0.0,0.0,0.0,0.0,0.0,0.0,0.0,0.0,0.0,0.0,0.0,0.0,0.0,0.0,0.0,0.0,0.0,0.0,0.0,0.0,0.0,0.0,0.0,0.0,0.0,0.0,0.0,0.0,0.0,0.0,0.0,0.0,0.0,0.0,0.0,0.0,0.0,0.0,0.0,0.0,0.0,0.0,0.0,0.0,0.0,0.0,0.0,0.0,0.0,0.0,0.0,0.0,0.0,0.0,0.0,0.0,0.0,0.0,0.0,0.0,0.0,0.0,0.0,0.0,0.0,0.0,0.0,0.0,0.0,0.0,0.0,0.0,0.0,0.0,0.0,0.0,0.0,0.0,0.0,0.0,0.0,0.0,0.0,0.0,0.0,0.0,0.0,0.0,0.0,0.0,0.0,0.0,0.0,0.0,0.0,0.0,0.0,0.0,7.0206,7.3476,7.9477,8.0516,8.0169,7.8631,7.5053,6.9436,6.132,5.5895,0.0,0.0,0.0,0.0,0.0,0.0,0.0,0.0,0.0,0.0,0.0,0.0,0.0,0.0,0.0,0.0,0.0,0.0,0.0,0.0,0.0,0.0,0.0,0.0,0.0,0.0,0.0,0.0,0.0,0.0,0.0,0.0,0.0,0.0,0.0,0.0,0.0,0.0,0.0,0.0,0.0,0.0,0.0,0.0,0.0,0.0,0.0,0.0,0.0,0.0,0.0,0.0,0.0,0.0,0.0,0.0,0.0,0.0,0.0,0.0,0.0,0.0,0.0,0.0,0.0,0.0,0.0,0.0,0.0,0.0,0.0,0.0,0.0,0.0,0.0,0.0,0.0,0.0,0.0,0.0,0.0,0.0,0.0,0.0,0.0,0.0,0.0,0.0,0.0,0.0,0.0,0.0,0.0,0.0,0.0,0.0,0.0,0.0,0.0,0.0,0.0,0.0,7.1668,7.6976,8.0631,8.0323,7.9515,7.8592,7.1822,6.5667,6.1089,5.3087,0.0,0.0,0.0,0.0,0.0,0.0,0.0,0.0,0.0,0.0,0.0,0.0,0.0,0.0,0.0,0.0,0.0,0.0,0.0,0.0,0.0,0.0,0.0,0.0,0.0,0.0,0.0,0.0,0.0,0.0,0.0,0.0,0.0,0.0,0.0,0.0,0.0,0.0,0.0,0.0,0.0,0.0,0.0,0.0,0.0,0.0,0.0,0.0,0.0,0.0,0.0,0.0,0.0,0.0,0.0,0.0,0.0,0.0,0.0,0.0,0.0,0.0,0.0,0.0,0.0,0.0,0.0,0.0,0.0,0.0,0.0,0.0,0.0,0.0,0.0,0.0,0.0,0.0,0.0,0.0,0.0,0.0,0.0,0.0,0.0,0.0,0.0,0.0,0.0,0.0,0.0,0.0,0.0,0.0,0.0,0.0,0.0,0.0,0.0,0.0,0.0,0.0,7.0398,7.5553,8.0554,8.0323,7.9438,7.8554,7.3937,6.8167,6.1243,0.0,0.0,0.0,0.0,0.0,0.0,0.0,0.0,0.0,0.0,0.0,0.0,0.0,0.0,0.0,0.0,0.0,0.0,0.0,0.0,0.0,0.0,0.0,0.0,0.0,0.0,0.0,0.0,0.0,0.0,0.0,0.0,0.0,0.0,0.0,0.0,0.0,0.0,0.0,0.0,0.0,0.0,0.0,0.0,0.0,0.0,0.0,0.0,0.0,0.0,0.0,0.0,0.0,0.0,0.0,0.0,0.0,0.0,0.0,0.0,0.0,0.0,0.0,0.0,0.0,0.0,0.0,0.0,0.0,0.0,0.0,0.0,0.0,0.0,0.0,0.0,0.0,0.0,0.0,0.0,0.0,0.0,0.0,0.0,0.0,0.0,0.0,0.0,0.0,0.0,0.0,0.0,0.0,0.0,0.0,0.0,0.0,0.0,0.0,0.0,0.0,0.0,6.482,7.0514,7.5668,8.0592,8.0054,7.9131,7.8554,7.3937,6.8013,6.0819,0.0,0.0,0.0,0.0,0.0,0.0,0.0,0.0,0.0,0.0,0.0,0.0,0.0,0.0,0.0,0.0,0.0,0.0,0.0,0.0,0.0,0.0,0.0,0.0,0.0,0.0,0.0,0.0,0.0,0.0,0.0,0.0,0.0,0.0,0.0,0.0,0.0,0.0,0.0,0.0,0.0,0.0,0.0,0.0,0.0,0.0,0.0,0.0,0.0,0.0,0.0,0.0,0.0,0.0,0.0,0.0,0.0,0.0,0.0,0.0,0.0,0.0,0.0,0.0,0.0,0.0,0.0,0.0,0.0,0.0,0.0,0.0,0.0,0.0,0.0,0.0,0.0,0.0,0.0,0.0,0.0,0.0,0.0,0.0,0.0,0.0,0.0,0.0,0.0,0.0,0.0,0.0,0.0,0.0,0.0,0.0,0.0,0.0,0.0,0.0,0.0,0.0,6.5128,7.2591,7.8284,8.0823,7.9554,7.8477,7.8477,7.0783,6.4089,0.0,0.0,0.0,0.0,0.0,0.0,0.0,0.0,0.0,0.0,0.0,0.0,0.0,0.0,0.0,0.0,0.0,0.0,0.0,0.0,0.0,0.0,0.0,0.0,0.0,0.0,0.0,0.0,0.0,0.0,0.0,0.0,0.0,0.0,0.0,0.0,0.0,0.0,0.0,0.0,0.0,0.0,0.0,0.0,0.0,0.0,0.0,0.0,0.0,0.0,0.0,0.0,0.0,0.0,0.0,0.0,0.0,0.0,0.0,0.0,0.0,0.0,0.0,0.0,0.0,0.0,0.0,0.0,0.0,0.0,0.0,0.0,0.0,0.0,0.0,0.0,0.0,0.0,0.0,0.0,0.0,0.0,0.0,0.0,0.0,0.0,0.0,0.0,0.0,0.0,0.0,0.0,0.0,0.0,0.0,0.0,0.0,0.0,0.0,0.0,0.0,0.0,0.0,6.5205,7.3053,7.89,8.09,7.9554,7.8246,7.7707,7.2091,6.5974,5.9896,0.0,0.0,0.0,0.0,0.0,0.0,0.0,0.0,0.0,0.0,0.0,0.0,0.0,0.0,0.0,0.0,0.0,0.0,0.0,0.0,0.0,0.0,0.0,0.0,0.0,0.0,0.0,0.0,0.0,0.0,0.0,0.0,0.0,0.0,0.0,0.0,0.0,0.0,0.0,0.0,0.0,0.0,0.0,0.0,0.0,0.0,0.0,0.0,0.0,0.0,0.0,0.0,0.0,0.0,0.0,0.0,0.0,0.0,0.0,0.0,0.0,0.0,0.0,0.0,0.0,0.0,0.0,0.0,0.0,0.0,0.0,0.0,0.0,0.0,0.0,0.0,0.0,0.0,0.0,0.0,0.0,0.0,0.0,0.0,0.0,0.0,0.0,0.0,0.0,0.0,0.0,0.0,0.0,0.0,0.0,0.0,0.0,0.0,0.0,0.0,0.0,0.0,6.5667,7.3476,7.9169,8.09,7.9554,7.8284,7.7823,7.3091,6.7436,6.0935,0.0,0.0,0.0,0.0,0.0,0.0,0.0,0.0,0.0,0.0,0.0,0.0,0.0,0.0,0.0,0.0,0.0,0.0,0.0,0.0,0.0,0.0,0.0,0.0,0.0,0.0,0.0,0.0,0.0,0.0,0.0,0.0,0.0,0.0,0.0,0.0,0.0,0.0,0.0,0.0,0.0,0.0,0.0,0.0,0.0,0.0,0.0,0.0,0.0,0.0,0.0,0.0,0.0,0.0,0.0,0.0,0.0,0.0,0.0,0.0,0.0,0.0,0.0,0.0,0.0,0.0,0.0,0.0,0.0,0.0,0.0,0.0,0.0,0.0,0.0,0.0,0.0,0.0,0.0,0.0,0.0,0.0,0.0,0.0,0.0,0.0,0.0,0.0,0.0,0.0,0.0,0.0,0.0,0.0,0.0,0.0,0.0,0.0,0.0,0.0,0.0,0.0,6.632,7.3745,7.9169,8.09,7.9554,7.8492,7.84,7.3783,6.8398,6.2601,0.0,0.0,0.0,0.0,0.0,0.0,0.0,0.0,0.0,0.0,0.0,0.0,0.0,0.0,0.0,0.0,0.0,0.0,0.0,0.0,0.0,0.0,0.0,0.0,0.0,0.0,0.0,0.0,0.0,0.0,0.0,0.0,0.0,0.0,0.0,0.0,0.0,0.0,0.0,0.0,0.0,0.0,0.0,0.0,0.0,0.0,0.0,0.0,0.0,0.0,0.0,0.0,0.0,0.0,0.0,0.0,0.0,0.0,0.0,0.0,5.0681,4.741,0.0,0.0,0.0,0.0,0.0,0.0,0.0,0.0,0.0,0.0,0.0,0.0,0.0,0.0,0.0,0.0,0.0,0.0,0.0,0.0,0.0,0.0,0.0,0.0,0.0,0.0,0.0,0.0,0.0,0.0,0.0,0.0,0.0,0.0,0.0,0.0,0.0,0.0,0.0,0.0,6.632,7.3745,7.9169,8.09,7.9554,7.8246,7.7592,7.3476,6.8667,6.3397,5.7896,0.0,0.0,0.0,0.0,0.0,0.0,0.0,0.0,0.0,0.0,0.0,0.0,0.0,0.0,0.0,0.0,0.0,0.0,0.0,0.0,0.0,0.0,0.0,0.0,0.0,0.0,0.0,0.0,0.0,0.0,0.0,0.0,0.0,0.0,0.0,0.0,0.0,0.0,0.0,0.0,0.0,0.0,0.0,0.0,0.0,0.0,0.0,0.0,0.0,0.0,0.0,0.0,0.0,0.0,0.0,0.0,0.0,0.0,0.0,5.7586,5.4579,0.0,0.0,0.0,0.0,0.0,0.0,0.0,0.0,0.0,0.0,0.0,0.0,0.0,0.0,0.0,0.0,0.0,0.0,0.0,0.0,0.0,0.0,0.0,0.0,0.0,0.0,0.0,0.0,0.0,0.0,0.0,0.0,0.0,0.0,0.0,0.0,0.0,0.0,0.0,0.0,6.759,7.4668,7.9477,8.04,7.8938,7.7746,7.7323,7.3745,6.986,6.6013,6.0973,0.0,0.0,0.0,0.0,0.0,0.0,0.0,0.0,0.0,0.0,0.0,0.0,0.0,0.0,0.0,0.0,0.0,0.0,0.0,0.0,0.0,0.0,0.0,0.0,0.0,0.0,0.0,0.0,0.0,0.0,0.0,0.0,0.0,0.0,0.0,0.0,0.0,0.0,0.0,0.0,0.0,0.0,0.0,0.0,0.0,0.0,0.0,0.0,0.0,0.0,0.0,0.0,0.0,6.4758,6.5748,6.6895,6.7152,6.8215,6.9628,6.5038,6.3036,6.2575,5.746,0.0,0.0,0.0,0.0,0.0,0.0,0.0,0.0,0.0,0.0,0.0,0.0,0.0,0.0,0.0,0.0,0.0,0.0,0.0,0.0,0.0,0.0,0.0,0.0,6.7128,6.6898,5.8165,0.0,0.0,0.0,0.0,0.0,0.0,0.0,0.0,0.0,0.0,0.0,6.9167,7.5707,7.9862,8.0015,7.84,7.7284,7.7284,7.4168,7.1245,6.8975,6.4628,6.0281,0.0,0.0,0.0,0.0,0.0,0.0,0.0,0.0,0.0,0.0,0.0,0.0,0.0,0.0,0.0,0.0,0.0,0.0,0.0,0.0,0.0,0.0,0.0,0.0,0.0,0.0,0.0,0.0,0.0,0.0,0.0,0.0,4.4369,4.7229,0.0,0.0,0.0,0.0,0.0,0.0,0.0,0.0,0.0,0.0,0.0,0.0,0.0,6.3037,6.5451,6.8781,7.0575,7.0844,7.4589,7.6117,7.5641,7.6386,7.7247,7.8146,7.6671,0.0,6.6254,6.4027,0.0,0.0,0.0,0.0,0.0,0.0,0.0,0.0,0.0,0.0,0.0,0.0,0.0,0.0,0.0,0.0,0.0,0.0,0.0,0.0,0.0,0.0,7.3476,7.1514,7.1937,7.2052,0.0,6.3512,5.8127,5.5126,5.3049,0.0,0.0,0.0,0.0,0.0,0.0,0.0,7.0052,7.6053,8.0092,8.0862,7.8746,7.7284,7.7284,7.4168,7.1745,7.0629,6.859,6.582,6.2281,5.9011,0.0,0.0,0.0,0.0,0.0,0.0,0.0,0.0,0.0,0.0,0.0,0.0,0.0,0.0,0.0,0.0,0.0,0.0,0.0,0.0,0.0,0.0,0.0,0.0,0.0,0.0,0.0,0.0,0.0,4.4108,4.8074,4.9315,4.9387,4.8743,0.0,0.0,0.0,0.0,0.0,0.0,0.0,0.0,0.0,6.5364,6.7749,6.9917,7.1982,7.4956,7.6662,7.7177,7.95,8.0708,8.0823,8.0708,8.0823,8.117,8.0323,7.7784,7.3976,7.036,6.7244,6.4359,0.0,0.0,0.0,0.0,6.2127,6.3358,6.6821,6.8052,6.7667,6.5436,0.0,0.0,0.0,0.0,0.0,0.0,0.0,0.0,0.0,0.0,7.6092,7.6399,7.713,7.7284,7.5553,7.2168,6.7744,0.0,6.055,5.8973,5.4318,0.0,0.0,0.0,0.0,6.7821,7.2437,7.7438,8.0131,7.9092,7.7515,7.6207,7.5245,7.3322,7.2052,7.1629,7.0475,6.8706,6.6282,6.2923,5.955,0.0,0.0,0.0,0.0,0.0,0.0,0.0,0.0,0.0,0.0,0.0,0.0,0.0,0.0,0.0,0.0,0.0,0.0,0.0,0.0,0.0,0.0,0.0,0.0,0.0,0.0,0.0,0.0,4.8184,5.1584,5.1959,5.343,5.3272,0.0,0.0,0.0,0.0,0.0,0.0,6.3949,6.5983,6.8622,7.2112,7.4264,7.6201,7.7938,7.9823,8.1093,8.1747,8.2362,8.2978,8.3555,8.2939,8.2631,8.2593,8.2016,8.1246,8.0092,7.5399,7.2514,7.0667,6.7705,6.6782,6.7321,6.8359,6.9283,7.0552,7.413,7.5361,7.4976,7.2706,7.0783,6.859,6.4359,0.0,0.0,0.0,0.0,6.9167,7.363,7.5861,7.7438,7.9361,8.0285,8.0362,7.8823,7.8015,7.5553,0.0,6.7667,6.6205,6.0281,0.0,0.0,0.0,0.0,7.0667,7.4245,7.8054,7.9785,7.813,7.6592,7.5245,7.4245,7.2937,7.2206,7.2206,7.1783,7.0821,6.9129,6.6192,6.332,6.055,0.0,0.0,0.0,0.0,0.0,0.0,0.0,0.0,0.0,0.0,0.0,0.0,0.0,0.0,0.0,0.0,0.0,0.0,0.0,0.0,0.0,0.0,0.0,0.0,0.0,0.0,0.0,0.0,0.0,5.6487,5.9407,0.0,0.0,0.0,0.0,6.1314,6.446,6.7519,7.02,7.2736,7.5671,7.9192,8.0208,8.1516,8.3208,8.3324,8.3439,8.3478,8.3516,8.3555,8.3593,8.3555,8.3516,8.3516,8.3478,8.2978,8.19,7.8438,7.6015,7.4284,7.2514,7.1321,7.086,7.2552,7.3707,7.4668,7.6515,7.7169,7.7284,7.7861,7.5322,7.2091,7.2629,7.0552,0.0,0.0,7.2976,7.4861,7.7553,7.8938,7.9631,7.9785,7.9823,7.9631,7.8707,7.8492,7.7592,0.0,7.2322,7.0321,6.9206,0.0,6.6898,6.7821,7.0283,7.2668,7.4476,7.7015,7.89,7.9592,7.6746,7.5091,7.5822,7.363,7.2206,7.2206,7.2937,7.2591,7.086,6.909,6.6551,6.3154,5.8088,0.0,0.0,0.0,0.0,0.0,0.0,0.0,0.0,0.0,0.0,0.0,0.0,0.0,0.0,0.0,0.0,0.0,0.0,0.0,0.0,0.0,0.0,0.0,0.0,0.0,0.0,0.0,0.0,6.1646,6.4808,0.0,6.29,6.4449,6.6192,6.7576,7.0343,7.3034,7.5615,7.7677,7.96,8.1362,8.2247,8.2978,8.3593,8.3593,8.3862,8.4439,8.4439,8.4709,8.5209,8.467,8.4439,8.4401,8.3824,8.3401,8.3016,8.1862,8.0362,7.8746,7.8169,7.7746,7.7553,7.8169,7.8554,7.89,7.9515,7.9746,7.9708,7.9438,7.7938,7.6322,7.663,7.5861,7.5207,7.6669,7.7515,7.8323,7.9785,8.04,8.0631,8.0631,8.0631,8.0554,8.0246,8.0169,7.99,7.8977,7.6746,7.4245,7.1745,7.1245,7.0937,7.0129,7.2168,7.4437,7.613,7.763,7.8207,7.7438,7.6245,7.5014,7.3668,7.2206,7.136,7.136,7.1168,7.0783,7.0167,6.9013,6.7051,6.4205,6.1281,5.7049,0.0,0.0,0.0,0.0,0.0,0.0,0.0,0.0,0.0,0.0,0.0,0.0,0.0,0.0,0.0,0.0,0.0,0.0,0.0,0.0,0.0,0.0,0.0,0.0,0.0,6.0402,6.4834,6.564,6.9358,7.0692,6.7806,7.0102,7.2399,7.3783,7.5976,7.813,8.0092,8.1323,8.2324,8.3131,8.3747,8.417,8.4439,8.4439,8.4747,8.5286,8.5286,8.5593,8.6094,8.5555,8.5286,8.5286,8.467,8.4286,8.4055,8.4055,8.3208,8.1939,8.1939,8.1747,8.1516,8.1516,8.1323,8.1093,8.1093,8.1093,8.1016,8.0439,7.9862,7.9361,7.9361,7.9361,7.9515,8.0092,8.0246,8.0362,8.0939,8.1093,8.1093,8.1124,8.1139,8.1139,8.1169,8.1169,8.1169,8.1169,7.9507,7.7323,7.4745,7.4591,7.4284,7.2822,7.4053,7.5553,7.6707,7.7323,7.7323,7.6515,7.5899,7.4899,7.3206,7.1745,7.0783,7.0514,6.9436,6.8821,6.8821,6.7436,6.6013,6.4628,6.2666,5.9281,5.4462,0.0,0.0,0.0,0.0,0.0,0.0,0.0,0.0,0.0,0.0,0.0,0.0,0.0,0.0,0.0,0.0,0.0,0.0,0.0,0.0,0.0,0.0,0.0,6.0952,6.4641,6.7705,6.8629,7.3129,7.4861,7.1552,7.5707,7.8977,7.9823,8.14,8.2708,8.3555,8.3632,8.4016,8.4863,8.4939,8.5324,8.6094,8.6094,8.6094,8.6094,8.6094,8.6094,8.6094,8.6094,8.6094,8.6094,8.6094,8.567,8.4939,8.4939,8.4439,8.3686,8.3593,8.3093,8.2324,8.2324,8.1785,8.1093,8.1093,8.1093,8.1093,8.1093,8.1093,8.1093,8.1093,8.1093,8.1093,8.1093,8.1093,8.1093,8.1093,8.1093,8.1124,8.1199,8.1214,8.1244,8.1277,8.1291,8.1291,8.1291,8.0506,7.9554,7.8684,7.7876,7.7068,7.6183,7.6029,0.0,7.6015,7.5991,7.6337,7.7184,7.576,7.4721,7.4683,7.2374,7.0527,6.9694,6.8001,6.7051,6.7077,6.4691,6.3806,6.4703,6.2201,6.0508,5.9661,0.0,0.0,0.0,0.0,0.0,0.0,0.0,0.0,0.0,0.0,0.0,0.0,0.0,0.0,0.0,0.0,0.0,0.0,0.0,0.0,0.0,6.2281,6.6308,6.6295,7.0462,7.4091,7.5553,7.8092,7.9323,7.84,8.0092,8.1362,8.1593,8.2631,8.3362,8.3593,8.4209,8.467,8.4901,8.5478,8.5901,8.6094,8.6094,8.6094,8.6094,8.6094,8.6094,8.6094,8.6094,8.6094,8.6094,8.6094,8.5978,8.5786,8.5812,8.569,8.5382,8.4087,8.3439,8.317,8.2516,8.1816,8.1184,8.1184,8.1214,8.1258,8.1258,8.1258,8.1258,8.1258,8.1258,8.1258,8.1258,8.1258,8.1258,8.1258,8.1258,8.1234,8.1249,8.1263,8.1263,8.1277,8.1291,8.1291,8.1291,8.1056,8.0603,7.9731,7.8882,7.8034,7.7225,7.6569,0.0,7.6131,7.6236,7.6338,7.6398,7.6096,7.5345,7.4069,7.2202,7.0268,6.8294,6.6597,6.5929,6.6513,6.5898,6.5979,6.6827,6.4969,6.3546,0.0,0.0,0.0,0.0,0.0,0.0,0.0,0.0,0.0,0.0,0.0,0.0,0.0,0.0,0.0,0.0,0.0,0.0,0.0,0.0,0.0,0.0,6.8167,7.1975,7.3053,7.5399,7.7669,7.94,8.0477,8.1246,8.1554,8.2016,8.2593,8.3324,8.3862,8.4286,8.4632,8.5132,8.5401,8.5401,8.5863,8.6094,8.6094,8.6094,8.6094,8.6094,8.6094,8.6094,8.6094,8.6126,8.6143,8.6159,8.6191,8.6245,8.6245,8.6254,8.6269,0.0,0.0,0.0,0.0,0.0,8.2424,8.1798,8.1798,8.1557,8.1291,8.1291,8.1291,8.1291,8.1291,8.1291,8.1291,8.1291,8.1291,8.1291,8.1291,8.1335,8.1401,8.1426,8.1484,8.1525,8.1547,8.1547,8.1547,8.1547,8.1547,0.0,8.0898,8.0001,7.8926,7.7766,7.719,7.6792,7.6405,7.6439,7.6449,7.6333,7.639,7.5876,7.4488,7.2508,0.0,0.0,0.0,6.5862,6.6315,6.6718,0.0,0.0,0.0,0.0,0.0,0.0,0.0,0.0,6.9517,6.9478,0.0,0.0,0.0,0.0,0.0,0.0,0.0,0.0,0.0,0.0,0.0,0.0,0.0,0.0,0.0,0.0,7.3745,7.7246,7.9631,7.9285,7.9361,8.09,8.117,8.1516,8.2247,8.2477,8.3247,8.4786,8.4978,8.5363,8.6055,8.6094,0.0,0.0,0.0,8.6094,8.6094,8.6094,8.6094,8.611,8.6225,8.6264,8.628,8.6323,8.6354,8.6354,8.6392,8.6384,8.6384,8.6399,8.6437,8.6414,8.6423,8.5882,8.4995,8.4223,8.3428,8.2772,8.2772,0.0,0.0,8.1473,8.1396,8.1319,8.1319,8.1333,8.136,8.136,8.1349,8.1375,8.1375,8.1472,8.1571,8.1611,8.1718,8.1838,8.1903,8.1909,8.1909,8.1909,8.1909,8.1909,8.1909,8.0962,7.9698,7.8136,7.7904,7.7616,7.6713,7.665,7.665,7.659,0.0,0.0,7.5411,7.3166,7.1731,7.1554,6.8795,6.7169,6.7185,6.8271,6.9557,7.0892,7.2679,7.4617,7.667,7.8611,7.9936,8.0449,7.372,7.3008,0.0,0.0,0.0,0.0,0.0,0.0,0.0,0.0,0.0,0.0,0.0,0.0,0.0,0.0,0.0,7.3129,7.6746,7.9477,8.0669,8.0708,8.0708,8.1054,8.167,8.2131,8.2285,8.3555,8.4555,8.4863,8.5517,8.594,8.6094,8.6094,8.6094,8.6094,8.6094,8.6094,8.6094,8.6094,8.6126,8.6207,8.69,0.0,8.7303,8.7318,8.7318,8.728,8.6678,8.6384,8.6384,8.6457,8.6514,8.6556,8.6428,8.5882,8.5072,8.4918,8.4344,8.3666,8.3666,8.3166,8.251,8.251,8.2046,8.1453,8.1453,8.1535,0.0,8.161,8.1687,8.1766,8.1766,8.1788,8.181,8.1856,8.1844,8.1864,8.1909,8.1909,8.1909,8.1909,8.1909,8.1909,8.1909,8.1143,8.0182,7.9201,7.8488,7.776,7.6864,7.6868,7.6839,7.6683,7.676,7.6496,7.5638,7.4468,7.325,7.1973,7.1928,7.1969,7.1978,7.479,7.5846,7.4836,7.7141,7.792,7.71,8.0184,8.1786,8.1903,8.0786,8.0822,0.0,0.0,0.0,0.0,0.0,0.0,0.0,0.0,0.0,0.0,0.0,6.3101,6.6526,0.0,7.3822,7.6784,7.9054,8.0592,8.1054,8.1093,8.1246,8.1631,8.2054,8.2631,8.3516,8.4401,8.5093,8.5478,8.5863,8.6094,8.6094,8.6094,8.6094,8.6094,8.6566,8.6582,8.6159,8.6631,8.6855,8.6902,8.7326,8.7819,8.8236,8.8281,8.8296,8.8296,8.7954,8.7814,8.7775,8.7354,8.6956,8.6596,8.6528,8.623,8.5843,8.5843,8.533,8.4611,8.4672,8.4188,8.3497,8.3107,8.2718,8.229,8.1815,8.1761,8.1797,8.1797,8.1856,8.1909,8.1909,8.1956,8.1997,8.1997,8.2031,8.2098,8.2098,8.2098,8.2098,8.2098,8.2098,8.2098,8.2098,8.175,8.1152,8.025,7.9775,7.9095,7.7804,7.771,7.7558,7.7017,7.7,7.6857,7.6427,7.5997,7.5418,7.4648,7.4998,7.5467,7.5898,7.7538,7.8437,7.8437,7.9687,8.0351,8.039,8.2109,8.3398,8.4258,8.4497,8.4615,0.0,0.0,0.0,0.0,0.0,0.0,0.0,5.7396,5.9435,6.3012,6.659,6.9975,7.2899,7.5245,7.7476,7.9708,8.0631,8.1093,8.1093,8.1093,8.14,8.2208,8.2439,8.3093,8.4516,8.4939,8.5401,8.6055,8.6094,8.617,8.6324,8.6379,8.6456,8.6627,8.7363,8.7333,8.6485,8.7241,8.7619,8.7634,8.7788,8.8343,8.9184,8.9243,8.9272,8.9272,8.9212,8.9085,8.8892,8.821,8.7423,8.6649,8.666,8.6684,8.6684,8.6674,8.6221,8.5634,8.5748,8.526,8.447,8.3707,8.3357,8.3046,8.2149,8.1927,8.1945,8.1945,8.1961,8.1982,8.1982,8.2074,8.2154,8.2154,8.2218,8.2304,8.2304,8.2304,8.2304,8.2304,8.2304,8.2304,8.2304,8.2304,8.1951,8.0988,8.0931,8.039,7.8711,7.8633,7.8398,7.7539,7.7578,7.7695,7.7695,7.7695,7.7695,7.7695,7.7851,7.8242,7.8945,7.914,7.9883,8.1211,8.1406,8.2187,8.3594,8.3945,8.4844,8.6211,8.6367,8.6445,4.9288,5.1202,5.3885,5.8511,5.8627,6.0127,0.0,7.009,6.9321,7.3437,7.5284,7.6476,7.7592,7.8669,7.9708,8.0785,8.1054,8.1093,8.1093,8.1093,8.14,8.2208,8.2978,8.3516,8.3708,8.5093,8.6017,8.6094,8.6094,8.644,8.7209,8.733,8.7725,8.8457,8.8652,8.8313,8.7449,8.7526,8.7649,8.7799,8.8495,8.9349,9.0218,9.0232,9.0232,9.0193,8.9511,8.8776,8.8054,8.8057,8.7562,8.6767,8.6903,8.6965,8.6942,8.6826,8.6795,8.6809,8.6831,8.6292,8.5481,8.4637,8.3825,8.3046,8.2149,8.1982,8.2085,8.2085,8.2164,8.2263,8.2263,8.2264,8.2265,8.2265,8.2304,8.2304,8.2304,8.2304,8.2304,8.2304,8.2304,8.2304,8.2304,8.2304,8.1992,8.1093,8.0976,8.039,7.8711,7.9101,7.9258,7.8437,7.8984,7.9414,7.9414,7.9414,7.9414,7.9414,8.0156,8.0625,8.0703,8.1445,8.1953,8.2148,8.289,8.3398,8.3594,8.5156,8.6015,8.6211,8.6992,8.7344,5.6989,5.8896,6.0704,6.432,6.6205,6.8359,7.2937,7.3668,7.413,7.6899,7.8554,7.9592,7.9939,8.0323,8.0669,8.1054,8.1093,8.1093,8.1093,8.1093,8.1054,8.0862,8.2016,8.3247,8.4247,8.4978,8.5593,8.6055,8.6605,8.7061,8.7446,8.7526,8.7958,8.8807,8.8922,8.8542,8.7732,8.8741,8.9016,8.8618,8.943,9.0295,9.1174,9.1174,9.1174,9.1111,9.0339,8.9547,8.8755,8.8389,8.7689,8.6919,8.6987,8.7064,8.7107,8.6979,8.6957,8.7027,8.7097,8.6575,8.5804,8.499,8.4146,8.3287,8.2386,8.2168,8.2217,8.2217,8.2263,8.2304,8.2304,8.2304,8.2304,8.2304,8.2304,8.2304,8.2304,8.2304,8.2304,8.2304,8.2304,8.2304,8.2304,8.2304,8.2187,8.1797,8.1758,8.1328,8.0117,8.0234,8.0117,7.9297,7.9492,7.9922,8.039,8.0469,8.0664,8.1172,8.1562,8.1758,8.1758,8.2109,8.2304,8.2304,8.3164,8.3867,8.4375,8.5586,8.6445,8.6953,8.7344,8.75,6.1666,6.3935,6.6013,6.9052,7.2206,7.4668,7.513,7.6361,7.7746,7.8977,8.0208,8.1016,8.0785,8.0939,8.1016,8.0785,8.0939,8.1093,8.1093,8.09,8.0592,8.0238,8.1047,8.2332,8.408,8.4449,8.4895,8.5742,8.6438,8.7025,8.7487,8.7603,8.815,8.9246,8.9127,8.877,8.819,8.9444,8.9782,8.9201,9.0014,9.0865,9.1716,9.1759,9.1799,9.1757,9.1265,9.0441,8.941,8.8916,8.8077,8.7069,8.7102,8.7194,8.7272,8.7178,8.7156,8.7165,8.7264,8.673,8.5915,8.5155,8.4297,8.3437,8.2578,8.2304,8.2304,8.2304,8.2304,8.2304,8.2304,8.2304,8.2304,8.2304,8.2304,8.2304,8.2304,8.2304,8.2304,8.2304,8.2304,8.2304,8.2304,8.2304,8.2304,8.2304,8.2304,8.1992,8.1094,8.1015,8.0859,8.0469,8.0429,8.0664,8.1289,8.1367,8.164,8.2265,8.2304,8.2304,8.2304,8.2304,8.2304,8.2304,8.3398,8.4258,8.4883,8.6015,8.6875,8.75,8.75,8.75,6.105,6.3858,6.8052,7.2283,7.5284,7.7592,7.9246,8.0285,8.0977,8.1016,8.1054,8.0823,8.0015,8.0516,8.0823,7.9977,8.0554,8.1093,8.1093,8.0362,8.0161,8.1045,8.0468,8.0704,8.2511,8.334,8.4104,8.4951,8.5143,8.5882,8.7488,8.7732,8.8548,9.0209,8.9585,8.9163,8.9163,8.9201,8.9201,8.9201,9.0014,9.0865,9.1691,9.1832,9.1976,9.2104,9.2073,9.1137,8.9586,8.971,8.8731,8.7219,8.7416,8.75,8.75,8.75,8.7461,8.75,8.75,8.6914,8.6054,8.5195,8.4297,8.3437,8.2578,8.2304,8.2304,8.2304,8.2304,8.2304,8.2304,8.2304,8.2304,8.2304,8.2304,8.2304,8.2304,8.2304,8.2304,8.2304,8.2304,8.2304,8.2304,8.2304,8.2304,8.2304,8.2304,8.1992,8.1094,8.1015,8.1328,8.2148,8.2226,8.2226,8.2265,8.2265,8.2265,8.2304,8.2304,8.2304,8.2304,8.2304,8.2304,8.2304,8.3984,8.4883,8.4883,8.6601,8.7461,8.75,8.75,8.75,6.5166,6.8552,7.2091,7.5245,7.7515,7.9246,8.04,8.09,8.0939,8.0362,7.9361,7.8323,7.7438,7.7515,7.7823,7.8092,7.9323,8.0454,8.1092,8.09,8.066,8.0425,8.067,8.0839,8.0867,8.215,8.3562,8.495,8.5642,8.6535,8.7654,8.8359,8.9251,9.032,8.9613,8.9472,8.9975,9.0014,9.0014,9.0014,9.0933,9.1611,9.1986,9.2009,9.2067,9.2087,9.1627,9.111,9.0534,8.9471,8.8704,8.8159,8.7695,8.75,8.75,8.75,8.75,8.75,8.75,8.6914,8.6054,8.5195,8.4297,8.3437,8.2578,8.2304,8.2304,8.2304,8.2304,8.2304,8.2304,8.2304,8.2304,8.2304,8.2304,8.2304,8.2304,8.2304,8.2304,8.2304,8.2304,8.2304,8.2304,8.2304,8.2304,8.2304,8.2304,8.2187,8.1914,8.1875,8.1953,8.2265,8.2304,8.2304,8.2304,8.2304,8.2304,8.2304,8.2304,8.2304,8.2304,8.2304,8.2578,8.3164,8.4297,8.5195,8.5781,8.6914,8.75,8.75,8.75,8.75,6.909,7.2052,7.4707,7.7861,7.9477,8.04,8.0977,8.0631,7.9823,7.8669,7.7092,7.5476,7.4014,7.3976,7.4668,7.613,7.7553,7.9084,8.093,8.0945,8.0666,8.0509,8.0985,8.1269,8.1026,8.203,8.3214,8.4575,8.5534,8.6581,8.7779,8.84,8.924,9.0362,8.9317,8.9279,9.04,9.0159,9.0376,9.1001,9.1656,9.2051,9.2195,9.2195,9.2217,9.2256,9.1835,9.146,9.1072,9.0076,8.9258,8.8633,8.8125,8.7734,8.75,8.75,8.75,8.75,8.75,8.6914,8.6054,8.5195,8.4297,8.3437,8.2578,8.2304,8.2304,8.2304,8.2304,8.2304,8.2304,8.2304,8.2304,8.2304,8.2304,8.2304,8.2304,8.2304,8.2304,8.2304,8.2304,8.2304,8.2304,8.2304,8.2304,8.2304,8.2304,8.2304,8.2304,8.2304,8.2304,8.2304,8.2304,8.2304,8.2304,8.2304,8.2304,8.2304,8.2304,8.2304,8.2304,8.2617,8.3047,8.3594,8.4765,8.5625,8.6211,8.707,8.75,8.75,8.75,8.75,7.2514,7.4322,7.6015,8.0092,8.1093,8.1093,8.0977,7.9631,7.7861,7.6092,7.4361,7.2322,6.9783,7.0129,7.1591,7.4053,7.5399,7.7314,8.0713,8.0535,8.0386,8.1349,8.153,8.1904,8.278,8.2896,8.3218,8.3925,8.4752,8.5991,8.7718,8.7873,8.866,9.0312,8.8789,8.8764,9.048,8.9809,9.0331,9.2054,9.2054,9.2162,9.2333,9.2372,9.248,9.2617,9.2539,9.207,9.1289,9.1211,9.0195,8.8711,8.8633,8.8164,8.75,8.75,8.75,8.75,8.75,8.6953,8.6133,8.5195,8.4336,8.3515,8.2578,8.2304,8.2304,8.2304,8.2304,8.2304,8.2304,8.2304,8.2304,8.2304,8.2304,8.2304,8.2304,8.2304,8.2304,8.2304,8.2304,8.2304,8.2304,8.2304,8.2304,8.2304,8.2304,8.2304,8.2304,8.2304,8.2304,8.2304,8.2304,8.2304,8.2304,8.2304,8.2304,8.2304,8.2304,8.2304,8.2304,8.3125,8.3633,8.3672,8.5312,8.6211,8.6289,8.7109,8.75,8.75,8.75,8.75,7.4745,7.7361,7.9746,8.0823,8.1093,8.0746,7.9438,7.7861,7.5784,7.2822,6.986,6.7051,6.4512,6.6782,6.9488,7.0825,7.4907,7.8739,8.101,8.1733,8.2082,8.2394,8.3025,8.3502,8.3747,8.4327,8.474,8.492,8.4624,8.514,8.6842,8.7538,8.8443,8.9615,8.9227,8.9856,9.1642,9.0906,9.0814,9.1358,9.1358,9.1438,9.1598,9.2262,9.2577,9.2578,9.1914,9.1523,9.1211,8.9883,8.9101,8.8633,8.8047,8.7695,8.75,8.75,8.75,8.75,8.75,8.7344,8.6914,8.539,8.4765,8.4297,8.2773,8.2304,8.2304,8.2304,8.2304,8.2304,8.2304,8.2304,8.2304,8.2304,8.2304,8.2304,8.2304,8.2304,8.2304,8.2304,8.2304,8.2304,8.2304,8.2304,8.2304,8.2304,8.2304,8.2304,8.2304,8.2304,8.2304,8.2304,8.2304,8.2304,8.2304,8.2304,8.2304,8.2304,8.2304,8.2304,8.2304,8.3125,8.3906,8.457,8.5625,8.6523,8.7187,8.7383,8.75,8.75,8.75,8.75,7.713,7.9361,8.1093,8.1093,8.0516,7.9323,7.6861,7.4437,7.1398,6.6821,6.4128,6.1666,5.8742,6.1997,6.5767,6.7819,7.2816,7.7458,8.0421,8.1903,8.2754,8.2859,8.3967,8.4738,8.4844,8.5243,8.566,8.6009,8.5574,8.5855,8.7212,8.7769,8.8507,8.9445,8.9484,9.0003,9.1075,9.1036,9.0851,9.0607,9.0607,9.0656,9.0742,9.164,9.1836,9.1445,9.1367,9.1094,9.0664,8.9687,8.9062,8.8672,8.8203,8.7812,8.75,8.75,8.75,8.75,8.75,8.75,8.7226,8.5469,8.4883,8.457,8.2812,8.2304,8.2304,8.2304,8.2304,8.2304,8.2304,8.2304,8.2304,8.2304,8.2304,8.2304,8.2304,8.2304,8.2304,8.2304,8.2304,8.2304,8.2304,8.2303,8.2302,8.2302,8.2302,8.2302,8.2302,8.2304,8.2304,8.2304,8.2304,8.2304,8.2304,8.2304,8.2461,8.2851,8.2851,8.3047,8.3437,8.4297,8.4961,8.5469,8.6328,8.6992,8.75,8.75,8.75,8.75,8.75,8.75,7.9361,8.0516,8.1054,8.0977,7.9554,7.7246,7.3783,7.0167,6.5936,6.0165,5.8165,5.6511,5.3444,5.7076,6.1742,6.5273,7.0168,7.5105,7.952,8.1633,8.284,8.3154,8.4659,8.5771,8.5955,8.5968,8.6241,8.6936,8.7028,8.7282,8.7915,8.818,8.8689,8.9606,8.9865,9.0043,9.0156,9.082,9.0762,9.0,9.0,8.9922,8.9843,9.0742,9.0703,9.0039,9.0664,9.0546,8.9804,8.9687,8.9218,8.8515,8.8515,8.8086,8.75,8.75,8.75,8.75,8.75,8.75,8.7187,8.5469,8.4883,8.457,8.2812,8.2304,8.2304,8.2304,8.2304,8.2304,8.2304,8.2304,8.2304,8.2304,8.2304,8.2304,8.2304,8.2304,8.2304,8.2304,8.2303,8.2301,8.2301,8.2296,8.2292,8.2292,8.2292,8.2292,8.2292,8.2301,8.2304,8.2304,8.2304,8.2343,8.2461,8.2461,8.2851,8.3711,8.3789,8.4101,8.4883,8.5702,8.6171,8.6171,8.6989,8.7418,8.7418,8.7459,8.746,8.746,8.75,8.7578,8.0554,8.0977,8.0939,8.0208,7.8207,7.5361,7.1283,6.6628,6.1897,5.728,5.4587,5.2636,5.1366,5.5314,6.0134,6.4409,6.9363,7.4491,7.9621,8.1834,8.3271,8.4154,8.5733,8.6753,8.678,8.678,8.6858,8.6975,8.776,8.7916,8.7213,8.7897,8.8746,8.9731,9.1267,9.2105,9.2108,9.1561,9.0858,9.0,9.0,8.9609,8.8943,8.9841,9.0152,8.9952,8.9405,8.9053,8.8858,8.8155,8.7764,8.7647,8.7647,8.753,8.7413,8.7413,8.7413,8.7413,8.7413,8.7413,8.7141,8.5468,8.4883,8.457,8.2812,8.2304,8.2304,8.2304,8.2304,8.2304,8.2303,8.2303,8.2301,8.2297,8.2296,8.2296,8.2296,8.2296,8.2296,8.2296,8.2295,8.2295,8.2295,8.2293,8.2292,8.2292,8.2292,8.2292,8.2292,8.2295,8.2296,8.2296,8.2296,8.2609,8.331,8.3389,8.3743,8.4607,8.4685,8.4725,8.4883,8.5649,8.602,8.602,8.6736,8.7081,8.7081,8.7202,8.7269,8.7269,8.7418,8.7851,8.0862,8.1093,8.09,8.0015,7.7246,7.3245,6.7628,6.2781,5.7868,5.2271,5.05,4.9595,4.8339,5.2655,5.739,6.0423,6.5238,7.0787,7.6872,7.929,8.1421,8.4249,8.6097,8.713,8.7251,8.7255,8.7255,8.7255,8.8531,8.8837,8.7819,8.8681,8.9615,9.0535,9.1444,9.1914,9.1914,9.1054,9.039,8.9999,8.9061,8.8669,8.8702,8.9133,8.9092,8.8658,8.8697,8.8424,8.7994,8.7565,8.7408,8.7408,8.7408,8.7408,8.7408,8.7408,8.7408,8.7408,8.7408,8.7408,8.7176,8.5932,8.5504,8.5192,8.3472,8.2965,8.2886,8.2419,8.2301,8.2301,8.2299,8.2297,8.2297,8.2293,8.2292,8.2292,8.2292,8.2292,8.2292,8.2292,8.2289,8.2285,8.2285,8.232,8.2315,8.2315,8.2315,8.2266,8.2152,8.2144,8.217,8.229,8.2193,8.2485,8.338,8.3341,8.3825,8.5122,8.52,8.5405,8.5886,8.6228,8.6434,8.6434,8.6721,8.6919,8.6919,8.6949,8.698,8.698,8.7078,8.7603,8.0592,8.0977,8.0785,7.9554,7.6092,7.1168,6.432,5.9369,5.4426,4.8179,4.7311,4.7345,4.6237,5.0032,5.4202,5.6875,6.1074,6.6623,7.4077,7.6657,7.952,8.4182,8.6062,8.7131,8.7461,8.75,8.7578,8.7734,8.9336,8.9919,8.9151,8.9839,9.0508,9.1015,9.1211,9.1211,9.1015,9.0351,8.9999,8.9994,8.8432,8.8038,8.8694,8.8498,8.8069,8.7442,8.8106,8.8028,8.7403,8.7403,8.7403,8.7403,8.7403,8.7403,8.7403,8.7403,8.7403,8.7403,8.7403,8.7403,8.7286,8.6581,8.6233,8.5807,8.4128,8.362,8.3425,8.2565,8.2292,8.2292,8.229,8.229,8.2289,8.2287,8.2287,8.2287,8.2287,8.2287,8.2287,8.2287,8.2318,8.231,8.231,8.2251,8.223,8.223,8.2214,8.2094,8.1961,8.1941,8.2005,8.2163,8.2036,8.2368,8.342,8.3353,8.3982,8.5663,8.578,8.61,8.6778,8.6783,8.6756,8.6756,8.6719,8.669,8.669,8.6738,8.6756,8.6756,8.6994,8.7556,7.9669,8.0516,8.0516,7.813,7.4322,6.936,6.2589,5.7198,5.2339,4.7841,4.6381,4.6159,4.6913,4.8102,5.0862,5.662,5.9249,6.3823,7.3165,7.5993,7.9028,8.4256,8.5702,8.6601,8.7422,8.75,8.7812,8.8515,9.0195,9.1133,9.1054,9.1133,9.0859,9.0156,9.0898,9.0937,9.0114,9.0036,8.9994,8.9986,8.905,8.8616,8.8683,8.7863,8.7465,8.7411,8.7489,8.7489,0.0,8.7411,8.7411,8.7411,8.7411,8.7411,8.7411,8.7411,8.7411,8.7411,8.7411,8.7411,8.7372,8.7294,8.6767,8.5807,8.4128,8.362,8.3425,8.2565,8.2292,8.229,8.232,8.2315,8.2313,8.2299,8.2296,8.2296,8.2296,8.2296,8.2296,8.2296,8.2296,8.2293,8.2293,8.2153,8.2044,8.2044,8.1851,8.1744,8.1726,8.1726,8.1735,8.1761,8.1744,8.2396,8.3998,8.4087,8.4835,8.6553,8.6669,8.6735,8.6817,8.6679,8.6611,8.6611,8.6494,8.6433,8.6433,8.6582,8.6611,8.6661,8.7545,8.8404,7.763,7.89,7.9054,7.7015,7.3322,6.8424,6.1687,5.6628,5.2034,4.7327,4.6108,4.6035,4.6449,4.7198,4.9231,5.3788,5.5128,5.8565,6.7066,6.9786,7.3433,8.0234,8.2695,8.4804,8.7265,8.75,8.7812,8.8633,8.9336,8.9961,9.0506,9.1015,9.0898,9.0038,9.035,9.0349,8.9992,8.9483,8.948,8.9976,8.857,8.8173,8.8666,8.7807,8.7414,8.7404,8.7404,8.7404,0.0,8.7404,8.7404,8.7404,8.7404,8.7404,8.7404,8.7404,8.7404,8.7404,8.7404,8.7404,8.7329,8.6783,8.6363,8.5864,8.4692,8.395,8.3365,8.2545,8.231,8.231,8.2302,8.2302,8.2299,8.2293,8.2293,8.2293,8.2293,8.2293,8.2293,8.2293,8.2218,8.2138,8.2138,8.1955,8.1812,8.1812,8.1744,8.165,8.1525,8.1503,8.1484,8.1363,8.1449,8.2007,8.313,8.3605,8.4364,8.5589,8.6092,8.6376,8.6377,8.6346,8.6312,8.6312,8.6269,8.623,8.623,8.6253,8.6583,8.7084,8.7483,8.8375,7.4784,7.6553,7.6976,7.5284,7.1915,6.7215,6.049,5.593,5.1748,4.6994,4.6025,4.6052,4.6125,4.6596,4.8041,5.1297,5.2271,5.5335,6.3147,6.5778,6.9609,7.6875,7.9531,8.2148,8.5625,8.7109,8.7968,8.8281,8.8788,8.9139,8.9213,9.0075,9.0232,8.9643,8.9604,8.9483,8.924,8.8616,8.8766,8.9612,8.8128,8.7846,8.8657,8.7798,8.7404,8.7404,8.7404,8.7404,0.0,8.7404,8.7404,8.7404,8.7404,8.7404,8.7404,8.7404,8.7404,8.7404,8.7404,8.7212,8.69,8.6314,8.5768,8.5221,8.4597,8.3972,8.3347,8.2528,8.2293,8.2293,8.2293,8.2293,8.2293,8.2293,8.2237,8.2218,8.2218,8.2157,8.2138,8.2138,8.1993,8.1927,8.1927,8.1744,8.161,8.161,8.1547,8.1484,8.1336,8.131,8.1267,8.1124,8.1224,8.1658,8.2455,8.3194,8.3978,8.4863,8.567,8.6094,8.6094,8.6094,8.6094,8.6094,8.6094,8.6094,8.6094,8.6363,8.6786,8.7401,8.7902,8.8902,7.1091,7.3476,7.4361,7.2668,6.9757,6.5554,5.8749,5.4749,5.1201,4.6878,4.6049,4.6122,4.6175,4.6222,4.7092,4.9804,5.1601,5.539,6.3203,6.5781,6.914,7.5195,7.6719,7.8594,8.2031,8.6209,8.8317,8.7496,8.9014,8.9246,8.7526,8.8269,8.8738,8.8699,8.8699,8.8303,8.7431,8.7431,8.7852,8.8696,8.7837,8.7876,8.8657,8.7798,8.7404,8.7404,8.7404,8.7404,0.0,8.7404,8.7404,8.7404,8.7404,8.7404,8.7404,8.7404,8.7404,8.7404,8.7404,8.6822,8.6119,8.608,8.4948,8.3543,8.3504,8.3504,8.3347,8.2528,8.2293,8.2293,8.2293,8.2293,8.2293,8.2293,8.2153,8.1993,8.1993,8.1836,8.1708,8.1708,8.1698,8.1698,8.1698,8.1525,8.14,8.14,8.1224,8.1108,8.1093,8.1093,8.1093,8.1093,8.1093,8.1439,8.2208,8.3093,8.3978,8.4863,8.567,8.6094,8.6094,8.6094,8.6094,8.6094,8.6094,8.6094,8.6094,8.6978,8.7401,8.744,8.9094,9.0364,6.3012,6.5166,6.6359,6.4089,6.2386,5.9994,5.4992,5.2674,5.0576,4.6962,4.6234,4.6241,4.6247,4.6286,4.7889,5.289,5.4141,5.6562,6.2578,6.6406,7.0195,7.4492,8.0429,8.4607,8.5662,8.7026,8.7686,8.7413,8.7918,8.7992,8.7438,8.7672,8.7828,8.7828,8.7828,8.7665,8.7414,8.7414,8.7528,8.7798,8.7525,8.7525,8.7798,8.7525,8.7404,8.7404,8.7404,8.7404,8.7404,8.7404,8.7404,8.7404,8.7404,8.7404,8.7404,8.7404,8.7404,8.7404,8.7404,8.7212,8.6783,8.5612,8.4831,8.4157,8.285,8.2565,8.2596,8.2221,8.1987,8.1905,8.1905,8.1905,8.1905,8.1905,8.1828,8.1787,8.1787,8.1744,8.1698,8.1698,8.1579,8.1469,8.1469,8.1323,8.1167,8.1167,8.1116,8.1093,8.1093,8.1093,8.1093,8.1093,8.1093,8.1208,8.1477,8.2247,8.3093,8.3939,8.4824,8.5517,8.6094,8.6094,8.6094,8.6094,8.6094,8.6094,8.6094,8.6978,8.7979,8.9133,9.0248,9.0941,5.7242,5.9491,6.0614,5.9016,5.7886,5.6265,5.2669,5.1076,4.9584,4.6873,4.6289,4.6289,4.6289,4.6289,4.7734,5.2187,5.3672,5.6133,6.1289,6.5742,7.0234,7.4999,8.1443,8.5621,8.5931,8.6823,8.7403,8.7403,8.7399,8.7392,8.7384,8.7384,8.7384,8.7384,8.7384,8.7417,8.7407,8.7404,8.7404,8.7404,8.7404,8.7404,8.7404,8.7404,8.7404,8.7404,8.7404,8.7404,0.0,8.7404,8.7404,8.7404,8.7404,8.7212,8.6939,8.729,8.7173,8.6978,8.729,8.7151,8.658,8.5136,8.4215,8.3426,8.2245,8.1968,8.2056,8.1934,8.1787,8.1698,8.1698,8.1698,8.1698,8.1698,8.164,8.1579,8.1579,8.1553,8.1484,8.1484,8.135,8.1269,8.1269,8.1191,8.1093,8.1093,8.1093,8.1093,8.1093,8.1093,8.1093,8.1093,8.1093,8.1208,8.1516,8.2016,8.267,8.3516,8.4439,8.5247,8.6055,8.6094,8.6094,8.6094,8.6094,8.6094,8.6094,8.7325,8.8748,9.0402,9.0941,9.121,0.0,5.5586,5.6364,5.633,5.532,5.374,5.1398,4.9778,0.0,4.664,4.6289,4.6367,4.6523,4.6484,4.7109,4.9297,5.168,5.5039,6.0156,6.4805,7.0195,7.6949,8.0659,8.2961,8.3774,8.5991,8.7389,8.7389,8.7414,8.7404,8.7404,8.7404,8.7404,8.7404,8.7404,8.7404,8.7404,8.7404,8.7404,8.7404,8.7404,8.7404,8.7404,8.7404,8.7404,8.7404,8.7404,8.7404,8.7404,8.7404,8.7368,8.7329,8.7329,8.6783,8.6119,8.6939,8.6705,8.6119,8.6932,8.6527,8.5572,8.4669,8.3159,8.1679,8.1679,8.1679,8.1679,8.1679,8.167,8.165,8.165,8.165,8.165,8.165,8.1491,8.1362,8.1362,8.1224,8.1093,8.1093,8.1093,8.1093,8.1093,8.1093,8.1093,8.1093,8.1093,8.1093,8.1093,8.1093,8.1093,8.1093,8.1093,8.14,8.2131,8.2285,8.2708,8.3632,8.4439,8.5247,8.6055,8.6094,8.6094,8.6094,8.6094,8.617,8.6286,8.7902,8.9556,9.121,9.121,9.121,4.5648,0.0,4.835,4.7771,4.7933,4.8025,0.0,4.7603,4.7617,4.6523,4.6289,4.6914,4.8906,4.8203,4.9375,5.5742,5.7812,6.0195,6.4726,7.1327,7.7536,8.2496,8.4948,8.6266,8.6498,8.7032,8.7411,8.7411,8.7407,8.7404,8.7404,8.7404,8.7404,8.7404,8.7404,8.7404,8.7404,8.7404,8.7404,8.7404,8.7404,8.7404,8.7404,8.7404,8.7404,8.7404,8.7404,8.7404,8.7404,8.7404,8.7017,8.6392,8.6392,8.5885,8.5143,8.5338,8.5299,8.5094,8.5146,8.5019,8.4624,8.361,8.2456,8.1484,8.1484,8.1484,8.1484,8.1484,8.1375,8.1239,8.1239,8.1239,8.1239,8.1239,8.1181,8.1176,8.1176,8.1154,8.1093,8.1093,8.1093,8.1093,8.1093,8.1093,8.1093,8.1093,8.1093,8.1093,8.1093,8.1093,8.1093,8.1093,8.1093,8.117,8.1362,8.1939,8.2978,8.4516,8.4786,8.5247,8.6055,8.6094,8.6094,8.6094,8.6094,8.6748,8.8094,8.8479,8.9556,9.121,9.121,9.121,4.2144,4.4646,4.7014,4.6625,4.725,4.7991,4.7995,4.7458,4.6875,4.6406,4.6289,4.6992,4.9219,4.9141,5.082,5.6992,5.9336,6.2734,6.9491,7.5388,8.0463,8.4403,8.5995,8.696,8.7342,8.7411,8.7404,8.7404,8.7404,8.7404,8.7404,8.7404,8.7404,8.7404,8.7404,8.7404,8.7404,8.7404,8.7404,8.7404,8.7404,8.7404,8.7404,8.7404,8.7404,8.7404,8.7404,8.7173,8.6783,8.6783,8.6275,8.5495,8.5495,8.4987,8.4242,8.4555,8.4425,8.4093,8.4285,8.4021,8.3524,8.2825,8.202,8.128,8.128,8.128,8.128,8.128,8.1191,8.1093,8.1093,8.1093,8.1093,8.1093,8.1093,8.1093,8.1093,8.1093,8.1093,8.1093,8.1093,8.1093,8.1093,8.1093,8.1093,8.1093,8.1093,8.1093,8.1093,8.1093,8.1093,8.1093,8.1093,8.1246,8.1631,8.2054,8.2862,8.4209,8.4286,8.4824,8.6055,8.6094,8.6094,8.6094,8.6094,8.6748,8.8094,8.8517,8.9363,9.0633,9.1018,9.121,4.1412,4.5281,4.8928,4.8127,4.8973,4.996,4.9844,4.8086,4.6523,4.668,4.6797,4.75,4.9492,5.0586,5.2656,5.7226,6.0469,6.5429,7.4138,7.8003,8.1084,8.4231,8.54,8.6251,8.7134,8.7212,8.7251,8.7407,8.7404,8.7404,8.7404,8.7404,8.7404,8.7404,8.7404,8.7404,8.7404,8.7404,8.7404,8.7404,8.7404,8.7404,8.7404,8.7251,8.7212,8.7173,8.7056,0.0,8.5885,8.5885,8.5377,8.4593,8.4583,8.4033,8.3323,8.3882,8.3597,8.3063,8.36,8.3142,8.2341,8.2186,8.167,8.1093,8.1093,8.1093,8.1093,8.1093,8.1093,8.1093,8.1093,8.1093,8.1093,8.1093,8.1093,8.1093,8.1093,8.1093,8.1093,8.1093,8.1093,8.1093,8.1093,8.1093,8.1093,8.1093,8.1093,8.1093,8.1093,8.1093,8.1093,8.1093,8.1093,8.1362,8.2054,8.2131,8.2477,8.3362,8.3632,8.4478,8.6055,8.6094,8.6094,8.6094,8.6094,8.6517,8.7401,8.8248,8.9094,8.994,9.0787,9.121,4.357,4.7606,4.9951,4.5576,4.6795,4.8906,4.8164,4.7695,4.7617,4.8359,4.9101,5.0586,5.3711,5.5039,5.75,6.3281,6.8202,7.3083,7.82,7.9988,8.1537,8.3565,8.4492,8.5342,8.6197,8.6314,8.6627,8.7329,8.7404,8.7404,8.7404,8.7404,8.7404,8.7404,8.7404,8.7404,8.7404,8.7404,8.7404,8.7404,8.7404,8.7404,8.7368,8.6627,8.6314,8.6275,0.0,8.5104,8.4987,8.4987,8.448,8.3692,8.3498,8.2953,8.2239,8.2162,8.2055,8.1911,8.1852,8.1619,8.1323,8.1301,8.1208,8.1093,8.1093,8.1093,8.1093,8.1093,8.1093,8.1093,8.1093,8.1093,8.1093,8.1093,8.1093,8.1093,8.1093,8.1093,8.1093,8.1093,8.1093,8.1093,8.1093,8.1093,8.1093,8.1093,8.1093,8.1093,8.1093,8.1093,8.1093,8.1093,8.1093,8.1131,8.1285,8.1285,8.1631,8.2439,8.3862,8.5132,8.6055,8.6094,8.6094,8.6094,8.6094,8.6517,8.7401,8.8248,8.9094,8.994,9.0787,9.121,4.178,4.5737,4.8786,4.6403,4.9804,5.3672,5.3242,5.207,5.1172,5.1562,5.1953,5.3164,5.6133,5.7773,6.0937,6.7929,7.3003,7.6905,7.9361,8.0445,8.1647,8.3359,8.3858,8.4441,8.5299,8.5416,8.5573,8.5963,8.6002,8.6002,8.6002,8.6002,8.6002,8.6002,8.6002,8.6002,8.6002,8.6002,8.6236,8.6705,8.6236,8.6002,8.5963,8.5573,8.5416,8.5377,0.0,8.4519,8.4086,8.3961,8.3435,8.2684,8.2472,8.2178,8.1804,8.161,8.1472,8.1375,8.128,8.1176,8.1093,8.1093,8.1093,8.1093,8.1093,8.1093,8.1093,8.1093,8.1093,8.1093,8.1093,8.1093,8.1093,8.1093,8.1093,8.1093,8.1093,8.1093,8.1093,8.1093,8.1093,8.1093,8.1093,8.1093,8.1093,8.1093,8.1093,8.1093,8.1093,8.1093,8.1093,8.1093,8.1093,8.1093,8.1093,8.1093,8.1631,8.2901,8.4209,8.5247,8.6055,8.6094,8.6094,8.6094,8.6094,8.6286,8.6709,8.8055,8.8902,8.9286,9.0594,9.121,4.0806,4.4136,4.7538,4.8554,5.2461,5.6406,5.7617,5.6055,5.4648,5.5859,5.6289,5.7031,5.9023,6.1445,6.5273,7.1833,7.6358,7.9317,8.0207,8.0866,8.1798,8.3074,8.323,8.3543,8.4401,8.4519,8.4597,8.4792,8.4792,8.4792,8.4792,8.4792,8.4792,8.4792,8.4792,8.4792,8.4792,8.4597,8.4948,8.5807,8.5104,8.4792,8.4792,8.4597,8.4519,8.448,8.4284,8.3806,8.3124,8.2964,8.2513,8.1927,8.1708,8.1589,8.1525,8.1375,8.1224,8.1093,8.1093,8.1093,8.1093,8.1093,8.1093,8.1093,8.1093,8.1093,8.1093,8.1093,8.1093,8.1093,8.1093,8.1093,8.1093,8.1093,8.1093,8.1093,8.1093,8.1093,8.1093,8.1093,8.1093,8.1093,8.1093,8.1093,8.1093,8.1093,8.1093,8.1093,8.1093,8.1093,8.1093,8.1093,8.1093,8.1093,8.1093,8.1093,8.1747,8.3208,8.4324,8.5247,8.6055,8.6094,8.6094,8.6094,8.6094,8.6094,8.6094,8.7632,8.8479,8.8748,9.021,9.1018,4.3552,4.5506,4.7342,5.1328,5.1523,5.1992,5.6797,5.6484,5.6562,6.1367,6.3008,6.3633,6.3789,6.785,7.2146,7.5114,7.8541,8.1105,8.2003,8.2185,8.2254,8.2371,8.2371,8.2684,8.3504,8.3582,8.3933,8.4753,8.4792,8.4792,8.4792,8.4792,8.4792,8.4792,8.4792,8.4792,8.4792,8.4011,8.4011,8.4909,8.4831,8.4792,8.4753,8.3972,8.3582,8.3543,8.2801,8.2331,8.2122,8.2071,8.1944,8.1698,8.1519,8.1296,8.1116,8.1139,8.1108,8.1093,8.1093,8.1093,8.1093,8.1093,8.1093,8.1093,8.1093,8.1093,8.1093,8.1093,8.1093,8.1093,8.1093,8.1093,8.1093,8.1093,8.1093,8.1093,8.1093,8.1093,8.1093,8.1093,8.1093,8.1093,8.1093,8.1093,8.1093,8.1093,8.1093,8.1093,8.1093,8.1093,8.1093,8.1093,8.1093,8.1093,8.1093,8.1093,8.1477,8.2324,8.3978,8.5247,8.6055,8.6094,8.6094,8.6094,8.6094,8.6094,8.6094,8.7055,8.7902,8.8709,8.9594,9.0441,4.0428,4.3984,4.7773,5.0469,5.2266,5.4453,5.8515,6.0625,6.2578,6.5625,6.6875,6.7461,6.746,7.0852,7.4085,7.561,7.8723,8.1287,8.2185,8.2296,8.2293,8.2293,8.2293,8.2411,8.2723,8.2762,8.2879,8.323,8.3269,8.3269,8.3269,8.3269,8.3269,8.3269,8.3269,8.3269,8.3269,8.2918,8.2812,8.2931,8.3163,8.312,8.2931,8.258,8.2364,8.2178,8.1859,8.1726,8.1675,8.1553,8.1447,8.1371,8.1119,8.0968,8.0893,8.0893,8.0893,8.0893,8.0893,8.0893,8.0893,8.0893,8.0893,8.0893,8.0893,8.0893,8.0893,8.0893,8.0893,8.0965,8.1061,8.1093,8.1093,8.1093,8.1093,8.1093,8.1093,8.1093,8.1093,8.1093,8.1093,8.1093,8.1093,8.1093,8.1093,8.1093,8.1093,8.1093,8.1093,8.1093,8.1093,8.1093,8.1093,8.1093,8.1093,8.1093,8.1439,8.2247,8.3439,8.4478,8.5324,8.5824,8.6094,8.6094,8.6094,8.6094,8.6094,8.6978,8.7555,8.7902,8.8748,8.9594,3.996,4.3828,4.8164,5.043,5.3594,5.7148,6.1133,6.3906,6.6484,6.957,7.0234,7.0312,7.0582,7.2562,7.4621,7.5989,7.8906,8.1317,8.2176,8.2293,8.2293,8.2293,8.2293,8.2293,8.2293,8.2293,8.2293,8.2293,8.2293,8.2293,8.2293,8.2293,8.2287,8.2277,8.2179,8.2123,8.2104,8.2039,8.1896,8.1687,8.1896,8.189,8.1687,8.1687,8.1561,8.142,8.142,8.1398,8.1352,8.1221,8.1126,8.1051,8.0871,8.0792,8.0792,8.0792,8.0792,8.0792,8.0792,8.0792,8.0792,8.0792,8.0792,8.0792,8.0792,8.0792,8.0792,8.0792,8.0792,8.0826,8.0981,8.1029,8.1061,8.1093,8.1093,8.1093,8.1093,8.1093,8.1093,8.1093,8.1093,8.1093,8.1093,8.1093,8.1093,8.1093,8.1093,8.1093,8.1093,8.1093,8.1093,8.1093,8.1093,8.1093,8.1093,8.1093,8.1323,8.19,8.2708,8.3593,8.4439,8.5286,8.5709,8.5709,8.5978,8.6094,8.6094,8.6709,8.7132,8.7401,8.8017,8.8709,4.3437,4.5625,4.8437,5.1836,5.5351,5.9297,6.4453,6.5625,6.7383,7.3398,7.3241,7.23,7.3154,7.334,7.4152,7.669,7.9296,8.1317,8.2176,8.2293,8.2293,8.2293,8.2293,8.2293,8.2293,8.2293,8.2293,8.2293,8.2293,8.2293,8.229,8.229,8.2273,8.2192,8.1948,8.1781,8.1692,8.1504,8.142,8.142,8.142,8.142,8.142,8.142,8.137,8.137,8.137,8.127,8.1098,8.1098,8.0985,8.0792,8.0792,8.0792,8.0792,8.0792,8.0792,8.0792,8.0792,8.0792,8.0792,8.0792,8.0792,8.0792,8.0792,8.0792,8.0792,8.0792,8.0792,8.0792,8.0792,8.086,8.0943,8.1077,8.1093,8.1093,8.1093,8.1093,8.1093,8.1093,8.1093,8.1093,8.1093,8.1093,8.1093,8.1093,8.1093,8.1093,8.1093,8.1093,8.1093,8.1093,8.1093,8.1093,8.1093,8.1093,8.1093,8.1093,8.1862,8.267,8.3555,8.4439,8.4901,8.4901,8.567,8.6094,8.6094,8.6094,8.6555,8.7401,8.7401,8.7863,4.1289,4.5547,5.0664,5.2305,5.7578,6.3281,6.664,6.8828,7.1328,7.5546,7.55,7.4591,7.4277,7.5165,7.6209,7.699,7.929,8.1317,8.2176,8.2293,8.2293,8.2293,8.2293,8.2293,8.2293,8.2293,8.2293,8.2293,8.2293,8.223,8.2084,8.1984,8.1883,8.1701,8.1582,8.1524,8.1494,8.1441,8.1267,8.1063,8.1063,8.1063,8.1063,8.1063,8.0959,8.0773,8.0773,8.074,8.0745,8.0745,8.0716,8.065,8.0616,8.0598,8.0598,8.0598,8.0598,8.0598,8.0598,8.0598,8.0598,8.0598,8.0598,8.0598,8.0598,8.0598,8.0598,8.0598,8.0598,8.0616,8.0632,8.0685,8.072,8.0843,8.0877,8.0877,8.0877,8.0877,8.0877,8.0877,8.0877,8.0893,8.0959,8.0959,8.0991,8.1077,8.1093,8.1093,8.1093,8.1093,8.1093,8.1093,8.1093,8.1093,8.1093,8.1093,8.1093,8.1093,8.1323,8.1823,8.2631,8.3516,8.4286,8.4901,8.5132,8.5517,8.6094,8.6094,8.6247,8.6478,8.6478,8.694,4.4297,4.8867,5.4062,5.664,6.1094,6.5859,6.9843,7.2187,7.4256,7.6672,7.6194,7.5365,7.5553,7.6131,7.6828,7.7492,7.9522,8.1161,8.1708,8.2098,8.2293,8.2293,8.2293,8.2293,8.2293,8.2226,8.2162,8.2114,8.2034,8.1929,8.1781,8.167,8.1582,8.1447,8.1294,8.1208,8.1156,8.1063,8.0945,8.0734,8.0734,8.0734,8.0734,8.0734,8.066,8.0506,8.0506,8.0505,8.056,8.056,8.056,8.056,8.0525,8.0506,8.0506,8.0506,8.0506,8.0506,8.0506,8.0506,8.0506,8.0506,8.0506,8.0506,8.0506,8.0506,8.0506,8.0506,8.0506,8.0525,8.0542,8.056,8.0596,8.0758,8.0792,8.0792,8.0792,8.0792,8.0792,8.0792,8.0792,8.0809,8.086,8.0877,8.0893,8.0981,8.0997,8.0997,8.0997,8.0991,8.1007,8.1007,8.1077,8.1093,8.1093,8.1093,8.1093,8.1093,8.1093,8.1323,8.1785,8.2631,8.3324,8.3862,8.4555,8.5132,8.5632,8.594,8.6094,8.6094,8.6094,8.6363,4.9883,5.3633,5.7695,6.2773,6.5117,6.7656,7.3199,7.5152,7.6048,7.6931,7.5872,7.5282,7.6831,7.6516,7.6558,7.8155,7.9795,8.0888,8.0888,8.1552,8.2056,8.2049,8.2049,8.2046,8.2117,8.1956,8.1838,8.1764,8.1609,8.1462,8.1386,8.1348,8.1318,8.1259,8.1003,8.0846,8.0778,8.0596,8.0506,8.0506,8.0506,8.0506,8.0506,8.0506,8.0506,8.0506,8.0506,8.0506,8.0506,8.0506,8.0506,8.0506,8.0506,8.0506,8.0506,8.0506,8.0506,8.0506,8.0506,8.0506,8.0506,8.0506,8.0506,8.0506,8.0506,8.0506,8.0506,8.0506,8.0506,8.0506,8.0506,8.0506,8.0562,8.0723,8.0775,8.0775,8.0775,8.0775,8.0775,8.0775,8.0775,8.0775,8.0775,8.0775,8.0775,8.0792,8.0792,8.0792,8.0792,8.086,8.0871,8.0871,8.0991,8.1077,8.1077,8.1077,8.1077,8.1077,8.1077,8.1077,8.1077,8.1785,8.2247,8.2285,8.3862,8.4747,8.4901,8.5632,8.6017,8.6094,8.6094,8.6094,4.7148,5.1406,5.664,6.1133,6.6484,7.1129,7.315,7.424,7.5293,7.6773,7.6802,7.6675,7.7023,7.7492,7.796,7.835,7.9287,7.999,7.999,8.0146,8.0204,8.0051,8.0001,8.024,8.0746,8.0703,8.093,8.1533,8.1494,8.1352,8.1169,8.1063,8.093,8.0762,8.0664,8.0558,8.056,8.0505,8.0506,8.0506,8.0506,8.0506,8.0506,8.0506,8.0506,8.0506,8.0506,8.0506,8.0506,8.0506,8.0506,8.0506,8.0506,8.0506,8.0506,8.0506,8.0506,8.0506,8.0506,8.0506,8.0506,8.0506,8.0506,8.0506,8.0506,8.0506,8.0506,8.0506,8.0506,8.0506,8.0506,8.0506,8.0525,8.0562,8.058,8.058,8.058,8.058,8.058,8.058,8.058,8.0598,8.0632,8.065,8.0667,8.0775,8.0792,8.0792,8.0792,8.0809,8.0826,8.0826,8.0843,8.0843,8.0843,8.0843,8.0843,8.0843,8.0843,8.0877,8.0959,8.1215,8.167,8.2285,8.267,8.3516,8.4901,8.5093,8.5478,8.6094,8.6094,8.6094,4.7851,5.2265,5.7343,6.3279,6.8119,7.1706,7.3026,7.3642,7.434,7.559,7.617,7.6477,7.6477,7.7179,7.7765,7.7765,7.8507,7.9044,7.8963,7.9271,7.9466,7.9265,7.9243,7.94,7.9708,7.9608,7.9652,7.9981,7.9906,7.975,7.9614,7.955,7.945,7.9374,7.9302,7.9283,7.9283,7.9283,7.9283,7.9321,7.9742,8.0124,8.0506,8.0506,8.0506,8.0506,8.0506,8.0506,8.0506,8.0506,8.0506,8.0506,8.0506,8.0506,8.0506,8.0506,8.0506,8.0506,8.0506,8.0506,8.0506,8.0506,8.0506,8.0506,8.0506,8.0506,8.0506,8.0506,8.0506,8.0506,8.0506,8.0506,8.0506,8.0506,8.0506,8.0506,8.0506,8.0506,8.0506,8.0506,8.0506,8.0525,8.0542,8.0542,8.056,8.0652,8.0652,8.0652,8.0652,8.0667,8.0685,8.0685,8.0522,8.041,8.041,8.0182,8.0045,8.0045,8.0045,8.0065,8.0086,8.0125,8.0654,8.1708,8.2093,8.2747,8.367,8.4055,8.4709,8.5517,8.5517,8.5747,4.8203,5.3242,5.8551,6.5849,6.8966,7.0679,7.2278,7.2737,7.3041,7.3705,7.4759,7.5579,7.5579,7.6164,7.6708,7.6812,7.7437,7.7918,7.7845,7.8449,7.8823,7.8611,7.8583,7.8593,7.8656,7.8476,7.8395,7.8344,7.8163,7.8073,7.7984,7.8022,7.8022,7.8022,7.8022,7.8022,7.8022,7.8022,7.8022,7.8022,7.871,7.9398,8.0086,8.0086,8.0162,8.0277,8.0277,8.02,8.0086,8.0238,8.0277,8.0315,8.043,8.0506,8.0506,8.0506,8.0506,8.0506,8.0506,8.0506,8.0506,8.0506,8.0506,8.0506,8.0506,8.0506,8.0506,8.0506,8.0506,8.0506,8.0506,8.0506,8.0506,8.0506,8.0506,8.0506,8.0506,8.0506,8.0506,8.0506,8.0506,8.0506,8.0506,8.0506,8.0506,8.0506,8.0411,8.0373,8.0373,8.0335,8.0316,8.0316,8.0005,7.9782,7.9782,7.9418,7.9128,7.9128,7.9128,7.9152,7.9175,7.9175,7.968,8.0733,8.144,8.1841,8.1994,8.283,8.367,8.4515,8.4637,8.5132,4.2734,5.0507,5.9058,6.4555,6.7205,6.8724,6.9689,7.0504,7.1089,7.1206,7.3041,7.4681,7.4681,7.4759,7.5052,7.5713,7.5892,7.6163,7.6715,7.6885,7.6875,7.6525,7.649,7.6714,7.7239,7.7198,7.7423,7.808,7.8073,7.8002,7.8022,7.8022,7.8022,7.8022,7.8022,7.8022,7.8022,7.8022,7.8022,7.8022,7.8137,7.8213,7.8328,7.8328,7.8748,7.9454,7.9454,7.9016,7.8404,7.913,7.9454,7.9513,8.0238,8.0506,8.0506,8.0506,8.0506,8.0506,8.0506,8.0506,8.0506,8.0506,8.0506,8.0506,8.0506,8.0506,8.0506,8.0506,8.0506,8.0506,8.0506,8.0506,8.0506,8.0506,8.0506,8.0506,8.0506,8.0506,8.0506,8.0506,8.0506,8.0506,8.0506,8.0506,8.0506,8.0506,8.0081,7.9794,7.9794,7.9426,7.9133,7.9133,7.9085,7.9061,7.9061,7.8989,7.894,7.894,7.894,7.9013,7.9109,7.9109,7.9213,7.9447,7.9561,7.9999,8.0719,8.1398,8.2149,8.3008,8.3542,8.4247,4.4295,5.0776,5.7061,6.2748,6.5438,6.7037,6.8357,6.9333,6.9949,6.9869,7.0792,7.2104,7.3549,7.4141,7.4489,7.4828,7.4762,7.4771,7.4965,7.4953,7.4834,7.4563,7.4494,7.4572,7.4779,7.525,7.5621,7.5914,7.6321,7.6609,7.6609,7.6609,7.6609,7.6609,7.6609,7.6609,7.6609,7.6609,7.6838,7.7258,7.7258,7.7526,7.8022,7.8022,7.8213,7.8557,7.8557,7.8366,7.8022,7.8404,7.8557,7.8596,7.8978,7.9398,7.978,7.9283,7.9704,8.0353,7.9436,7.9436,7.9818,7.9818,7.9818,7.9895,8.0353,8.0506,8.0506,8.0506,8.0506,8.0411,8.0139,8.004,7.9979,7.9648,7.9583,7.9583,7.9583,8.0061,8.0506,8.0506,8.0238,8.004,8.004,7.9794,7.9583,7.9583,7.9403,7.9265,7.9265,7.9037,7.8891,7.8891,7.8614,7.8432,7.8432,7.8173,7.8016,7.8016,7.8016,7.8044,7.81,7.8063,7.8118,7.8136,7.884,7.9387,7.9787,8.0059,8.0645,8.1501,8.1835,8.2433,4.4251,4.8935,5.2877,5.9148,6.2345,6.4453,6.6366,6.7799,6.8671,6.8564,6.8938,6.9865,7.1815,7.2793,7.3436,7.3801,7.3729,7.3646,7.3632,7.3586,7.3459,7.3283,7.3216,7.3137,7.3095,7.3669,7.4002,7.3896,7.4507,7.4851,7.4851,7.4851,7.4851,7.4851,7.5042,7.5157,7.5157,7.5403,7.5806,7.6379,7.6379,7.6723,7.7373,7.7373,7.7373,7.7373,7.7564,7.7564,7.7373,7.7602,7.7678,7.7678,7.7908,7.8404,7.8901,7.8252,7.8787,7.9704,7.8443,7.8443,7.8978,7.8978,7.8978,7.9092,7.9665,7.9782,7.9667,7.9667,7.9742,7.9716,7.928,7.9343,7.9328,7.8726,7.859,7.8628,7.8853,7.9516,8.0081,8.0081,7.9773,7.9494,7.9494,7.9157,7.8891,7.8891,7.8766,7.869,7.869,7.8562,7.8484,7.8484,7.8118,7.7903,7.7903,7.754,7.7273,7.7273,7.7273,7.7273,7.7273,7.7273,7.7273,7.7273,7.8245,7.8716,7.8716,7.8889,7.9301,7.9927,8.0188,8.0795,3.8666,4.2256,4.5886,5.2745,5.6957,6.0119,6.2696,6.5067,6.6756,6.6751,6.7911,6.8956,6.9111,6.9954,7.1031,7.2365,7.259,7.2809,7.3416,7.3394,7.3268,7.3216,7.3137,7.3095,7.2996,7.3072,7.3055,7.3055,7.3093,7.3132,7.3132,7.3132,7.3132,7.3132,7.3858,7.4278,7.4278,7.508,7.5501,7.5539,7.5539,7.5594,7.5633,7.5633,7.5633,7.5671,7.6418,7.6341,7.5692,7.6456,7.6761,7.6838,7.7678,7.8022,7.8061,7.8022,7.8061,7.8137,7.8022,7.8022,7.8061,7.8061,7.8061,7.8099,7.8137,7.7836,7.7497,7.7497,7.7666,7.7823,7.7799,7.8376,7.8752,7.7939,7.7751,7.7976,7.8741,7.894,7.8989,7.8989,7.8964,7.894,7.894,7.8915,7.8891,7.8891,7.8495,7.8118,7.8118,7.768,7.7396,7.7396,7.7365,7.7335,7.7335,7.7304,7.7273,7.7273,7.7273,7.7273,7.7273,7.7273,7.7273,7.7273,7.7365,7.7396,7.7426,7.8044,7.8363,7.8427,7.9013,7.975,3.7729,4.0539,4.3426,4.9231,5.3288,5.6324,5.8276,6.1517,6.4104,6.3891,6.4784,6.5918,6.6812,6.8249,6.9458,6.9969,6.9934,7.0067,7.0843,7.0829,7.0931,7.1474,7.1434,7.1369,7.1336,7.1833,7.2176,7.2176,7.2673,7.2979,7.2979,7.2979,7.2979,7.2979,7.3284,7.3667,7.4201,7.5042,7.5518,7.5518,7.5518,7.5518,7.5518,7.5518,7.5518,7.5518,7.5806,7.5768,7.5501,7.5806,7.5921,7.5959,7.6265,7.6723,7.7105,7.657,7.7067,7.787,7.6761,7.6723,7.7182,7.7182,7.6979,7.6806,7.7376,7.7181,7.6791,7.6791,7.6841,7.6852,7.6504,7.6625,7.6696,7.606,7.5912,7.5986,7.6282,7.6875,7.7375,7.7375,7.7067,7.6998,7.7521,7.731,7.7282,7.7801,7.771,7.7599,7.7599,7.7426,7.7273,7.7273,7.7273,7.7273,7.7273,7.7273,7.7273,7.7273,7.7273,7.7273,7.7273,7.7273,7.7273,7.7273,7.7273,7.7273,7.7273,7.754,7.7651,7.7651,7.7988,7.8332,3.5151,3.7687,4.0691,4.6147,4.9267,5.1913,5.5581,5.8797,6.1071,6.1414,6.2611,6.3932,6.4843,6.6032,6.7216,6.8363,6.8411,6.8482,6.8992,6.8991,6.9092,6.9705,6.9626,6.9693,6.996,7.0533,7.0954,7.1221,7.1794,7.2138,7.2138,7.2138,7.2253,7.2559,7.2559,7.2941,7.3781,7.4354,7.466,7.466,7.4927,7.5042,7.508,7.5348,7.5518,7.5518,7.5518,7.5518,7.5518,7.5518,7.5518,7.5518,7.5518,7.5806,7.6227,7.5692,7.6188,7.6991,7.5883,7.5735,7.6045,7.6045,7.5718,7.5442,7.6009,7.5825,7.5445,7.5445,7.5483,7.5478,7.5105,7.5033,7.4922,7.4566,7.4294,7.4111,7.4111,7.5097,7.5965,7.5965,7.5676,7.5625,7.6115,7.614,7.6276,7.6827,7.7127,7.7273,7.7273,7.7273,7.7273,7.7273,7.7273,7.7273,7.7273,7.7273,7.7273,7.7273,7.7273,7.7273,7.7273,7.7273,7.7273,7.7273,7.7273,7.7273,7.7273,7.7273,7.7273,7.7273,7.7433,7.7493,0.0,0.0,0.0,4.3294,4.4815,4.6884,5.4494,5.6709,5.7642,5.9357,6.1486,6.3128,6.3205,6.3194,6.4257,6.7612,6.8175,6.8199,6.8153,6.8118,6.8074,6.8097,6.7998,6.8241,6.9082,6.9158,6.9502,7.0266,7.0342,7.0342,7.0381,7.0381,7.0801,7.1642,7.168,7.21,7.2941,7.2979,7.2979,7.3017,7.3781,7.4163,7.4201,7.5042,7.5442,7.548,7.548,7.548,7.5518,7.5518,7.5518,7.5518,7.5518,7.5501,7.5501,7.5501,7.5501,7.5483,7.5445,7.5114,7.4685,7.4685,7.4353,7.3986,7.3986,7.3628,7.3272,7.3272,7.3462,7.367,7.367,7.367,7.367,7.367,7.3083,7.2496,7.2496,7.3744,7.4845,7.4845,7.4845,7.4845,7.4882,7.5506,7.6056,7.6056,7.6754,7.7237,7.7237,7.7237,7.7237,7.7237,7.7273,7.7273,7.7273,7.7273,7.7273,7.7273,7.7273,7.7273,7.7273,7.7273,7.7273,7.7273,7.7273,7.7273,7.7273,7.7273,7.7273,7.7273,7.7273,7.7273,3.2807,0.0,0.0,0.0,0.0,0.0,4.6259,4.9054,5.1741,5.4503,5.6519,5.855,6.105,6.2,6.2886,6.4306,6.5019,6.5848,6.7065,6.714,6.7279,6.7906,6.7913,6.7973,6.8241,6.8241,6.8356,6.8585,6.8585,6.8852,6.9502,7.0075,7.0533,7.0763,7.1374,7.1794,7.2062,7.2673,7.2979,7.2979,7.3246,7.3323,7.3323,7.359,7.401,7.4545,7.4545,7.4927,7.5518,7.5518,7.5518,7.5518,7.5518,7.5263,7.4961,7.5374,7.5038,7.4455,7.4786,7.4602,7.4177,7.4177,7.3893,7.3491,7.3491,7.3141,7.2714,7.2714,7.2786,7.2826,7.2826,7.2826,7.2826,7.2826,7.2679,7.2496,7.2496,7.2863,7.3156,7.3156,7.3156,7.334,7.3927,7.4221,7.4551,7.5139,7.5432,7.5549,7.5549,7.6093,7.6423,7.6423,7.6943,7.7273,7.7273,7.7273,7.7273,7.7273,7.7273,7.7273,7.7273,7.7273,7.7273,7.7273,7.7273,7.7273,7.7273,7.7273,7.7273,7.7273,7.7273,7.7273,3.4836,3.612,3.8259,3.9993,0.0,0.0,4.5148,4.6784,4.8322,5.1617,5.3543,5.5395,5.7742,5.8823,5.984,6.1326,6.2167,6.3284,6.4973,6.5168,6.5299,6.5757,6.6139,6.6483,6.6827,6.7171,6.7553,6.7859,6.7897,6.8126,6.8623,6.9464,6.9884,6.9884,7.0724,7.1145,7.1145,7.1642,7.1909,7.1909,7.2291,7.2444,7.2482,7.2826,7.3246,7.3705,7.3705,7.3972,7.4431,7.4234,7.4689,7.5501,7.5263,7.4961,7.4725,7.4824,7.4497,7.4056,7.4309,7.4087,7.3701,7.3701,7.3364,7.299,7.299,7.2742,7.2496,7.2496,7.2496,7.2496,7.2496,7.2496,7.2496,7.2496,7.2496,7.2496,7.2496,7.2496,7.2496,7.2496,7.2496,7.2642,7.312,7.3487,7.3854,7.4331,7.4698,7.4918,7.4918,7.5322,7.5616,7.5616,7.6313,7.6827,7.6827,7.709,7.7273,7.7273,7.7273,7.7273,7.7273,7.7273,7.7273,7.7273,7.7273,7.7273,7.7273,7.7273,7.7273,7.7273,7.7273,7.7273,3.7214,3.8068,0.0,4.3656,4.2003,0.0,4.7423,4.7232,4.6583,4.9517,5.1236,5.2549,5.3692,5.449,5.5738,5.8165,5.937,6.0651,6.2639,6.2892,6.2892,6.2892,6.3579,6.4344,6.507,6.5834,6.6598,6.7439,6.7668,6.7782,6.7782,6.8585,6.9043,6.9043,6.9846,7.0266,7.0266,7.0381,7.0419,7.0419,7.1183,7.1565,7.1565,7.2367,7.2733,7.2775,7.2775,7.2779,7.2803,7.2396,7.3422,7.5221,7.4692,7.4489,7.446,7.4109,7.3916,7.3845,7.3855,7.3579,7.3193,7.3193,7.2881,7.2438,7.2467,7.2467,7.2438,7.2467,7.2467,7.2467,7.2467,7.2467,7.2496,7.2467,7.2467,7.2496,7.2467,7.2467,7.2467,7.2438,7.2467,7.2496,7.2496,7.3083,7.356,7.356,7.4184,7.4625,7.4625,7.4735,7.4771,7.4771,7.5506,7.5983,7.5983,7.6644,7.7053,7.7163,7.7163,7.72,7.7273,7.7273,7.7273,7.7273,7.7273,7.7273,7.7273,7.7273,7.7273,7.7273,7.7273,7.7273,4.1819,4.2947,4.4456,4.3068,4.4179,0.0,4.2094,4.3163,4.4759,4.4677,4.5406,4.6923,4.9807,5.0978,5.1935,5.3008,5.5566,5.8706,6.2456,6.2921,6.2892,6.2892,6.3045,6.3236,6.3388,6.3541,6.4,6.484,6.6178,6.6942,6.6942,6.7706,6.8126,6.8126,6.9005,6.9425,6.9425,7.0075,7.0419,7.0419,7.0572,7.0648,7.0648,7.0839,7.109,7.1371,7.1371,7.1576,7.1874,7.1751,7.2566,7.3837,7.3366,7.3232,7.3354,7.3712,7.3327,7.2678,7.3066,7.2889,7.2524,7.2638,7.2401,7.2108,7.2292,7.2204,7.2144,7.2263,7.2358,7.2358,7.2358,7.2409,7.2467,7.2351,7.2409,7.2467,7.2351,7.2358,7.2292,7.2108,7.2321,7.2496,7.2496,7.2642,7.2716,7.2716,7.2863,7.2973,7.2973,7.3523,7.3927,7.3927,7.4661,7.5139,7.5139,7.5285,7.5652,7.6276,7.635,7.6644,7.7273,7.7273,7.7273,7.7273,7.7273,7.7273,7.7273,7.7273,7.7273,7.7273,7.7273,7.7273,4.568,4.595,4.6906,4.6636,0.0,0.0,0.0,4.3838,4.3694,4.5341,4.4298,4.4222,4.7991,4.8308,4.8527,5.0128,5.2839,5.5504,5.7608,5.971,6.1019,6.1019,6.1402,6.1631,6.1631,6.2395,6.3083,6.3503,6.4344,6.4993,6.5413,6.6216,6.6865,6.7286,6.8088,6.8547,6.8547,6.8967,6.9387,6.9807,6.9709,6.976,6.9961,6.9852,6.9833,6.9909,6.9809,6.9966,7.0166,6.9869,7.0378,7.135,7.1611,7.1702,7.1749,7.2156,7.1996,7.1655,7.2275,7.2336,7.2174,7.2233,7.2137,7.2018,7.2144,7.2084,7.2018,7.2114,7.2144,7.2144,7.2144,7.2204,7.2263,7.2174,7.2204,7.2263,7.2174,7.2144,7.2144,7.2018,7.2137,7.2292,7.238,7.2438,7.2496,7.2496,7.2496,7.2496,7.2496,7.2863,7.3083,7.3083,7.3817,7.4294,7.4294,7.4661,7.5065,7.5469,7.5506,7.5689,7.6093,7.6497,7.69,7.7273,7.7273,7.7273,7.7273,7.7273,7.7273,7.7273,7.7273,7.7273,4.945,4.9016,4.9494,5.0481,0.0,4.7193,0.0,0.0,0.0,4.6515,4.4261,4.2876,4.6445,4.5774,4.5409,4.7531,5.0126,5.1773,5.162,5.4944,5.7542,5.7848,5.8956,5.9682,5.9682,6.0905,6.1936,6.2586,6.2204,6.2548,6.3885,6.4726,6.549,6.6216,6.7102,6.762,6.762,6.7773,6.8161,6.8727,6.8607,6.8754,6.9086,6.8922,6.8778,6.8622,6.8507,6.8483,6.8436,6.7998,6.8147,6.8773,6.9779,7.0196,7.0229,7.0456,7.0506,7.0615,7.1271,7.1599,7.1739,7.1769,7.1878,7.1957,7.1745,7.1788,7.1897,7.1927,7.1957,7.1957,7.1957,7.1988,7.1988,7.1957,7.1988,7.1988,7.1957,7.1957,7.1927,7.1897,7.1927,7.2018,7.2204,7.2321,7.2409,7.2409,7.2409,7.2409,7.2409,7.2438,7.2438,7.2438,7.3083,7.345,7.345,7.4074,7.4515,7.4661,7.4661,7.4735,7.4918,7.5542,7.624,7.7053,7.7053,7.7127,7.7273,7.7273,7.7273,7.7273,7.7273,7.7273,0.0,0.0,0.0,0.0,5.2222,0.0,0.0,0.0,4.6459,4.3225,0.0,4.2137,4.3289,0.0,0.0,4.3359,4.6233,4.8105,4.7341,4.9557,5.1849,5.3339,5.5594,5.7008,5.7008,5.7199,5.8536,6.1516,5.972,5.9797,6.2892,6.3885,6.4397,6.4458,6.5846,6.6564,6.6564,6.7288,6.744,6.7086,6.7203,6.7406,6.7635,6.7591,6.7729,6.7986,6.7986,6.7741,6.7396,6.7314,6.7275,6.7344,6.828,6.9018,6.9529,6.955,6.9557,6.9557,6.9666,7.0138,7.0787,7.087,7.135,7.1671,7.0858,7.105,7.1589,7.1749,7.1811,7.1811,7.1811,7.1933,7.1957,7.1842,7.1933,7.1957,7.1842,7.1811,7.1749,7.1589,7.1718,7.1872,7.1988,7.2054,7.2054,7.2048,7.2048,7.2048,7.2048,7.2204,7.2329,7.2329,7.2519,7.2642,7.2642,7.2716,7.3083,7.378,7.3817,7.4147,7.4882,7.4992,7.5432,7.624,7.624,7.6607,7.7273,7.7273,7.7273,7.7273,7.7273,7.7273,0.0,0.0,0.0,0.0,0.0,0.0,4.7717,0.0,4.581,0.0,0.0,0.0,0.0,0.0,0.0,0.0,4.435,4.5114,4.3787,4.5354,4.7788,5.0971,5.2308,5.3531,5.5021,5.5135,5.5938,5.7848,5.6587,5.716,6.0509,6.1391,6.2536,6.4153,6.4552,6.5061,6.5618,6.5664,6.5804,6.6044,6.582,6.5888,6.6171,6.6063,6.6243,6.6692,6.661,6.6764,6.7069,6.7019,6.6932,6.6939,6.7324,6.7651,6.7955,6.8427,6.8578,6.8651,6.9116,6.9515,6.9806,6.983,7.0054,7.021,6.9823,6.9901,7.0185,7.0283,7.0314,7.0314,7.0314,7.0671,7.1059,7.1003,7.1034,7.1059,7.1003,7.064,7.0283,7.0185,7.0216,7.0459,7.0986,7.1612,7.2024,7.1988,7.1988,7.1988,7.1988,7.2048,7.2144,7.2114,7.2174,7.2197,7.2197,7.2197,7.2372,7.2856,7.2951,7.3377,7.4184,7.4184,7.4588,7.5395,7.5395,7.5799,7.6607,7.6607,7.6864,7.7273,7.7273,7.7273,5.5052,0.0,0.0,0.0,0.0,0.0,0.0,0.0,0.0,0.0,0.0,0.0,0.0,0.0,0.0,0.0,0.0,4.309,4.1418,4.2221,4.4274,4.7837,4.9251,5.0894,5.3187,5.2575,5.2843,5.4906,5.3378,5.4231,5.8467,5.9402,6.0867,6.3137,6.3369,6.3722,6.4307,6.4122,6.4275,6.4689,6.439,6.4376,6.4736,6.4563,6.4858,6.54,6.5322,6.5757,6.6606,6.6519,6.6605,6.6786,6.6786,6.6786,6.6858,6.7474,6.7692,6.7764,6.8343,6.8669,6.885,6.885,6.9026,6.9171,6.8923,6.9026,6.9207,6.9207,6.9207,6.9207,6.9207,6.9642,7.0077,7.0077,7.0077,7.0077,7.0077,6.9605,6.9207,6.9207,6.9207,6.9388,6.9968,7.0914,7.1618,7.183,7.1866,7.1866,7.1866,7.1897,7.1964,7.1933,7.1994,7.1988,7.1988,7.1988,7.2048,7.2204,7.2321,7.2636,7.3223,7.3289,7.3685,7.4499,7.4558,7.4992,7.5763,7.5763,7.6093,7.665,7.709,7.7273,0.0,0.0,0.0,5.204,0.0,0.0,0.0,0.0,4.8461,0.0,0.0,0.0,0.0,0.0,0.0,0.0,0.0,0.0,0.0,4.0377,4.1065,4.2832,4.6653,4.9824,5.1493,4.8678,4.8793,5.376,5.0321,5.0822,5.7297,5.8606,5.9627,6.0676,6.2203,6.2778,6.2278,6.3052,6.3178,6.2716,6.2867,6.3082,6.3292,6.3265,6.3699,6.4432,6.4432,6.4903,6.5627,6.5627,6.6098,6.6786,6.6786,6.6786,6.6786,6.6822,6.6858,6.6858,6.6858,6.7402,6.8054,6.8054,6.8561,6.9062,6.8271,6.8561,6.9207,6.9207,6.9207,6.9207,6.9207,6.9243,6.9243,6.9243,6.9243,6.9243,6.9243,6.9243,6.9207,6.9207,6.9207,6.9207,6.9243,6.9932,7.0692,7.1386,7.1494,7.1494,7.1494,7.1687,7.1816,7.1816,7.1933,7.1988,7.1988,7.1988,7.2018,7.2018,7.2018,7.2018,7.2054,7.224,7.2702,7.3543,7.3655,7.4147,7.4955,7.4955,7.4955,7.5028,7.6576,7.7273,0.0,0.0,5.8132,5.4213,0.0,0.0,0.0,0.0,0.0,0.0,0.0,0.0,0.0,0.0,0.0,0.0,0.0,0.0,0.0,3.8591,3.9011,4.0157,4.4017,4.6347,4.5851,4.6233,4.7226,4.8945,4.8831,5.0567,5.4922,5.692,5.8467,5.9773,6.0659,6.1425,6.2197,6.21,6.2242,6.2603,6.2423,6.2331,6.2404,6.2404,6.2838,6.3599,6.3599,6.407,6.4794,6.4794,6.5265,6.6025,6.6025,6.6315,6.6786,6.6786,6.6786,6.6786,6.6786,6.6967,6.7221,6.7221,6.7402,6.7547,6.7293,6.7402,6.7619,6.7619,6.7619,6.7619,6.7619,6.8017,6.8416,6.8416,6.8416,6.8416,6.8416,6.7981,6.7619,6.7619,6.7619,6.7764,6.8307,6.8223,6.871,7.049,7.077,7.0951,7.1458,7.1562,7.1625,7.1625,7.162,7.1458,7.0973,7.0537,7.0298,7.0298,7.0904,7.1264,7.1264,7.1836,7.2283,7.2702,7.2761,7.3215,7.4111,7.4111,7.4368,7.4918,7.5469,7.5726,5.8785,5.9007,0.0,5.5626,5.4414,0.0,4.9324,0.0,4.9805,0.0,0.0,0.0,0.0,0.0,0.0,0.0,0.0,0.0,0.0,3.7521,3.7789,3.8094,4.1571,4.3749,4.3291,4.3566,4.4558,4.6347,4.6625,4.8667,5.3076,5.5178,5.6928,5.854,5.9359,6.0137,6.0826,6.0799,6.1157,6.1969,6.1705,6.1725,6.1978,6.1978,6.2295,6.2766,6.2766,6.3237,6.3961,6.3961,6.4432,6.5156,6.5156,6.5663,6.6424,6.6677,6.6786,6.6786,6.6786,6.6786,6.6786,6.6786,6.6786,6.6786,6.6786,6.6786,6.6786,6.6786,6.6786,6.6786,6.6786,6.7184,6.7523,6.7239,6.7178,6.7117,6.6832,6.6375,6.6016,6.6016,6.6016,6.616,6.6697,6.6381,6.6883,6.9209,6.9365,6.9346,6.9813,6.9884,6.9884,6.9884,7.0135,7.0186,6.999,6.9565,6.9313,6.9313,6.9954,7.0302,7.0302,7.0806,7.1131,7.1259,7.1359,7.1801,7.2687,7.2687,7.31,7.3859,7.3859,7.3889]}]]